Air Quality Table

TIMESTAMP NO2 SO2 O3 PM10 PM2.5 CO TEMP HUM AIRPRES WS WD NO BENZENE
2021-11-30 00:00 1.88 µg/m3 0.55 µg/m3 79.14 µg/m3 11.05 µg/m3 5.76 µg/m3 0.15 mg/m3 12.27 °C 65.44 % 1,013.49 mbar 5.04 m/s 245.1 Deg 0.16 µg/m3 0.58 µg/m3
2021-11-29 23:00 3.39 µg/m3 0.54 µg/m3 79.1 µg/m3 8.44 µg/m3 5.11 µg/m3 0.15 mg/m3 11.2 °C 71.29 % 1,013.35 mbar 5.8 m/s 254.7 Deg 0.44 µg/m3 0.47 µg/m3
2021-11-29 22:00 4.42 µg/m3 0.55 µg/m3 77.84 µg/m3 13.06 µg/m3 8.05 µg/m3 0.16 mg/m3 11.62 °C 71.48 % 1,012.48 mbar 5.15 m/s 256.9 Deg 0.65 µg/m3 0.52 µg/m3
2021-11-29 21:00 8.2 µg/m3 0.56 µg/m3 73.81 µg/m3 15.08 µg/m3 9.69 µg/m3 0.17 mg/m3 12.03 °C 71.22 % 1,011.54 mbar 4.8 m/s 259.47 Deg 1.85 µg/m3 0.65 µg/m3
2021-11-29 20:00 7.6 µg/m3 0.54 µg/m3 74.47 µg/m3 20.75 µg/m3 8.78 µg/m3 0.16 mg/m3 13.93 °C 55.53 % 1,010.32 mbar 6.46 m/s 249.42 Deg 1.84 µg/m3 0.79 µg/m3
2021-11-29 19:00 11 µg/m3 0.56 µg/m3 70.44 µg/m3 25.28 µg/m3 8.76 µg/m3 0.17 mg/m3 14.93 °C 48.46 % 1,009.11 mbar 6.25 m/s 247.1 Deg 2.72 µg/m3 0.84 µg/m3
2021-11-29 18:00 13.32 µg/m3 0.54 µg/m3 65.53 µg/m3 23.03 µg/m3 8.56 µg/m3 0.2 mg/m3 14.92 °C 55.67 % 1,008.05 mbar 5.75 m/s 240.8 Deg 3.69 µg/m3 1.33 µg/m3
2021-11-29 17:00 15.82 µg/m3 0.55 µg/m3 61.39 µg/m3 14.35 µg/m3 6.72 µg/m3 0.2 mg/m3 13.42 °C 68.4 % 1,007.78 mbar 4.73 m/s 232.4 Deg 3.89 µg/m3 1.23 µg/m3
2021-11-29 16:00 15.71 µg/m3 0.57 µg/m3 61.03 µg/m3 28.97 µg/m3 9.95 µg/m3 0.21 mg/m3 14.53 °C 59.65 % 1,006.92 mbar 5.72 m/s 235.53 Deg 4.36 µg/m3 0.87 µg/m3
2021-11-29 15:00 13.64 µg/m3 0.56 µg/m3 63.69 µg/m3 37.33 µg/m3 10.75 µg/m3 0.18 mg/m3 15.71 °C 51.35 % 1,006.32 mbar 5.96 m/s 224.13 Deg 3.51 µg/m3 0.91 µg/m3
2021-11-29 14:00 13.35 µg/m3 0.55 µg/m3 63.14 µg/m3 34.03 µg/m3 10.13 µg/m3 0.17 mg/m3 15.56 °C 52.35 % 1,006.34 mbar 6.14 m/s 222.87 Deg 4.07 µg/m3 0.65 µg/m3
2021-11-29 13:00 10.46 µg/m3 0.57 µg/m3 65.65 µg/m3 32.14 µg/m3 9.53 µg/m3 0.17 mg/m3 15.57 °C 51.61 % 1,007.06 mbar 6.86 m/s 222.18 Deg 2.61 µg/m3 0.82 µg/m3
2021-11-29 12:00 11.52 µg/m3 0.58 µg/m3 63.31 µg/m3 38.14 µg/m3 9.72 µg/m3 0.17 mg/m3 15.84 °C 49.65 % 1,007.67 mbar 5.88 m/s 222.6 Deg 3.76 µg/m3 0.76 µg/m3
2021-11-29 11:00 13.48 µg/m3 0.57 µg/m3 60.99 µg/m3 30.93 µg/m3 8.48 µg/m3 0.18 mg/m3 15.58 °C 48.79 % 1,007.96 mbar 5.26 m/s 225.05 Deg 4.47 µg/m3 0.86 µg/m3
2021-11-29 10:00 17.85 µg/m3 0.55 µg/m3 56.19 µg/m3 36.17 µg/m3 8.77 µg/m3 0.19 mg/m3 15.18 °C 49.58 % 1,008.16 mbar 4.55 m/s 225.6 Deg 6.96 µg/m3 1 µg/m3
2021-11-29 09:00 18.16 µg/m3 0.56 µg/m3 56.45 µg/m3 27.91 µg/m3 7.86 µg/m3 0.2 mg/m3 14.7 °C 50.89 % 1,008.07 mbar 5.01 m/s 224.32 Deg 5.89 µg/m3 1.08 µg/m3
2021-11-29 08:00 24.99 µg/m3 0.55 µg/m3 50.26 µg/m3 25.08 µg/m3 6.8 µg/m3 0.22 mg/m3 14.45 °C 50.63 % 1,007.58 mbar 3.97 m/s 226.68 Deg 8.18 µg/m3 1.08 µg/m3
2021-11-29 07:00 16.55 µg/m3 0.49 µg/m3 56.67 µg/m3 12.75 µg/m3 4.52 µg/m3 0.2 mg/m3 14.41 °C 49.53 % 1,006.90 mbar 3.97 m/s 225.7 Deg 3.85 µg/m3 0.68 µg/m3
2021-11-29 06:00 7.02 µg/m3 0.4 µg/m3 63.39 µg/m3 9.68 µg/m3 3.84 µg/m3 0.15 mg/m3 14.5 °C 51.76 % 1,006.44 mbar 3.48 m/s 232.22 Deg 1.07 µg/m3 0.5 µg/m3
2021-11-29 05:00 2.91 µg/m3 0.42 µg/m3 68.23 µg/m3 9.56 µg/m3 3.79 µg/m3 0.14 mg/m3 14.28 °C 56.02 % 1,006.17 mbar 3.42 m/s 237.43 Deg 0.14 µg/m3 0.42 µg/m3
2021-11-29 04:00 1.58 µg/m3 0.42 µg/m3 69.9 µg/m3 10.44 µg/m3 3.99 µg/m3 0.14 mg/m3 14.03 °C 61.65 % 1,005.84 mbar 3.9 m/s 248.93 Deg -0.02 µg/m3 0.44 µg/m3
2021-11-29 03:00 2.8 µg/m3 0.39 µg/m3 70.35 µg/m3 8.29 µg/m3 3.57 µg/m3 0.14 mg/m3 14.55 °C 60.38 % 1,005.53 mbar 3.68 m/s 245.72 Deg 0.58 µg/m3 0.47 µg/m3
2021-11-29 02:00 2.02 µg/m3 0.35 µg/m3 71.97 µg/m3 8.91 µg/m3 4.06 µg/m3 0.15 mg/m3 14.04 °C 68.12 % 1,005.39 mbar 3.19 m/s 248.17 Deg -0.17 µg/m3 0.52 µg/m3
2021-11-29 01:00 3.52 µg/m3 0.31 µg/m3 68.59 µg/m3 6.49 µg/m3 4.61 µg/m3 0.17 mg/m3 13.86 °C 77.37 % 1,005.63 mbar 2.99 m/s 250.98 Deg 0.14 µg/m3 0.76 µg/m3
2021-11-29 00:00 7.48 µg/m3 0.38 µg/m3 66.3 µg/m3 9.29 µg/m3 4.53 µg/m3 0.18 mg/m3 14.51 °C 71.67 % 1,005.53 mbar 2.42 m/s 248.17 Deg 0.47 µg/m3 0.68 µg/m3
2021-11-28 23:00 15.56 µg/m3 0.34 µg/m3 58.63 µg/m3 13.89 µg/m3 6.39 µg/m3 0.23 mg/m3 14.97 °C 69.09 % 1,005.40 mbar 1.95 m/s 239.95 Deg 1.69 µg/m3 1.12 µg/m3
2021-11-28 22:00 14.24 µg/m3 0.35 µg/m3 61.84 µg/m3 16.26 µg/m3 7.08 µg/m3 0.22 mg/m3 15.16 °C 67.29 % 1,005.41 mbar 2.16 m/s 244.5 Deg 1.88 µg/m3 0.79 µg/m3
2021-11-28 21:00 22.12 µg/m3 0.36 µg/m3 57.45 µg/m3 26.42 µg/m3 10.13 µg/m3 0.24 mg/m3 15.67 °C 64.98 % 1,004.87 mbar 1.64 m/s 230.07 Deg 2.5 µg/m3 0.89 µg/m3
2021-11-28 20:00 20.45 µg/m3 0.37 µg/m3 61.48 µg/m3 23.26 µg/m3 10.23 µg/m3 0.25 mg/m3 15.64 °C 66.03 % 1,004.58 mbar 2.31 m/s 242.58 Deg 2.64 µg/m3 1.29 µg/m3
2021-11-28 19:00 17.67 µg/m3 0.43 µg/m3 63.35 µg/m3 11.8 µg/m3 7.25 µg/m3 0.25 mg/m3 15.16 °C 76.48 % 1,004.13 mbar 2.3 m/s 238.5 Deg 1.83 µg/m3 1.47 µg/m3
2021-11-28 18:00 13.96 µg/m3 0.36 µg/m3 65.46 µg/m3 9.85 µg/m3 6.96 µg/m3 0.23 mg/m3 15.16 °C 83.46 % 1,003.42 mbar 2.83 m/s 238.13 Deg 2.21 µg/m3 0.94 µg/m3
2021-11-28 17:00 13.54 µg/m3 0.36 µg/m3 64 µg/m3 6.83 µg/m3 4.8 µg/m3 0.22 mg/m3 15.6 °C 85.63 % 1,003.01 mbar 2.65 m/s 237.57 Deg 1.69 µg/m3 1 µg/m3
2021-11-28 16:00 13.43 µg/m3 0.33 µg/m3 64.81 µg/m3 8.33 µg/m3 4.6 µg/m3 0.2 mg/m3 17.26 °C 73.98 % 1,002.65 mbar 2.62 m/s 219.45 Deg 1.25 µg/m3 0.7 µg/m3
2021-11-28 15:00 13.32 µg/m3 0.38 µg/m3 66.14 µg/m3 6.75 µg/m3 4.29 µg/m3 0.19 mg/m3 16.98 °C 74.33 % 1,002.70 mbar 2.74 m/s 220.23 Deg 0.95 µg/m3 0.63 µg/m3
2021-11-28 14:00 10.7 µg/m3 0.35 µg/m3 68.63 µg/m3 7.59 µg/m3 5 µg/m3 0.19 mg/m3 16.79 °C 75.67 % 1,003.20 mbar 2.77 m/s 216.8 Deg 0.54 µg/m3 0.63 µg/m3
2021-11-28 13:00 10.33 µg/m3 0.38 µg/m3 70.48 µg/m3 7.39 µg/m3 5.05 µg/m3 0.19 mg/m3 15.87 °C 82.3 % 1,003.72 mbar 2.32 m/s 200.62 Deg 1.12 µg/m3 0.89 µg/m3
2021-11-28 12:00 14.6 µg/m3 0.41 µg/m3 67.46 µg/m3 9.12 µg/m3 6.33 µg/m3 0.24 mg/m3 15 °C 89.08 % 1,005.90 mbar 2.25 m/s 200.9 Deg 1.7 µg/m3 1.23 µg/m3
2021-11-28 11:00 13.28 µg/m3 0.41 µg/m3 70.09 µg/m3 8.7 µg/m3 6.16 µg/m3 0.21 mg/m3 14.29 °C 88.65 % 1,006.70 mbar 2.06 m/s 201.1 Deg 1.01 µg/m3 1.26 µg/m3
2021-11-28 10:00 9.43 µg/m3 0.41 µg/m3 75.45 µg/m3 7.69 µg/m3 5.61 µg/m3 0.18 mg/m3 13.77 °C 86.95 % 1,007.16 mbar 2.65 m/s 210.62 Deg 0.61 µg/m3 0.84 µg/m3
2021-11-28 09:00 9.93 µg/m3 0.38 µg/m3 75.81 µg/m3 8.56 µg/m3 6.08 µg/m3 0.18 mg/m3 13.86 °C 82.6 % 1,007.44 mbar 2.63 m/s 217.65 Deg 0.23 µg/m3 0.65 µg/m3
2021-11-28 08:00 8.57 µg/m3 0.38 µg/m3 76.17 µg/m3 9.71 µg/m3 6.6 µg/m3 0.16 mg/m3 14.01 °C 79.68 % 1,006.84 mbar 2.28 m/s 221.13 Deg 0.17 µg/m3 0.49 µg/m3
2021-11-28 07:00 4.61 µg/m3 0.36 µg/m3 80.63 µg/m3 10.25 µg/m3 7 µg/m3 0.15 mg/m3 14.25 °C 77.19 % 1,007.06 mbar 3.51 m/s 221.7 Deg -0 µg/m3 0.42 µg/m3
2021-11-28 06:00 3 µg/m3 0.39 µg/m3 82.04 µg/m3 13.16 µg/m3 6.96 µg/m3 0.13 mg/m3 15.3 °C 66.01 % 1,006.61 mbar 3.86 m/s 222.83 Deg -0.15 µg/m3 0.42 µg/m3
2021-11-28 05:00 2.17 µg/m3 0.39 µg/m3 83.01 µg/m3 23.46 µg/m3 9.53 µg/m3 0.13 mg/m3 17.68 °C 56.42 % 1,006.36 mbar 4.21 m/s 222.3 Deg -0.15 µg/m3 0.42 µg/m3
2021-11-28 04:00 3.13 µg/m3 0.43 µg/m3 80.92 µg/m3 26.88 µg/m3 11.11 µg/m3 0.13 mg/m3 18.2 °C 56.07 % 1,006.14 mbar 4.03 m/s 221.47 Deg -0.04 µg/m3 0.39 µg/m3
2021-11-28 03:00 2.54 µg/m3 0.41 µg/m3 82.88 µg/m3 29.82 µg/m3 10.88 µg/m3 0.13 mg/m3 18.13 °C 52.91 % 1,006.33 mbar 3.66 m/s 221.97 Deg -0.14 µg/m3 0.44 µg/m3
2021-11-28 02:00 3.5 µg/m3 0.36 µg/m3 82.2 µg/m3 33.62 µg/m3 11.82 µg/m3 0.13 mg/m3 18.26 °C 55.49 % 1,006.64 mbar 3.64 m/s 220.73 Deg -0.08 µg/m3 0.44 µg/m3
2021-11-28 01:00 5.37 µg/m3 0.32 µg/m3 80.51 µg/m3 47.02 µg/m3 14.07 µg/m3 0.14 mg/m3 18.29 °C 56.29 % 1,007.21 mbar 3.92 m/s 222.22 Deg 0.12 µg/m3 0.6 µg/m3
2021-11-28 00:00 9.33 µg/m3 0.39 µg/m3 74.69 µg/m3 48.74 µg/m3 14.04 µg/m3 0.16 mg/m3 18.25 °C 54.72 % 1,006.80 mbar 3.16 m/s 223.18 Deg 0.46 µg/m3 0.61 µg/m3
2021-11-27 23:00 11.11 µg/m3 0.42 µg/m3 74.09 µg/m3 51.74 µg/m3 14.72 µg/m3 0.18 mg/m3 18.69 °C 54.32 % 1,007.11 mbar 2.83 m/s 220.63 Deg 0.69 µg/m3 0.92 µg/m3
2021-11-27 22:00 20.13 µg/m3 0.43 µg/m3 64.09 µg/m3 60.39 µg/m3 18.87 µg/m3 0.25 mg/m3 18.45 °C 56.92 % 1,007.56 mbar 1.91 m/s 220.5 Deg 1.63 µg/m3 1.6 µg/m3
2021-11-27 21:00 26.17 µg/m3 0.44 µg/m3 58.06 µg/m3 58.25 µg/m3 18.19 µg/m3 0.3 mg/m3 18.09 °C 54.43 % 1,007.78 mbar 1.77 m/s 223.22 Deg 2.76 µg/m3 1.33 µg/m3
2021-11-27 20:00 28.17 µg/m3 0.48 µg/m3 55.42 µg/m3 42.08 µg/m3 14.76 µg/m3 0.32 mg/m3 17.96 °C 58.61 % 1,007.53 mbar 1.67 m/s 222.17 Deg 4.67 µg/m3 2.89 µg/m3
2021-11-27 19:00 44.26 µg/m3 0.55 µg/m3 36.48 µg/m3 54.54 µg/m3 17.39 µg/m3 0.43 mg/m3 17.41 °C 62.13 % 1,007.02 mbar 0.78 m/s 220.83 Deg 8.64 µg/m3 3.41 µg/m3
2021-11-27 18:00 47.52 µg/m3 0.51 µg/m3 31.47 µg/m3 49.44 µg/m3 15.29 µg/m3 0.38 mg/m3 17.18 °C 62.64 % 1,006.46 mbar 0.97 m/s 230.12 Deg 8.15 µg/m3 2.31 µg/m3
2021-11-27 17:00 35.72 µg/m3 0.5 µg/m3 42.93 µg/m3 40.77 µg/m3 13.7 µg/m3 0.35 mg/m3 17.67 °C 64.39 % 1,005.86 mbar 1.54 m/s 239.6 Deg 5.47 µg/m3 1.63 µg/m3
2021-11-27 16:00 31.55 µg/m3 0.44 µg/m3 50.65 µg/m3 35.04 µg/m3 13.04 µg/m3 0.33 mg/m3 18.47 °C 61.17 % 1,005.04 mbar 1.87 m/s 251.12 Deg 6.28 µg/m3 1.42 µg/m3
2021-11-27 15:00 21.24 µg/m3 0.43 µg/m3 61.63 µg/m3 29.53 µg/m3 11.56 µg/m3 0.25 mg/m3 18.53 °C 62.52 % 1,004.47 mbar 2.44 m/s 264.88 Deg 4.48 µg/m3 1.5 µg/m3
2021-11-27 14:00 23.14 µg/m3 0.46 µg/m3 57.78 µg/m3 30.03 µg/m3 11.32 µg/m3 0.27 mg/m3 17.93 °C 64.85 % 1,003.97 mbar 2.11 m/s 268.28 Deg 6.93 µg/m3 1.15 µg/m3
2021-11-27 13:00 26.74 µg/m3 0.5 µg/m3 54.95 µg/m3 31.35 µg/m3 13.28 µg/m3 0.27 mg/m3 16.81 °C 72.32 % 1,004.55 mbar 1.93 m/s 271.4 Deg 7.62 µg/m3 1.23 µg/m3
2021-11-27 12:00 37.15 µg/m3 0.46 µg/m3 42.65 µg/m3 24.87 µg/m3 16.59 µg/m3 0.34 mg/m3 15.94 °C 78.12 % 1,005.28 mbar 1.4 m/s 278.62 Deg 9.57 µg/m3 1.57 µg/m3
2021-11-27 11:00 49.74 µg/m3 0.69 µg/m3 27.75 µg/m3 25.07 µg/m3 16.71 µg/m3 0.4 mg/m3 15.49 °C 79.03 % 1,006.26 mbar 1.18 m/s 276.78 Deg 16.7 µg/m3 5.07 µg/m3
2021-11-27 10:00 65.93 µg/m3 0.89 µg/m3 11.18 µg/m3 32.59 µg/m3 21.73 µg/m3 0.48 mg/m3 14.99 °C 82.76 % 1,007.02 mbar 1.09 m/s 245.92 Deg 31.89 µg/m3 2.99 µg/m3
2021-11-27 09:00 52.12 µg/m3 0.63 µg/m3 25.02 µg/m3 31.55 µg/m3 20.27 µg/m3 0.32 mg/m3 15.37 °C 77.12 % 1,007.40 mbar 1.12 m/s 228.85 Deg 11.44 µg/m3 1.45 µg/m3
2021-11-27 08:00 55.61 µg/m3 1.27 µg/m3 25.7 µg/m3 130.61 µg/m3 32.42 µg/m3 0.6 mg/m3 17.98 °C 59.24 % 1,006.58 mbar 1.52 m/s 218.22 Deg 53.49 µg/m3 5.64 µg/m3
2021-11-27 07:00 42.34 µg/m3 0.71 µg/m3 33.49 µg/m3 155.74 µg/m3 41.91 µg/m3 0.4 mg/m3 18.37 °C 60.17 % 1,006.35 mbar 1.18 m/s 216.55 Deg 21.65 µg/m3 1.86 µg/m3
2021-11-27 06:00 20.72 µg/m3 0.45 µg/m3 52.06 µg/m3 118.24 µg/m3 32.45 µg/m3 0.2 mg/m3 18.29 °C 59.94 % 1,006.59 mbar 1.21 m/s 215.85 Deg 2.49 µg/m3 1 µg/m3
2021-11-27 05:00 17.97 µg/m3 0.4 µg/m3 56.42 µg/m3 78.57 µg/m3 21 µg/m3 0.19 mg/m3 18.17 °C 59.46 % 1,006.77 mbar 1.2 m/s 223.1 Deg 1.23 µg/m3 0.97 µg/m3
2021-11-27 04:00 13.36 µg/m3 0.46 µg/m3 59.63 µg/m3 58.8 µg/m3 16.34 µg/m3 0.18 mg/m3 18.05 °C 61.3 % 1,007.23 mbar 1.32 m/s 214.57 Deg 0.52 µg/m3 1 µg/m3
2021-11-27 03:00 10.91 µg/m3 0.41 µg/m3 63.62 µg/m3 34.61 µg/m3 9.73 µg/m3 0.19 mg/m3 18.06 °C 61.51 % 1,008.15 mbar 1.55 m/s 217.12 Deg 0.33 µg/m3 1.03 µg/m3
2021-11-27 02:00 22.91 µg/m3 0.45 µg/m3 54.27 µg/m3 26.08 µg/m3 7.66 µg/m3 0.24 mg/m3 17.78 °C 60.24 % 1,008.91 mbar 1.34 m/s 221.48 Deg 1.79 µg/m3 1.71 µg/m3
2021-11-27 01:00 57.7 µg/m3 1.01 µg/m3 19.34 µg/m3 37.84 µg/m3 11.92 µg/m3 0.64 mg/m3 16.73 °C 62.08 % 1,009.39 mbar 0.85 m/s 237.33 Deg 30.95 µg/m3 5.37 µg/m3
2021-11-27 00:00 68.57 µg/m3 1.53 µg/m3 3.27 µg/m3 30.41 µg/m3 15.62 µg/m3 0.93 mg/m3 15.67 °C 68.26 % 1,009.56 mbar 0.68 m/s 233 Deg 70.94 µg/m3 5.77 µg/m3
2021-11-26 23:00 59.53 µg/m3 0.91 µg/m3 18.49 µg/m3 41.11 µg/m3 10.63 µg/m3 0.56 mg/m3 16.35 °C 62.88 % 1,009.90 mbar 1.01 m/s 230.27 Deg 30.55 µg/m3 3.67 µg/m3
2021-11-26 22:00 64.7 µg/m3 0.96 µg/m3 18.04 µg/m3 47.45 µg/m3 11.63 µg/m3 0.6 mg/m3 16.79 °C 60.23 % 1,010.01 mbar 1.08 m/s 227.12 Deg 31.55 µg/m3 4.04 µg/m3
2021-11-26 21:00 45.85 µg/m3 0.61 µg/m3 37.86 µg/m3 36.46 µg/m3 9.25 µg/m3 0.39 mg/m3 17.19 °C 56.02 % 1,009.97 mbar 1.6 m/s 226.42 Deg 11.68 µg/m3 1.96 µg/m3
2021-11-26 20:00 32.57 µg/m3 0.45 µg/m3 50.09 µg/m3 25.39 µg/m3 6.84 µg/m3 0.29 mg/m3 17.25 °C 56.02 % 1,009.88 mbar 2.05 m/s 223.63 Deg 4.3 µg/m3 1.49 µg/m3
2021-11-26 19:00 39.74 µg/m3 0.51 µg/m3 43.37 µg/m3 36.31 µg/m3 8.38 µg/m3 0.33 mg/m3 17.24 °C 57.98 % 1,009.85 mbar 1.83 m/s 222.55 Deg 6.19 µg/m3 2.83 µg/m3
2021-11-26 18:00 41.8 µg/m3 0.54 µg/m3 41.75 µg/m3 26.82 µg/m3 7.2 µg/m3 0.34 mg/m3 17.24 °C 56.1 % 1,009.44 mbar 2.06 m/s 225.13 Deg 8.73 µg/m3 3.15 µg/m3
2021-11-26 17:00 42.54 µg/m3 0.61 µg/m3 42.06 µg/m3 36.85 µg/m3 9.65 µg/m3 0.32 mg/m3 17.58 °C 55.4 % 1,008.85 mbar 2.01 m/s 223.9 Deg 7.64 µg/m3 1.89 µg/m3
2021-11-26 16:00 33.69 µg/m3 0.5 µg/m3 50.72 µg/m3 45.8 µg/m3 10.09 µg/m3 0.28 mg/m3 18.34 °C 51.62 % 1,008.42 mbar 2.93 m/s 233.98 Deg 9.18 µg/m3 2.1 µg/m3
2021-11-26 15:00 25.98 µg/m3 0.47 µg/m3 55.32 µg/m3 33.24 µg/m3 7.67 µg/m3 0.24 mg/m3 18.96 °C 50.06 % 1,008.13 mbar 3.11 m/s 226.34 Deg 7.66 µg/m3 1.63 µg/m3
2021-11-26 14:00 21.37 µg/m3 0.42 µg/m3 58.59 µg/m3 30.08 µg/m3 7.44 µg/m3 0.24 mg/m3 19.18 °C 51.3 % 1,008.29 mbar 3.76 m/s 225.12 Deg 6.52 µg/m3 1.42 µg/m3
2021-11-26 13:00 20.82 µg/m3 0.45 µg/m3 60.75 µg/m3 24.61 µg/m3 7.6 µg/m3 0.24 mg/m3 19.44 °C 55.8 % 1,008.02 mbar 3.95 m/s 229.67 Deg 6.9 µg/m3 1.99 µg/m3
2021-11-26 12:00 18.41 µg/m3 0.42 µg/m3 57.26 µg/m3 25.38 µg/m3 8.75 µg/m3 0.22 mg/m3 19.46 °C 62.29 % 1,008.28 mbar 3.74 m/s 224.87 Deg 6.08 µg/m3 1.5 µg/m3
2021-11-26 11:00 23.23 µg/m3 0.52 µg/m3 53.18 µg/m3 22.86 µg/m3 7.49 µg/m3 0.23 mg/m3 19.38 °C 61.26 % 1,008.38 mbar 3.31 m/s 217.97 Deg 6.26 µg/m3 2.52 µg/m3
2021-11-26 10:00 67.92 µg/m3 2.07 µg/m3 17.11 µg/m3 54.22 µg/m3 18.73 µg/m3 0.88 mg/m3 18.42 °C 66.53 % 1,008.36 mbar 0.95 m/s 225.02 Deg 96.63 µg/m3 12.42 µg/m3
2021-11-26 09:00 90.5 µg/m3 4.19 µg/m3 4.42 µg/m3 76.47 µg/m3 30.53 µg/m3 1.79 mg/m3 17.08 °C 73.27 % 1,008.20 mbar 0.17 m/s 173.75 Deg 245.68 µg/m3 16.93 µg/m3
2021-11-26 08:00 78.99 µg/m3 5.22 µg/m3 3.73 µg/m3 50.54 µg/m3 33.9 µg/m3 2.11 mg/m3 14.82 °C 85.81 % 1,007.91 mbar 0.55 m/s 242.52 Deg 322.37 µg/m3 19.63 µg/m3
2021-11-26 07:00 65.53 µg/m3 3.19 µg/m3 2.87 µg/m3 35.06 µg/m3 23.91 µg/m3 1.56 mg/m3 14.71 °C 86.03 % 1,007.55 mbar 0.7 m/s 253 Deg 206.94 µg/m3 8.4 µg/m3
2021-11-26 06:00 53.54 µg/m3 0.84 µg/m3 7.31 µg/m3 17.96 µg/m3 12.21 µg/m3 0.48 mg/m3 14.82 °C 83.6 % 1,007.05 mbar 0.59 m/s 244.68 Deg 36.59 µg/m3 3.23 µg/m3
2021-11-26 05:00 18.39 µg/m3 0.32 µg/m3 50.75 µg/m3 12.01 µg/m3 8.12 µg/m3 0.19 mg/m3 15.15 °C 79.46 % 1,006.81 mbar 1.04 m/s 235.77 Deg 1.26 µg/m3 0.68 µg/m3
2021-11-26 04:00 8.87 µg/m3 0.97 µg/m3 61.1 µg/m3 12.38 µg/m3 9 µg/m3 0.16 mg/m3 16 °C 77.8 % 1,006.81 mbar 1.31 m/s 240.53 Deg 0.14 µg/m3 1.21 µg/m3
2021-11-26 03:00 9.39 µg/m3 0.25 µg/m3 55.5 µg/m3 10.09 µg/m3 7.73 µg/m3 0.14 mg/m3 16.26 °C 77.16 % 1,006.60 mbar 0.91 m/s 227.22 Deg -0.2 µg/m3 0.65 µg/m3
2021-11-26 02:00 9.87 µg/m3 0.29 µg/m3 58.84 µg/m3 10.09 µg/m3 7.74 µg/m3 0.15 mg/m3 16.44 °C 76.42 % 1,006.39 mbar 1.13 m/s 233.47 Deg -0.05 µg/m3 1.15 µg/m3
2021-11-26 01:00 39.05 µg/m3 0.61 µg/m3 24.11 µg/m3 17.45 µg/m3 12.43 µg/m3 0.41 mg/m3 16.29 °C 80.78 % 1,006.61 mbar 0.88 m/s 235.35 Deg 17.81 µg/m3 5.56 µg/m3
2021-11-26 00:00 57.07 µg/m3 0.96 µg/m3 3.24 µg/m3 30.58 µg/m3 21.53 µg/m3 0.73 mg/m3 16.61 °C 83.52 % 1,006.79 mbar 0.18 m/s 248.64 Deg 42.54 µg/m3 5.06 µg/m3
2021-11-25 23:00 39.64 µg/m3 0.43 µg/m3 26.44 µg/m3 24.79 µg/m3 17.16 µg/m3 0.37 mg/m3 16.97 °C 82.4 % 1,007.13 mbar 0.55 m/s 191.78 Deg 9.79 µg/m3 1.76 µg/m3
2021-11-25 22:00 42.81 µg/m3 0.35 µg/m3 28.14 µg/m3 22.04 µg/m3 14.99 µg/m3 0.38 mg/m3 17.51 °C 79.61 % 1,007.04 mbar 0.94 m/s 251.62 Deg 8.56 µg/m3 2.13 µg/m3
2021-11-25 21:00 34.55 µg/m3 0.32 µg/m3 41.42 µg/m3 23.41 µg/m3 16.94 µg/m3 0.33 mg/m3 17.95 °C 79.27 % 1,006.59 mbar 1.17 m/s 271.3 Deg 6.68 µg/m3 1.61 µg/m3
2021-11-25 20:00 30.91 µg/m3 0.25 µg/m3 46.04 µg/m3 16.69 µg/m3 11.82 µg/m3 0.3 mg/m3 17.71 °C 80.4 % 1,006.30 mbar 1.81 m/s 250.68 Deg 3.63 µg/m3 2.6 µg/m3
2021-11-25 19:00 53.32 µg/m3 0.55 µg/m3 17.5 µg/m3 21.38 µg/m3 14.71 µg/m3 0.53 mg/m3 18.73 °C 85.26 % 1,006.03 mbar 1.14 m/s 271.15 Deg 19.11 µg/m3 5.14 µg/m3
2021-11-25 18:00 64.83 µg/m3 0.86 µg/m3 8.26 µg/m3 27.02 µg/m3 18.29 µg/m3 0.76 mg/m3 19.3 °C 83.34 % 1,005.37 mbar 0.73 m/s 246.1 Deg 36.53 µg/m3 7.42 µg/m3
2021-11-25 17:00 60.52 µg/m3 0.74 µg/m3 16.14 µg/m3 28.8 µg/m3 19.37 µg/m3 0.7 mg/m3 20.09 °C 78.62 % 1,005.33 mbar 0.77 m/s 218.93 Deg 29.74 µg/m3 3.85 µg/m3
2021-11-25 16:00 33.49 µg/m3 0.35 µg/m3 47.26 µg/m3 23.12 µg/m3 14.33 µg/m3 0.35 mg/m3 20.73 °C 76.41 % 1,005.30 mbar 1.54 m/s 215.5 Deg 5.4 µg/m3 1.94 µg/m3
2021-11-25 15:00 21.11 µg/m3 0.3 µg/m3 59.87 µg/m3 25.46 µg/m3 15.36 µg/m3 0.25 mg/m3 20.92 °C 76.61 % 1,005.62 mbar 2.42 m/s 215.62 Deg 3.47 µg/m3 1.61 µg/m3
2021-11-25 14:00 26.1 µg/m3 0.41 µg/m3 49.93 µg/m3 21.73 µg/m3 14.87 µg/m3 0.3 mg/m3 19.74 °C 83.01 % 1,006.27 mbar 1.42 m/s 144.8 Deg 13.25 µg/m3 2.34 µg/m3
2021-11-25 13:00 58.24 µg/m3 0.91 µg/m3 20.84 µg/m3 18.09 µg/m3 14.2 µg/m3 0.48 mg/m3 17.61 °C 90.84 % 1,007.38 mbar 0.77 m/s 237.25 Deg 42.79 µg/m3 3.67 µg/m3
2021-11-25 12:00 50.92 µg/m3 0.7 µg/m3 30.56 µg/m3 12.53 µg/m3 11.09 µg/m3 0.36 mg/m3 16.09 °C 91.5 % 1,008.38 mbar 1.61 m/s 315.25 Deg 30.18 µg/m3 1.6 µg/m3
2021-11-25 11:00 30.63 µg/m3 0.43 µg/m3 52.97 µg/m3 7.93 µg/m3 7.01 µg/m3 0.22 mg/m3 16.96 °C 88.82 % 1,009.03 mbar 2.8 m/s 274.07 Deg 5.95 µg/m3 1 µg/m3
2021-11-25 10:00 47.78 µg/m3 0.67 µg/m3 28.17 µg/m3 11.41 µg/m3 10.42 µg/m3 0.25 mg/m3 18.24 °C 89.61 % 1,009.26 mbar 4.03 m/s 67.1 Deg 32.67 µg/m3 2.54 µg/m3
2021-11-25 09:00 38.29 µg/m3 0.84 µg/m3 42.32 µg/m3 11.08 µg/m3 10.35 µg/m3 0.34 mg/m3 17.27 °C 89.29 % 1,010.66 mbar 3.07 m/s 85.52 Deg 39.21 µg/m3 1.78 µg/m3
2021-11-25 08:00 25.8 µg/m3 0.63 µg/m3 52.05 µg/m3 17.04 µg/m3 12.7 µg/m3 0.29 mg/m3 17.6 °C 88.31 % 1,010.49 mbar 4.83 m/s 60.1 Deg 26.41 µg/m3 2.65 µg/m3
2021-11-25 07:00 36.3 µg/m3 0.66 µg/m3 41.67 µg/m3 18.68 µg/m3 12.91 µg/m3 0.28 mg/m3 17.6 °C 85.91 % 1,010.99 mbar 2.85 m/s 70.37 Deg 26.58 µg/m3 1.31 µg/m3
2021-11-25 06:00 24.06 µg/m3 0.57 µg/m3 65.02 µg/m3 10.29 µg/m3 7.71 µg/m3 0.23 mg/m3 18.31 °C 79.82 % 1,011.16 mbar 2.6 m/s 63.22 Deg 9.58 µg/m3 1.31 µg/m3
2021-11-25 05:00 39.14 µg/m3 0.84 µg/m3 22.42 µg/m3 18.39 µg/m3 13.39 µg/m3 0.37 mg/m3 17.04 °C 79.72 % 1,011.78 mbar 0.77 m/s 122.15 Deg 16.47 µg/m3 6.38 µg/m3
2021-11-25 04:00 40.96 µg/m3 1.06 µg/m3 3.8 µg/m3 24.66 µg/m3 18.34 µg/m3 0.48 mg/m3 15.93 °C 81.97 % 1,012.54 mbar 0.63 m/s 251.73 Deg 23.01 µg/m3 7.05 µg/m3
2021-11-25 03:00 39.85 µg/m3 1.17 µg/m3 2.74 µg/m3 30.83 µg/m3 22.03 µg/m3 0.62 mg/m3 15.26 °C 84.25 % 1,013.19 mbar 0.84 m/s 238.18 Deg 35.79 µg/m3 8.85 µg/m3
2021-11-25 02:00 40.84 µg/m3 1.58 µg/m3 3.76 µg/m3 36.59 µg/m3 25.31 µg/m3 0.91 mg/m3 15.17 °C 83.9 % 1,013.60 mbar 0.8 m/s 243.17 Deg 60.23 µg/m3 11.07 µg/m3
2021-11-25 01:00 43.02 µg/m3 2.22 µg/m3 4.14 µg/m3 46.9 µg/m3 31.38 µg/m3 1.22 mg/m3 14.98 °C 84.6 % 1,014.21 mbar 0.9 m/s 238.1 Deg 97.29 µg/m3 12.94 µg/m3
2021-11-25 00:00 47.05 µg/m3 2.59 µg/m3 5.41 µg/m3 56.67 µg/m3 37.8 µg/m3 1.45 mg/m3 15.22 °C 84.29 % 1,014.79 mbar 0.79 m/s 238.68 Deg 123.01 µg/m3 15.04 µg/m3
2021-11-24 23:00 51.41 µg/m3 3.09 µg/m3 5.87 µg/m3 70.51 µg/m3 47.01 µg/m3 1.69 mg/m3 15.58 °C 83.22 % 1,015.27 mbar 0.55 m/s 240.95 Deg 153.72 µg/m3 17.13 µg/m3
2021-11-24 22:00 60.66 µg/m3 3.85 µg/m3 5.79 µg/m3 83.24 µg/m3 55.5 µg/m3 2.19 mg/m3 16.04 °C 81.83 % 1,015.53 mbar 0.69 m/s 237.71 Deg 207.81 µg/m3 19.95 µg/m3
2021-11-24 21:00 71.87 µg/m3 3.87 µg/m3 6.34 µg/m3 75.08 µg/m3 50.06 µg/m3 2.15 mg/m3 16.61 °C 79.62 % 1,015.66 mbar 0.56 m/s 235.07 Deg 212.92 µg/m3 20 µg/m3
2021-11-24 20:00 81.47 µg/m3 4 µg/m3 5.01 µg/m3 60.92 µg/m3 40.61 µg/m3 2.19 mg/m3 17.42 °C 75.29 % 1,015.71 mbar 0.72 m/s 236.8 Deg 220.36 µg/m3 21.63 µg/m3
2021-11-24 19:00 89.52 µg/m3 1.93 µg/m3 3.12 µg/m3 46.89 µg/m3 25.33 µg/m3 1.19 mg/m3 18.31 °C 70.24 % 1,015.53 mbar 0.32 m/s 164.22 Deg 97.04 µg/m3 7.66 µg/m3
2021-11-24 18:00 78.97 µg/m3 1.71 µg/m3 10.43 µg/m3 65.27 µg/m3 20.1 µg/m3 1.09 mg/m3 18.64 °C 68.44 % 1,015.42 mbar 0.74 m/s 70.17 Deg 88.13 µg/m3 8.8 µg/m3
2021-11-24 17:00 60.16 µg/m3 1.11 µg/m3 33.47 µg/m3 44.24 µg/m3 15.03 µg/m3 0.68 mg/m3 18.91 °C 67.28 % 1,015.31 mbar 1.26 m/s 65.93 Deg 54.27 µg/m3 4.43 µg/m3
2021-11-24 16:00 44.29 µg/m3 0.95 µg/m3 52.62 µg/m3 31.51 µg/m3 9.61 µg/m3 0.5 mg/m3 19.59 °C 64.68 % 1,015.33 mbar 1.34 m/s 42.27 Deg 41.49 µg/m3 3.52 µg/m3
2021-11-24 15:00 41.99 µg/m3 0.83 µg/m3 55.84 µg/m3 36.67 µg/m3 10.15 µg/m3 0.52 mg/m3 19.89 °C 63.75 % 1,015.35 mbar 1.15 m/s 28.7 Deg 37.69 µg/m3 3.12 µg/m3
2021-11-24 14:00 41.36 µg/m3 0.89 µg/m3 57.69 µg/m3 37.05 µg/m3 11.16 µg/m3 0.47 mg/m3 19.53 °C 65.2 % 1,015.60 mbar 1.45 m/s 32.77 Deg 38.96 µg/m3 4.04 µg/m3
2021-11-24 13:00 44.4 µg/m3 0.94 µg/m3 50.41 µg/m3 49.2 µg/m3 13.88 µg/m3 0.51 mg/m3 19.43 °C 65.8 % 1,015.94 mbar 1.58 m/s 32.77 Deg 44.76 µg/m3 1.68 µg/m3
2021-11-24 12:00 35.68 µg/m3 0.64 µg/m3 55.13 µg/m3 41.45 µg/m3 10.9 µg/m3 0.37 mg/m3 19.71 °C 64.6 % 1,016.43 mbar 1.22 m/s 201.15 Deg 16.16 µg/m3 2.02 µg/m3
2021-11-24 11:00 33.31 µg/m3 0.68 µg/m3 53.9 µg/m3 31.18 µg/m3 9.29 µg/m3 0.34 mg/m3 19.81 °C 64.33 % 1,017.01 mbar 1.21 m/s 271.98 Deg 13.31 µg/m3 2.49 µg/m3
2021-11-24 10:00 72.35 µg/m3 2.09 µg/m3 19.67 µg/m3 99.46 µg/m3 29.25 µg/m3 0.88 mg/m3 18.72 °C 70.32 % 1,017.28 mbar 1 m/s 219.97 Deg 91.59 µg/m3 12.7 µg/m3
2021-11-24 09:00 78.3 µg/m3 3.41 µg/m3 4.46 µg/m3 114.16 µg/m3 45 µg/m3 1.46 mg/m3 16.62 °C 77.95 % 1,017.10 mbar 0.86 m/s 216.43 Deg 192.09 µg/m3 15.43 µg/m3
2021-11-24 08:00 63.66 µg/m3 2.64 µg/m3 2.82 µg/m3 45.25 µg/m3 30.17 µg/m3 1.23 mg/m3 14.94 °C 83.52 % 1,016.84 mbar 0.81 m/s 218.22 Deg 141.7 µg/m3 8.73 µg/m3
2021-11-24 07:00 52.98 µg/m3 2.23 µg/m3 2.03 µg/m3 42.06 µg/m3 28.04 µg/m3 1.13 mg/m3 14.59 °C 85.17 % 1,016.51 mbar 0.73 m/s 237.02 Deg 112.21 µg/m3 8.14 µg/m3
2021-11-24 06:00 39.41 µg/m3 0.77 µg/m3 6.52 µg/m3 34.23 µg/m3 22.98 µg/m3 0.46 mg/m3 14.61 °C 85.27 % 1,016.40 mbar 0.83 m/s 235.23 Deg 23.27 µg/m3 4.72 µg/m3
2021-11-24 05:00 25.63 µg/m3 0.47 µg/m3 15.31 µg/m3 25.52 µg/m3 17.42 µg/m3 0.26 mg/m3 14.7 °C 85.12 % 1,016.06 mbar 0.93 m/s 235.73 Deg 4.56 µg/m3 2.13 µg/m3
2021-11-24 04:00 18.94 µg/m3 0.62 µg/m3 23.94 µg/m3 18.81 µg/m3 13.27 µg/m3 0.28 mg/m3 14.95 °C 84.33 % 1,016.11 mbar 0.72 m/s 231.62 Deg 0.63 µg/m3 2.89 µg/m3
2021-11-24 03:00 25.08 µg/m3 0.45 µg/m3 16.77 µg/m3 21.04 µg/m3 14.49 µg/m3 0.3 mg/m3 15.08 °C 83.9 % 1,016.17 mbar 0.93 m/s 233.88 Deg 1.01 µg/m3 3.15 µg/m3
2021-11-24 02:00 31.01 µg/m3 0.53 µg/m3 16.1 µg/m3 23.79 µg/m3 16.17 µg/m3 0.34 mg/m3 15.34 °C 82.57 % 1,016.16 mbar 0.93 m/s 229.25 Deg 1.43 µg/m3 3.85 µg/m3
2021-11-24 01:00 42.27 µg/m3 0.63 µg/m3 10.84 µg/m3 32.12 µg/m3 21.57 µg/m3 0.44 mg/m3 15.62 °C 81.65 % 1,016.18 mbar 0.93 m/s 236.62 Deg 6.28 µg/m3 5.53 µg/m3
2021-11-24 00:00 49.53 µg/m3 0.79 µg/m3 9.28 µg/m3 29.74 µg/m3 19.88 µg/m3 0.6 mg/m3 15.9 °C 80.38 % 1,016.44 mbar 0.91 m/s 235.33 Deg 18.65 µg/m3 5.54 µg/m3
2021-11-23 23:00 58.07 µg/m3 1.08 µg/m3 4.98 µg/m3 34.94 µg/m3 23.3 µg/m3 0.7 mg/m3 16.31 °C 79.49 % 1,016.65 mbar 0.83 m/s 239 Deg 40.22 µg/m3 9.42 µg/m3
2021-11-23 22:00 64.03 µg/m3 1.06 µg/m3 4.69 µg/m3 44.48 µg/m3 29.66 µg/m3 0.79 mg/m3 16.72 °C 78.17 % 1,016.35 mbar 0.74 m/s 232.5 Deg 37.6 µg/m3 7.82 µg/m3
2021-11-23 21:00 71.53 µg/m3 1.08 µg/m3 3.9 µg/m3 37.05 µg/m3 24.7 µg/m3 0.88 mg/m3 17.49 °C 76.43 % 1,016.03 mbar 0.71 m/s 231.03 Deg 42.98 µg/m3 5.96 µg/m3
2021-11-23 20:00 75.9 µg/m3 0.7 µg/m3 10.23 µg/m3 25.96 µg/m3 17.31 µg/m3 0.71 mg/m3 18.16 °C 73.06 % 1,015.78 mbar 0.7 m/s 231.92 Deg 18.57 µg/m3 4.72 µg/m3
2021-11-23 19:00 66.77 µg/m3 0.56 µg/m3 20.22 µg/m3 25.34 µg/m3 16.91 µg/m3 0.6 mg/m3 18.58 °C 72.74 % 1,015.43 mbar 0.95 m/s 252.97 Deg 12.36 µg/m3 3.31 µg/m3
2021-11-23 18:00 57.53 µg/m3 0.51 µg/m3 32.29 µg/m3 40.73 µg/m3 15.04 µg/m3 0.5 mg/m3 18.95 °C 72 % 1,014.86 mbar 1.3 m/s 262.97 Deg 9.35 µg/m3 2.62 µg/m3
2021-11-23 17:00 47.06 µg/m3 0.45 µg/m3 42.88 µg/m3 45.21 µg/m3 15.28 µg/m3 0.4 mg/m3 19.77 °C 70.87 % 1,014.30 mbar 1.53 m/s 279.77 Deg 8.4 µg/m3 2.03 µg/m3
2021-11-23 16:00 38.93 µg/m3 0.43 µg/m3 51.36 µg/m3 64.94 µg/m3 16.6 µg/m3 0.35 mg/m3 20.84 °C 64.75 % 1,013.84 mbar 2.2 m/s 257.42 Deg 9.67 µg/m3 2.39 µg/m3
2021-11-23 15:00 28.97 µg/m3 0.44 µg/m3 51.53 µg/m3 39.01 µg/m3 12.52 µg/m3 0.31 mg/m3 21.3 °C 64.35 % 1,013.54 mbar 2.47 m/s 248.18 Deg 8.68 µg/m3 1.36 µg/m3
2021-11-23 14:00 24.18 µg/m3 0.43 µg/m3 51.73 µg/m3 39.35 µg/m3 12.76 µg/m3 0.3 mg/m3 21.52 °C 63.41 % 1,013.49 mbar 2.6 m/s 256.47 Deg 8.75 µg/m3 1.84 µg/m3
2021-11-23 13:00 23.34 µg/m3 0.48 µg/m3 49.61 µg/m3 42.11 µg/m3 13.43 µg/m3 0.28 mg/m3 21.63 °C 64.62 % 1,013.66 mbar 2.52 m/s 237.73 Deg 8.65 µg/m3 2.57 µg/m3
2021-11-23 12:00 21.83 µg/m3 0.51 µg/m3 51.17 µg/m3 43.31 µg/m3 13.63 µg/m3 0.26 mg/m3 21.36 °C 67.36 % 1,013.99 mbar 2.56 m/s 229.65 Deg 7.22 µg/m3 2.36 µg/m3
2021-11-23 11:00 24.58 µg/m3 0.59 µg/m3 50.69 µg/m3 35.98 µg/m3 11.87 µg/m3 0.26 mg/m3 21.29 °C 66.08 % 1,014.11 mbar 2.69 m/s 221.48 Deg 6.95 µg/m3 1.55 µg/m3
2021-11-23 10:00 44.89 µg/m3 1.03 µg/m3 34.19 µg/m3 54.58 µg/m3 15.66 µg/m3 0.39 mg/m3 20.85 °C 67.74 % 1,013.91 mbar 2.09 m/s 217.35 Deg 21.77 µg/m3 5.56 µg/m3
2021-11-23 09:00 73.06 µg/m3 3.72 µg/m3 5.26 µg/m3 106.5 µg/m3 44.04 µg/m3 1.47 mg/m3 18.51 °C 76.03 % 1,013.56 mbar 0.81 m/s 216.75 Deg 193.96 µg/m3 19.44 µg/m3
2021-11-23 08:00 57.35 µg/m3 4.87 µg/m3 3.37 µg/m3 59.13 µg/m3 39.42 µg/m3 2.1 mg/m3 16.25 °C 82.83 % 1,013.33 mbar 0.63 m/s 231.37 Deg 294.48 µg/m3 21.26 µg/m3
2021-11-23 07:00 54.49 µg/m3 4.25 µg/m3 3.14 µg/m3 45.37 µg/m3 30.24 µg/m3 1.95 mg/m3 16.06 °C 82.83 % 1,012.89 mbar 0.38 m/s 240.97 Deg 269.42 µg/m3 14.73 µg/m3
2021-11-23 06:00 42.01 µg/m3 1.18 µg/m3 3.02 µg/m3 24.61 µg/m3 16.43 µg/m3 0.62 mg/m3 16.12 °C 81.84 % 1,012.75 mbar 0.18 m/s 281.28 Deg 50.51 µg/m3 5.62 µg/m3
2021-11-23 05:00 23.97 µg/m3 0.48 µg/m3 17.72 µg/m3 16.42 µg/m3 11.2 µg/m3 0.27 mg/m3 16.02 °C 80.9 % 1,012.66 mbar 0.92 m/s 237.98 Deg 2.54 µg/m3 2.54 µg/m3
2021-11-23 04:00 24.55 µg/m3 1.32 µg/m3 18.1 µg/m3 19.02 µg/m3 13.3 µg/m3 0.39 mg/m3 16.1 °C 81.74 % 1,012.58 mbar 1.52 m/s 235.93 Deg 1.32 µg/m3 3.65 µg/m3
2021-11-23 03:00 26.97 µg/m3 0.5 µg/m3 13.49 µg/m3 19.82 µg/m3 13.63 µg/m3 0.34 mg/m3 16.21 °C 81.66 % 1,012.85 mbar 1.31 m/s 236.55 Deg 1.42 µg/m3 2.87 µg/m3
2021-11-23 02:00 30.75 µg/m3 0.49 µg/m3 13.67 µg/m3 19.66 µg/m3 13.32 µg/m3 0.34 mg/m3 16.28 °C 81.64 % 1,013.07 mbar 1.3 m/s 235.7 Deg 1.53 µg/m3 3.38 µg/m3
2021-11-23 01:00 41.63 µg/m3 0.61 µg/m3 4.46 µg/m3 25.12 µg/m3 16.79 µg/m3 0.5 mg/m3 16.52 °C 82.12 % 1,013.10 mbar 0.97 m/s 232.72 Deg 9.84 µg/m3 4.88 µg/m3
2021-11-23 00:00 47.77 µg/m3 0.81 µg/m3 4.38 µg/m3 29.52 µg/m3 19.69 µg/m3 0.6 mg/m3 16.89 °C 81.11 % 1,012.92 mbar 0.99 m/s 232.25 Deg 19.5 µg/m3 5.77 µg/m3
2021-11-22 23:00 53.19 µg/m3 1.03 µg/m3 2.58 µg/m3 29.35 µg/m3 19.58 µg/m3 0.72 mg/m3 17.05 °C 81.06 % 1,012.84 mbar 0.94 m/s 236.78 Deg 37.88 µg/m3 5.46 µg/m3
2021-11-22 22:00 54.14 µg/m3 0.8 µg/m3 4.79 µg/m3 26.2 µg/m3 17.52 µg/m3 0.59 mg/m3 17.41 °C 79.16 % 1,012.51 mbar 0.78 m/s 233.55 Deg 26.33 µg/m3 4.04 µg/m3
2021-11-22 21:00 61.92 µg/m3 1.15 µg/m3 3.7 µg/m3 28.14 µg/m3 18.8 µg/m3 0.76 mg/m3 17.82 °C 78.14 % 1,012.15 mbar 0.83 m/s 244.28 Deg 53.26 µg/m3 7.98 µg/m3
2021-11-22 20:00 65.63 µg/m3 1.42 µg/m3 2.48 µg/m3 37.38 µg/m3 24.92 µg/m3 1.08 mg/m3 18.53 °C 77.36 % 1,011.93 mbar 0.64 m/s 226.82 Deg 61.93 µg/m3 8.64 µg/m3
2021-11-22 19:00 73.06 µg/m3 1.86 µg/m3 1.76 µg/m3 45.4 µg/m3 30.26 µg/m3 1.16 mg/m3 19.18 °C 75.27 % 1,011.50 mbar 0.51 m/s 232.22 Deg 95.47 µg/m3 9.48 µg/m3
2021-11-22 18:00 77.39 µg/m3 1.22 µg/m3 3.06 µg/m3 61.96 µg/m3 25.31 µg/m3 0.89 mg/m3 19.72 °C 71.34 % 1,011.08 mbar 0.52 m/s 219.7 Deg 60.24 µg/m3 5.11 µg/m3
2021-11-22 17:00 54.27 µg/m3 0.54 µg/m3 22.57 µg/m3 61 µg/m3 19.34 µg/m3 0.44 mg/m3 20.24 °C 69.5 % 1,010.59 mbar 0.97 m/s 224 Deg 12.41 µg/m3 2.8 µg/m3
2021-11-22 16:00 38.48 µg/m3 0.44 µg/m3 40.81 µg/m3 44.11 µg/m3 14.82 µg/m3 0.32 mg/m3 20.54 °C 69.06 % 1,010.31 mbar 1.75 m/s 222.95 Deg 7.79 µg/m3 1.78 µg/m3
2021-11-22 15:00 29.53 µg/m3 0.47 µg/m3 51.78 µg/m3 39.23 µg/m3 12.56 µg/m3 0.28 mg/m3 20.96 °C 67.13 % 1,010.26 mbar 2.35 m/s 225.63 Deg 9.66 µg/m3 2.15 µg/m3
2021-11-22 14:00 33.43 µg/m3 0.5 µg/m3 47.36 µg/m3 46.41 µg/m3 13.7 µg/m3 0.3 mg/m3 20.85 °C 68.43 % 1,010.45 mbar 1.96 m/s 223.78 Deg 10.46 µg/m3 1.68 µg/m3
2021-11-22 13:00 29.39 µg/m3 0.42 µg/m3 52.99 µg/m3 30.9 µg/m3 11.22 µg/m3 0.27 mg/m3 20.69 °C 69.32 % 1,011.03 mbar 2.12 m/s 214.22 Deg 6.05 µg/m3 2.26 µg/m3
2021-11-22 12:00 27.5 µg/m3 0.51 µg/m3 54.92 µg/m3 33.52 µg/m3 9.82 µg/m3 0.28 mg/m3 21 °C 65.83 % 1,011.43 mbar 2.2 m/s 229.55 Deg 8.5 µg/m3 2.13 µg/m3
2021-11-22 11:00 58.5 µg/m3 1.23 µg/m3 27.29 µg/m3 44.13 µg/m3 15.4 µg/m3 0.51 mg/m3 19.4 °C 76.31 % 1,012.05 mbar 1.03 m/s 115.05 Deg 55.18 µg/m3 3.33 µg/m3
2021-11-22 10:00 75.46 µg/m3 1.46 µg/m3 14.21 µg/m3 33.11 µg/m3 17.4 µg/m3 0.64 mg/m3 18.21 °C 79.46 % 1,012.37 mbar 0.81 m/s 169.49 Deg 78.82 µg/m3 4.72 µg/m3
2021-11-22 09:00 68.36 µg/m3 1.4 µg/m3 17.88 µg/m3 25.33 µg/m3 16.94 µg/m3 0.7 mg/m3 16.84 °C 82.93 % 1,011.97 mbar 0.5 m/s 46.53 Deg 75.78 µg/m3 6.16 µg/m3
2021-11-22 08:00 59.05 µg/m3 0.97 µg/m3 27.39 µg/m3 23.63 µg/m3 15.82 µg/m3 0.55 mg/m3 15.95 °C 82.32 % 1,011.58 mbar 1.53 m/s 43.57 Deg 46.86 µg/m3 2.94 µg/m3
2021-11-22 07:00 52.32 µg/m3 0.72 µg/m3 30.42 µg/m3 19.33 µg/m3 11.97 µg/m3 0.48 mg/m3 17.08 °C 75 % 1,011.31 mbar 1.11 m/s 196.57 Deg 24.3 µg/m3 6 µg/m3
2021-11-22 06:00 28.44 µg/m3 0.51 µg/m3 44.91 µg/m3 13.98 µg/m3 9.39 µg/m3 0.28 mg/m3 17.28 °C 74.47 % 1,011.03 mbar 0.74 m/s 241.65 Deg 6.51 µg/m3 1.63 µg/m3
2021-11-22 05:00 12.57 µg/m3 0.36 µg/m3 64 µg/m3 16.32 µg/m3 9.38 µg/m3 0.19 mg/m3 17.12 °C 72.81 % 1,010.91 mbar 0.77 m/s 243.4 Deg 0.61 µg/m3 0.73 µg/m3
2021-11-22 04:00 11.02 µg/m3 0.49 µg/m3 64.93 µg/m3 8.44 µg/m3 6.49 µg/m3 0.17 mg/m3 17.36 °C 76.92 % 1,010.99 mbar 1.39 m/s 273.7 Deg 0.11 µg/m3 3.15 µg/m3
2021-11-22 03:00 28.47 µg/m3 0.57 µg/m3 24.33 µg/m3 14.23 µg/m3 10.61 µg/m3 0.34 mg/m3 17.49 °C 81.58 % 1,011.74 mbar 0.35 m/s 204.72 Deg 5.65 µg/m3 3.44 µg/m3
2021-11-22 02:00 28.09 µg/m3 0.51 µg/m3 32.97 µg/m3 14.45 µg/m3 10.41 µg/m3 0.36 mg/m3 17.19 °C 82.33 % 1,012.33 mbar 0.28 m/s 169.13 Deg 3.16 µg/m3 2.71 µg/m3
2021-11-22 01:00 33.62 µg/m3 0.57 µg/m3 32.4 µg/m3 16.74 µg/m3 11.54 µg/m3 0.34 mg/m3 17.72 °C 79.32 % 1,012.86 mbar 0.83 m/s 244.52 Deg 4.04 µg/m3 3.94 µg/m3
2021-11-22 00:00 54.72 µg/m3 1.01 µg/m3 7.39 µg/m3 26.43 µg/m3 17.91 µg/m3 0.7 mg/m3 17.8 °C 72.71 % 1,013.43 mbar 0.77 m/s 240.35 Deg 25.19 µg/m3 9.53 µg/m3
2021-11-21 23:00 60.38 µg/m3 1.13 µg/m3 5.05 µg/m3 35.03 µg/m3 21.15 µg/m3 0.9 mg/m3 17.67 °C 71.02 % 1,013.70 mbar 0.58 m/s 242.89 Deg 39.27 µg/m3 7.48 µg/m3
2021-11-21 22:00 60.29 µg/m3 0.85 µg/m3 8.4 µg/m3 45.08 µg/m3 18.47 µg/m3 0.71 mg/m3 17.86 °C 68 % 1,013.70 mbar 0.56 m/s 223.41 Deg 25.45 µg/m3 5.04 µg/m3
2021-11-21 21:00 59.11 µg/m3 0.75 µg/m3 12.58 µg/m3 48.09 µg/m3 20.86 µg/m3 0.65 mg/m3 17.91 °C 66.58 % 1,014.05 mbar 0.51 m/s 229.07 Deg 13.71 µg/m3 4.83 µg/m3
2021-11-21 20:00 66.33 µg/m3 0.83 µg/m3 7.54 µg/m3 55.3 µg/m3 26.56 µg/m3 0.74 mg/m3 18.01 °C 67.74 % 1,014.25 mbar 0.65 m/s 230.22 Deg 23.73 µg/m3 6.4 µg/m3
2021-11-21 19:00 60.49 µg/m3 0.6 µg/m3 17.96 µg/m3 37.99 µg/m3 16.71 µg/m3 0.61 mg/m3 18.5 °C 65.53 % 1,013.93 mbar 0.53 m/s 204.91 Deg 9.87 µg/m3 4.33 µg/m3
2021-11-21 18:00 49.2 µg/m3 0.47 µg/m3 29.87 µg/m3 36.1 µg/m3 12.94 µg/m3 0.44 mg/m3 18.53 °C 64.9 % 1,013.97 mbar 0.64 m/s 223.08 Deg 4.38 µg/m3 2.73 µg/m3
2021-11-21 17:00 32.11 µg/m3 0.47 µg/m3 48.57 µg/m3 32.93 µg/m3 11.26 µg/m3 0.41 mg/m3 18.86 °C 62.7 % 1,014.03 mbar 1.27 m/s 228.02 Deg 3.19 µg/m3 1.57 µg/m3
2021-11-21 16:00 16.09 µg/m3 0.38 µg/m3 64.35 µg/m3 23.28 µg/m3 8.07 µg/m3 0.25 mg/m3 19.45 °C 61.52 % 1,014.22 mbar 1.98 m/s 234.62 Deg 2.1 µg/m3 1.23 µg/m3
2021-11-21 15:00 10.84 µg/m3 0.37 µg/m3 68.88 µg/m3 13.88 µg/m3 6.67 µg/m3 0.25 mg/m3 20.02 °C 62.27 % 1,014.38 mbar 2.16 m/s 231.15 Deg 1.71 µg/m3 0.97 µg/m3
2021-11-21 14:00 14.21 µg/m3 0.44 µg/m3 65.25 µg/m3 16.41 µg/m3 8.38 µg/m3 0.24 mg/m3 20.18 °C 63.9 % 1,014.67 mbar 2.13 m/s 243.12 Deg 2.96 µg/m3 1.57 µg/m3
2021-11-21 13:00 16.09 µg/m3 0.43 µg/m3 64.34 µg/m3 16.36 µg/m3 8.47 µg/m3 0.28 mg/m3 19.5 °C 67.81 % 1,015.49 mbar 1.73 m/s 210.8 Deg 1.92 µg/m3 1.36 µg/m3
2021-11-21 12:00 13.91 µg/m3 0.47 µg/m3 68.03 µg/m3 14.9 µg/m3 7.49 µg/m3 0.25 mg/m3 20.13 °C 63.21 % 1,016.17 mbar 1.7 m/s 198.75 Deg 3.28 µg/m3 1.63 µg/m3
2021-11-21 11:00 14.92 µg/m3 0.49 µg/m3 67.93 µg/m3 15.21 µg/m3 7.31 µg/m3 0.26 mg/m3 19.93 °C 62.97 % 1,016.77 mbar 1.38 m/s 189.65 Deg 3.37 µg/m3 1.99 µg/m3
2021-11-21 10:00 49.27 µg/m3 1.12 µg/m3 33.94 µg/m3 40.24 µg/m3 17.66 µg/m3 0.71 mg/m3 19.39 °C 66.97 % 1,017.02 mbar 0.66 m/s 185.76 Deg 39.37 µg/m3 7.69 µg/m3
2021-11-21 09:00 49.29 µg/m3 1.08 µg/m3 16.03 µg/m3 43.9 µg/m3 22.12 µg/m3 0.7 mg/m3 17.16 °C 73.36 % 1,017.21 mbar 0.63 m/s 224.07 Deg 28.89 µg/m3 6.28 µg/m3
2021-11-21 08:00 43.1 µg/m3 1.07 µg/m3 5.45 µg/m3 31.9 µg/m3 21.42 µg/m3 0.67 mg/m3 14.79 °C 80.28 % 1,017.29 mbar 0.61 m/s 207.37 Deg 32.23 µg/m3 6.77 µg/m3
2021-11-21 07:00 42.77 µg/m3 0.94 µg/m3 2.26 µg/m3 34.35 µg/m3 24.14 µg/m3 0.56 mg/m3 14.22 °C 82.96 % 1,017.20 mbar 0.46 m/s 219.39 Deg 24.87 µg/m3 6.51 µg/m3
2021-11-21 06:00 38.38 µg/m3 0.83 µg/m3 4.69 µg/m3 21.46 µg/m3 15.18 µg/m3 0.51 mg/m3 14.52 °C 82.84 % 1,017.19 mbar 0.48 m/s 240.83 Deg 18.57 µg/m3 5.79 µg/m3
2021-11-21 05:00 40.36 µg/m3 0.82 µg/m3 3.47 µg/m3 25.36 µg/m3 17.95 µg/m3 0.46 mg/m3 14.67 °C 82.8 % 1,017.34 mbar 0.42 m/s 239.2 Deg 19.56 µg/m3 5.93 µg/m3
2021-11-21 04:00 41.53 µg/m3 1.44 µg/m3 4.16 µg/m3 25.76 µg/m3 18.09 µg/m3 0.45 mg/m3 14.78 °C 82.45 % 1,017.50 mbar 0.41 m/s 217.64 Deg 13.42 µg/m3 4.07 µg/m3
2021-11-21 03:00 46.16 µg/m3 0.92 µg/m3 2.45 µg/m3 27.28 µg/m3 18.51 µg/m3 0.71 mg/m3 14.95 °C 81.84 % 1,018.00 mbar 0.49 m/s 235.87 Deg 25.34 µg/m3 5.98 µg/m3
2021-11-21 02:00 48.35 µg/m3 0.99 µg/m3 2.27 µg/m3 29.8 µg/m3 20.33 µg/m3 0.7 mg/m3 14.99 °C 81.59 % 1,018.61 mbar 0.65 m/s 233.67 Deg 23.53 µg/m3 7.95 µg/m3
2021-11-21 01:00 52.57 µg/m3 1.45 µg/m3 3.61 µg/m3 38.12 µg/m3 25.51 µg/m3 1.06 mg/m3 15.38 °C 80.19 % 1,019.18 mbar 0.47 m/s 227.14 Deg 58.57 µg/m3 11.7 µg/m3
2021-11-21 00:00 56.51 µg/m3 1.63 µg/m3 4.62 µg/m3 47.63 µg/m3 31.84 µg/m3 1.16 mg/m3 15.66 °C 78.63 % 1,019.59 mbar 0.52 m/s 233.39 Deg 65.81 µg/m3 12.23 µg/m3
2021-11-20 23:00 57.87 µg/m3 1.31 µg/m3 4.53 µg/m3 39.13 µg/m3 26.14 µg/m3 1.14 mg/m3 15.85 °C 77.46 % 1,019.75 mbar 0.71 m/s 237.4 Deg 47.86 µg/m3 9.05 µg/m3
2021-11-20 22:00 63.3 µg/m3 1.25 µg/m3 3.81 µg/m3 39.48 µg/m3 26.34 µg/m3 0.99 mg/m3 16.3 °C 75.49 % 1,019.80 mbar 0.79 m/s 235.47 Deg 47.65 µg/m3 9.15 µg/m3
2021-11-20 21:00 66.34 µg/m3 1.01 µg/m3 4.61 µg/m3 35.79 µg/m3 23.87 µg/m3 0.83 mg/m3 16.71 °C 72.92 % 1,019.90 mbar 0.8 m/s 227.63 Deg 32.85 µg/m3 6.35 µg/m3
2021-11-20 20:00 70.59 µg/m3 0.92 µg/m3 4.12 µg/m3 59.98 µg/m3 20.48 µg/m3 0.78 mg/m3 17.2 °C 69.97 % 1,019.85 mbar 0.81 m/s 226.83 Deg 29.59 µg/m3 7.14 µg/m3
2021-11-20 19:00 70.81 µg/m3 0.69 µg/m3 10.51 µg/m3 54.12 µg/m3 17.4 µg/m3 0.62 mg/m3 18 °C 65.35 % 1,019.91 mbar 0.73 m/s 235.73 Deg 16.12 µg/m3 4.07 µg/m3
2021-11-20 18:00 60.44 µg/m3 0.6 µg/m3 23.75 µg/m3 47.33 µg/m3 18.8 µg/m3 0.49 mg/m3 18.55 °C 62.43 % 1,020.09 mbar 0.76 m/s 263.6 Deg 10.39 µg/m3 2.65 µg/m3
2021-11-20 17:00 33.28 µg/m3 0.44 µg/m3 53.69 µg/m3 39.43 µg/m3 11.66 µg/m3 0.34 mg/m3 19.17 °C 59.61 % 1,020.17 mbar 1.1 m/s 286.87 Deg 4.44 µg/m3 1.89 µg/m3
2021-11-20 16:00 23.4 µg/m3 0.47 µg/m3 62.82 µg/m3 22.54 µg/m3 8.38 µg/m3 0.32 mg/m3 19.83 °C 56.36 % 1,020.21 mbar 1.42 m/s 298.18 Deg 5.65 µg/m3 1.73 µg/m3
2021-11-20 15:00 15.45 µg/m3 0.41 µg/m3 68.3 µg/m3 20.73 µg/m3 7.82 µg/m3 0.25 mg/m3 19.95 °C 57.92 % 1,020.41 mbar 1.9 m/s 299.13 Deg 4.03 µg/m3 1.47 µg/m3
2021-11-20 14:00 17.16 µg/m3 0.39 µg/m3 70.36 µg/m3 20.1 µg/m3 8.66 µg/m3 0.24 mg/m3 20.05 °C 56.86 % 1,020.83 mbar 1.9 m/s 309.8 Deg 5.77 µg/m3 1.29 µg/m3
2021-11-20 13:00 15.66 µg/m3 0.52 µg/m3 67.47 µg/m3 19.64 µg/m3 7.82 µg/m3 0.28 mg/m3 20.06 °C 55.71 % 1,021.37 mbar 1.96 m/s 325.43 Deg 9.96 µg/m3 2.05 µg/m3
2021-11-20 12:00 17.79 µg/m3 0.52 µg/m3 62.34 µg/m3 29 µg/m3 8.48 µg/m3 0.29 mg/m3 19.87 °C 59.98 % 1,022.22 mbar 1.92 m/s 322.83 Deg 10.56 µg/m3 0.86 µg/m3
2021-11-20 11:00 20.37 µg/m3 0.53 µg/m3 58.92 µg/m3 26.91 µg/m3 9.26 µg/m3 0.29 mg/m3 19.54 °C 67.34 % 1,022.77 mbar 1.64 m/s 309.58 Deg 8.77 µg/m3 1.6 µg/m3
2021-11-20 10:00 46.94 µg/m3 0.86 µg/m3 31.7 µg/m3 63.21 µg/m3 17.2 µg/m3 0.42 mg/m3 19.16 °C 73.2 % 1,022.92 mbar 1.06 m/s 276.92 Deg 21.15 µg/m3 4.2 µg/m3
2021-11-20 09:00 60.73 µg/m3 1.28 µg/m3 10.12 µg/m3 65.48 µg/m3 28.15 µg/m3 0.65 mg/m3 17.44 °C 76.15 % 1,022.78 mbar 0.95 m/s 220.18 Deg 52.31 µg/m3 5.62 µg/m3
2021-11-20 08:00 52.65 µg/m3 1.32 µg/m3 4.44 µg/m3 40.58 µg/m3 27.05 µg/m3 0.63 mg/m3 15.27 °C 81.91 % 1,022.71 mbar 0.98 m/s 233.22 Deg 55.47 µg/m3 7.53 µg/m3
2021-11-20 07:00 50.5 µg/m3 1.15 µg/m3 2.73 µg/m3 36.96 µg/m3 24.91 µg/m3 0.68 mg/m3 14.84 °C 82.63 % 1,022.65 mbar 0.82 m/s 233.22 Deg 41.4 µg/m3 6.06 µg/m3
2021-11-20 06:00 40.18 µg/m3 0.8 µg/m3 7.91 µg/m3 31.14 µg/m3 21.67 µg/m3 0.47 mg/m3 14.95 °C 82.67 % 1,022.43 mbar 0.68 m/s 235.32 Deg 16.1 µg/m3 4.02 µg/m3
2021-11-20 05:00 28.96 µg/m3 0.64 µg/m3 16.28 µg/m3 28.15 µg/m3 20.19 µg/m3 0.34 mg/m3 15.08 °C 82.67 % 1,022.58 mbar 0.81 m/s 237.77 Deg 4.98 µg/m3 2.62 µg/m3
2021-11-20 04:00 28.11 µg/m3 0.78 µg/m3 14.85 µg/m3 29.15 µg/m3 20.63 µg/m3 0.35 mg/m3 15.17 °C 82.75 % 1,022.90 mbar 0.81 m/s 237 Deg 4.62 µg/m3 4.04 µg/m3
2021-11-20 03:00 36.24 µg/m3 0.77 µg/m3 9.15 µg/m3 34.65 µg/m3 24.68 µg/m3 0.47 mg/m3 15.39 °C 82.47 % 1,023.34 mbar 0.79 m/s 236.88 Deg 6.19 µg/m3 4.64 µg/m3
2021-11-20 02:00 44.35 µg/m3 1.17 µg/m3 4.04 µg/m3 39 µg/m3 26.89 µg/m3 0.65 mg/m3 15.74 °C 82.3 % 1,023.71 mbar 0.76 m/s 234.23 Deg 16.25 µg/m3 6.79 µg/m3
2021-11-20 01:00 50.29 µg/m3 1.2 µg/m3 3.77 µg/m3 44.08 µg/m3 30.33 µg/m3 0.81 mg/m3 16.27 °C 81.86 % 1,023.85 mbar 0.8 m/s 233.55 Deg 33.84 µg/m3 9.82 µg/m3
2021-11-20 00:00 54.64 µg/m3 1.74 µg/m3 4.24 µg/m3 50.16 µg/m3 33.47 µg/m3 1.16 mg/m3 16.88 °C 79.36 % 1,024.12 mbar 0.7 m/s 237.58 Deg 80.65 µg/m3 9.24 µg/m3
2021-11-19 23:00 61.47 µg/m3 1.17 µg/m3 3.52 µg/m3 38.44 µg/m3 25.63 µg/m3 0.89 mg/m3 17.32 °C 76.65 % 1,024.18 mbar 0.78 m/s 237.9 Deg 48.33 µg/m3 7.4 µg/m3
2021-11-19 22:00 52.67 µg/m3 0.75 µg/m3 28.19 µg/m3 35.36 µg/m3 14.93 µg/m3 0.52 mg/m3 18.33 °C 70.44 % 1,024.03 mbar 0.82 m/s 158.55 Deg 23.7 µg/m3 2.26 µg/m3
2021-11-19 21:00 47.75 µg/m3 0.8 µg/m3 41.83 µg/m3 39.8 µg/m3 12.79 µg/m3 0.51 mg/m3 18.63 °C 69.55 % 1,023.72 mbar 1.32 m/s 57.02 Deg 34.32 µg/m3 4.33 µg/m3
2021-11-19 20:00 27.23 µg/m3 0.72 µg/m3 61.07 µg/m3 27.55 µg/m3 11.08 µg/m3 0.44 mg/m3 18.75 °C 69.29 % 1,023.70 mbar 2.71 m/s 53.6 Deg 30.94 µg/m3 2.83 µg/m3
2021-11-19 19:00 34.4 µg/m3 0.84 µg/m3 56.89 µg/m3 42.83 µg/m3 13.16 µg/m3 0.46 mg/m3 18.77 °C 69.34 % 1,023.46 mbar 2.92 m/s 47.52 Deg 39.57 µg/m3 4.99 µg/m3
2021-11-19 18:00 33.65 µg/m3 0.82 µg/m3 55.36 µg/m3 41.29 µg/m3 12.73 µg/m3 0.47 mg/m3 18.72 °C 70.38 % 1,023.12 mbar 2.81 m/s 46.98 Deg 39.57 µg/m3 1.87 µg/m3
2021-11-19 17:00 31.42 µg/m3 0.77 µg/m3 62.54 µg/m3 66.58 µg/m3 15.5 µg/m3 0.38 mg/m3 18.95 °C 70.01 % 1,022.83 mbar 3.12 m/s 49.93 Deg 35.8 µg/m3 1.78 µg/m3
2021-11-19 16:00 24.75 µg/m3 0.79 µg/m3 66.97 µg/m3 33.14 µg/m3 10.58 µg/m3 0.39 mg/m3 19.13 °C 70.73 % 1,022.90 mbar 3.5 m/s 50.28 Deg 36.9 µg/m3 1.91 µg/m3
2021-11-19 15:00 48.99 µg/m3 0.87 µg/m3 63.97 µg/m3 40.09 µg/m3 12.94 µg/m3 0.38 mg/m3 19.37 °C 70.02 % 1,022.73 mbar 3.5 m/s 48.52 Deg 41.29 µg/m3 1.73 µg/m3
2021-11-19 14:00 36.15 µg/m3 0.85 µg/m3 66.28 µg/m3 31.7 µg/m3 11.81 µg/m3 0.35 mg/m3 19.43 °C 70.35 % 1,022.69 mbar 3.49 m/s 52.93 Deg 37.19 µg/m3 1.23 µg/m3
2021-11-19 13:00 31.61 µg/m3 0.72 µg/m3 68.39 µg/m3 22.17 µg/m3 9.56 µg/m3 0.34 mg/m3 19.64 °C 68.04 % 1,023.01 mbar 3.34 m/s 52.12 Deg 29.24 µg/m3 1.52 µg/m3
2021-11-19 12:00 27.72 µg/m3 0.74 µg/m3 66.09 µg/m3 21.63 µg/m3 9.01 µg/m3 0.39 mg/m3 19.78 °C 68.42 % 1,023.51 mbar 3.28 m/s 57.67 Deg 31.53 µg/m3 1.94 µg/m3
2021-11-19 11:00 32.28 µg/m3 0.69 µg/m3 61.62 µg/m3 22.29 µg/m3 7.35 µg/m3 0.33 mg/m3 20.07 °C 63.12 % 1,023.81 mbar 1.63 m/s 104.13 Deg 24.16 µg/m3 0.89 µg/m3
2021-11-19 10:00 41.55 µg/m3 0.85 µg/m3 52.07 µg/m3 36.31 µg/m3 9.49 µg/m3 0.39 mg/m3 19.68 °C 65.11 % 1,023.81 mbar 1.31 m/s 23.9 Deg 30.28 µg/m3 2.89 µg/m3
2021-11-19 09:00 72.17 µg/m3 2.73 µg/m3 14.38 µg/m3 106.63 µg/m3 27.2 µg/m3 1.23 mg/m3 18.61 °C 73.13 % 1,023.51 mbar 0.68 m/s 194.17 Deg 149.92 µg/m3 13.23 µg/m3
2021-11-19 08:00 70.01 µg/m3 2.63 µg/m3 3.29 µg/m3 39.87 µg/m3 26.58 µg/m3 1.25 mg/m3 16.51 °C 80.15 % 1,023.04 mbar 0.77 m/s 228.82 Deg 135.68 µg/m3 11.7 µg/m3
2021-11-19 07:00 61.28 µg/m3 2.02 µg/m3 2.38 µg/m3 27.64 µg/m3 18.43 µg/m3 1.1 mg/m3 15.92 °C 81.85 % 1,022.54 mbar 0.53 m/s 229.57 Deg 107.32 µg/m3 6.07 µg/m3
2021-11-19 06:00 40.11 µg/m3 0.58 µg/m3 12.36 µg/m3 15.33 µg/m3 10.26 µg/m3 0.33 mg/m3 15.7 °C 82.36 % 1,022.22 mbar 0.88 m/s 228.32 Deg 11.3 µg/m3 2.23 µg/m3
2021-11-19 05:00 21.52 µg/m3 0.39 µg/m3 27.71 µg/m3 13.63 µg/m3 9.3 µg/m3 0.21 mg/m3 15.48 °C 83.66 % 1,022.09 mbar 0.93 m/s 231.6 Deg 1.59 µg/m3 1.87 µg/m3
2021-11-19 04:00 12.66 µg/m3 1.57 µg/m3 39.37 µg/m3 13.97 µg/m3 9.85 µg/m3 0.21 mg/m3 15.67 °C 83.28 % 1,022.09 mbar 0.91 m/s 230.1 Deg 0.05 µg/m3 3.15 µg/m3
2021-11-19 03:00 23.91 µg/m3 0.52 µg/m3 26.25 µg/m3 14.62 µg/m3 10.55 µg/m3 0.28 mg/m3 15.88 °C 83.31 % 1,022.30 mbar 0.93 m/s 234.27 Deg 4.1 µg/m3 2.33 µg/m3
2021-11-19 02:00 26.94 µg/m3 0.47 µg/m3 20.63 µg/m3 15.35 µg/m3 10.9 µg/m3 0.28 mg/m3 16.02 °C 83.07 % 1,022.46 mbar 0.95 m/s 237.78 Deg 1.55 µg/m3 2.75 µg/m3
2021-11-19 01:00 41.07 µg/m3 0.64 µg/m3 10.48 µg/m3 17.71 µg/m3 12.19 µg/m3 0.44 mg/m3 16.28 °C 82.18 % 1,022.60 mbar 0.91 m/s 239.67 Deg 9.06 µg/m3 3.65 µg/m3
2021-11-19 00:00 50.09 µg/m3 0.79 µg/m3 6.36 µg/m3 23.6 µg/m3 15.8 µg/m3 0.56 mg/m3 16.5 °C 81.22 % 1,022.69 mbar 0.77 m/s 238.52 Deg 18.92 µg/m3 5.9 µg/m3
2021-11-18 23:00 55.91 µg/m3 0.86 µg/m3 4.77 µg/m3 23.26 µg/m3 15.52 µg/m3 0.6 mg/m3 16.72 °C 79.94 % 1,022.80 mbar 0.72 m/s 234.85 Deg 27.23 µg/m3 4.93 µg/m3
2021-11-18 22:00 57.33 µg/m3 0.85 µg/m3 7.66 µg/m3 21.96 µg/m3 14.66 µg/m3 0.61 mg/m3 16.96 °C 78.78 % 1,022.82 mbar 0.92 m/s 237.63 Deg 21.68 µg/m3 6.61 µg/m3
2021-11-18 21:00 66.98 µg/m3 1.08 µg/m3 6.56 µg/m3 27.39 µg/m3 18.26 µg/m3 0.83 mg/m3 17.78 °C 75.4 % 1,022.49 mbar 0.78 m/s 234.82 Deg 42.49 µg/m3 5.77 µg/m3
2021-11-18 20:00 68.98 µg/m3 0.67 µg/m3 12.88 µg/m3 30.08 µg/m3 14.93 µg/m3 0.59 mg/m3 18.58 °C 71.49 % 1,022.02 mbar 0.78 m/s 254.1 Deg 16.68 µg/m3 3.46 µg/m3
2021-11-18 19:00 75.72 µg/m3 0.79 µg/m3 10.68 µg/m3 46.84 µg/m3 14.93 µg/m3 0.61 mg/m3 18.78 °C 70.58 % 1,021.77 mbar 0.89 m/s 253.28 Deg 20.62 µg/m3 4.97 µg/m3
2021-11-18 18:00 78.7 µg/m3 0.86 µg/m3 9.08 µg/m3 49.46 µg/m3 13.39 µg/m3 0.62 mg/m3 19.3 °C 67.39 % 1,021.26 mbar 0.88 m/s 252.77 Deg 31.65 µg/m3 4.04 µg/m3
2021-11-18 17:00 65.44 µg/m3 0.65 µg/m3 25.53 µg/m3 40.04 µg/m3 11.55 µg/m3 0.43 mg/m3 20.01 °C 61.45 % 1,020.74 mbar 1.22 m/s 254.55 Deg 17.64 µg/m3 2.99 µg/m3
2021-11-18 16:00 48.31 µg/m3 0.56 µg/m3 44.44 µg/m3 29.86 µg/m3 8.15 µg/m3 0.35 mg/m3 20.52 °C 58.56 % 1,020.44 mbar 1.89 m/s 259.52 Deg 14.07 µg/m3 1.73 µg/m3
2021-11-18 15:00 43.7 µg/m3 0.55 µg/m3 48.41 µg/m3 27.34 µg/m3 7.83 µg/m3 0.32 mg/m3 20.64 °C 56.85 % 1,020.28 mbar 2.03 m/s 263.65 Deg 12.44 µg/m3 1.68 µg/m3
2021-11-18 14:00 42.17 µg/m3 0.57 µg/m3 47.88 µg/m3 40.36 µg/m3 9.05 µg/m3 0.32 mg/m3 20.73 °C 56.58 % 1,020.35 mbar 1.73 m/s 261.62 Deg 12.05 µg/m3 1.86 µg/m3
2021-11-18 13:00 31.33 µg/m3 0.54 µg/m3 56.17 µg/m3 34.42 µg/m3 7.6 µg/m3 0.26 mg/m3 20.66 °C 59.12 % 1,020.62 mbar 1.91 m/s 239.42 Deg 7.68 µg/m3 1.21 µg/m3
2021-11-18 12:00 27.27 µg/m3 0.55 µg/m3 61.34 µg/m3 25.95 µg/m3 6.73 µg/m3 0.25 mg/m3 20.7 °C 58.91 % 1,021.08 mbar 2.06 m/s 237.52 Deg 7.82 µg/m3 1.15 µg/m3
2021-11-18 11:00 37.71 µg/m3 0.55 µg/m3 56.16 µg/m3 26.63 µg/m3 6.72 µg/m3 0.26 mg/m3 20.56 °C 59.8 % 1,021.18 mbar 1.71 m/s 253.1 Deg 12.01 µg/m3 1.66 µg/m3
2021-11-18 10:00 43.66 µg/m3 0.7 µg/m3 48.27 µg/m3 33.51 µg/m3 8.78 µg/m3 0.32 mg/m3 20.05 °C 63.05 % 1,020.81 mbar 1.48 m/s 228.53 Deg 16.93 µg/m3 4.64 µg/m3
2021-11-18 09:00 77.4 µg/m3 1.74 µg/m3 10.52 µg/m3 98.14 µg/m3 24.35 µg/m3 0.9 mg/m3 18.66 °C 69.35 % 1,020.44 mbar 0.79 m/s 205.72 Deg 80.36 µg/m3 9.99 µg/m3
2021-11-18 08:00 73.68 µg/m3 1.85 µg/m3 4.49 µg/m3 42.96 µg/m3 20.17 µg/m3 0.91 mg/m3 16.41 °C 76.49 % 1,020.06 mbar 1.16 m/s 229.05 Deg 90.19 µg/m3 7.24 µg/m3
2021-11-18 07:00 64.5 µg/m3 2.04 µg/m3 2.19 µg/m3 26.66 µg/m3 17.77 µg/m3 1 mg/m3 15.55 °C 79.15 % 1,019.42 mbar 0.86 m/s 236.43 Deg 101.26 µg/m3 8.82 µg/m3
2021-11-18 06:00 46.9 µg/m3 0.94 µg/m3 8.51 µg/m3 15.79 µg/m3 10.62 µg/m3 0.46 mg/m3 15.44 °C 79.43 % 1,018.67 mbar 0.84 m/s 245.43 Deg 33.28 µg/m3 3.36 µg/m3
2021-11-18 05:00 27.87 µg/m3 0.48 µg/m3 24.43 µg/m3 10.89 µg/m3 7.46 µg/m3 0.23 mg/m3 15.7 °C 78.18 % 1,018.37 mbar 0.75 m/s 238.72 Deg 3.78 µg/m3 2.92 µg/m3
2021-11-18 04:00 18.35 µg/m3 0.58 µg/m3 32.41 µg/m3 17.82 µg/m3 12.72 µg/m3 0.32 mg/m3 15.84 °C 77.88 % 1,018.17 mbar 0.74 m/s 226.75 Deg 0.61 µg/m3 7.64 µg/m3
2021-11-18 03:00 19.57 µg/m3 0.45 µg/m3 28.95 µg/m3 12.69 µg/m3 8.74 µg/m3 0.28 mg/m3 15.92 °C 77.97 % 1,018.17 mbar 1.07 m/s 234.53 Deg 0.79 µg/m3 2.28 µg/m3
2021-11-18 02:00 27.55 µg/m3 0.5 µg/m3 24.32 µg/m3 12.51 µg/m3 8.47 µg/m3 0.3 mg/m3 16.19 °C 76.57 % 1,018.12 mbar 1.12 m/s 239.1 Deg 3.14 µg/m3 2.7 µg/m3
2021-11-18 01:00 41.87 µg/m3 0.57 µg/m3 14.6 µg/m3 15.62 µg/m3 10.49 µg/m3 0.43 mg/m3 16.51 °C 75.65 % 1,018.01 mbar 0.93 m/s 234.77 Deg 5.08 µg/m3 4.3 µg/m3
2021-11-18 00:00 56.61 µg/m3 0.79 µg/m3 6.14 µg/m3 20.3 µg/m3 13.54 µg/m3 0.58 mg/m3 16.86 °C 74.53 % 1,018.01 mbar 0.85 m/s 234.6 Deg 20.65 µg/m3 4.62 µg/m3
2021-11-17 23:00 61.92 µg/m3 0.84 µg/m3 5.66 µg/m3 23.8 µg/m3 15.87 µg/m3 0.63 mg/m3 17.35 °C 72.92 % 1,017.57 mbar 0.71 m/s 225.4 Deg 26.72 µg/m3 5.27 µg/m3
2021-11-17 22:00 62.81 µg/m3 0.72 µg/m3 8.21 µg/m3 29.98 µg/m3 19.38 µg/m3 0.65 mg/m3 17.71 °C 72 % 1,017.16 mbar 0.74 m/s 233.22 Deg 21.3 µg/m3 6.07 µg/m3
2021-11-17 21:00 66.95 µg/m3 0.77 µg/m3 8.56 µg/m3 55.57 µg/m3 17.57 µg/m3 0.62 mg/m3 18.15 °C 70.31 % 1,016.66 mbar 0.88 m/s 227.92 Deg 19.88 µg/m3 5.41 µg/m3
2021-11-17 20:00 76.6 µg/m3 0.94 µg/m3 4.47 µg/m3 73.18 µg/m3 20.12 µg/m3 0.75 mg/m3 18.54 °C 68.44 % 1,016.04 mbar 0.75 m/s 226.33 Deg 35.05 µg/m3 4.85 µg/m3
2021-11-17 19:00 70.32 µg/m3 0.58 µg/m3 15.45 µg/m3 54.08 µg/m3 15.99 µg/m3 0.49 mg/m3 19.02 °C 65.39 % 1,015.45 mbar 0.71 m/s 216.37 Deg 9.94 µg/m3 4.2 µg/m3
2021-11-17 18:00 62.93 µg/m3 0.59 µg/m3 26.34 µg/m3 42.83 µg/m3 14.43 µg/m3 0.49 mg/m3 19.55 °C 63.64 % 1,014.47 mbar 1.44 m/s 247.88 Deg 14.23 µg/m3 3.52 µg/m3
2021-11-17 17:00 44.83 µg/m3 0.57 µg/m3 42.12 µg/m3 43.52 µg/m3 13.35 µg/m3 0.35 mg/m3 20.11 °C 62.27 % 1,013.72 mbar 1.7 m/s 233.82 Deg 8.62 µg/m3 3.54 µg/m3
2021-11-17 16:00 28.07 µg/m3 0.43 µg/m3 53.48 µg/m3 38.48 µg/m3 9.54 µg/m3 0.27 mg/m3 20.69 °C 57.53 % 1,013.39 mbar 2.62 m/s 234.63 Deg 8.8 µg/m3 1.21 µg/m3
2021-11-17 15:00 24.7 µg/m3 0.41 µg/m3 54.16 µg/m3 33.58 µg/m3 8.12 µg/m3 0.24 mg/m3 20.86 °C 58.39 % 1,013.10 mbar 3.14 m/s 231.55 Deg 8.31 µg/m3 1 µg/m3
2021-11-17 14:00 23.01 µg/m3 0.45 µg/m3 55.43 µg/m3 36.05 µg/m3 8.09 µg/m3 0.23 mg/m3 21.06 °C 58.03 % 1,012.92 mbar 3.24 m/s 228.2 Deg 9.06 µg/m3 1.36 µg/m3
2021-11-17 13:00 25.89 µg/m3 0.44 µg/m3 53.72 µg/m3 38.56 µg/m3 9.78 µg/m3 0.21 mg/m3 21.14 °C 59.65 % 1,012.97 mbar 3.53 m/s 223.32 Deg 11.58 µg/m3 1.1 µg/m3
2021-11-17 12:00 25.35 µg/m3 0.42 µg/m3 55.42 µg/m3 52.03 µg/m3 13.45 µg/m3 0.22 mg/m3 21.23 °C 61.09 % 1,013.29 mbar 3.21 m/s 216.42 Deg 10.98 µg/m3 1.15 µg/m3
2021-11-17 11:00 22.54 µg/m3 0.39 µg/m3 54.39 µg/m3 59.82 µg/m3 15.49 µg/m3 0.21 mg/m3 21.26 °C 59.61 % 1,013.19 mbar 3.1 m/s 220.12 Deg 8.93 µg/m3 1.26 µg/m3
2021-11-17 10:00 28.02 µg/m3 3.38 µg/m3 49.72 µg/m3 54.92 µg/m3 16.24 µg/m3 0.23 mg/m3 21.27 °C 61.58 % 1,012.52 mbar 3.11 m/s 222.17 Deg 10.48 µg/m3 1.36 µg/m3
2021-11-17 09:00 34.4 µg/m3 1.89 µg/m3 41.15 µg/m3 49.1 µg/m3 16.25 µg/m3 0.27 mg/m3 20.74 °C 69.91 % 1,012.02 mbar 2.64 m/s 220.97 Deg 10.76 µg/m3 2.62 µg/m3
2021-11-17 08:00 49.48 µg/m3 0.46 µg/m3 24.01 µg/m3 63.9 µg/m3 20.71 µg/m3 0.39 mg/m3 21.24 °C 71.73 % 1,011.41 mbar 1.87 m/s 216.3 Deg 14.85 µg/m3 1.82 µg/m3
2021-11-17 07:00 23.48 µg/m3 0.33 µg/m3 50.64 µg/m3 47.52 µg/m3 15 µg/m3 0.23 mg/m3 21.97 °C 61.42 % 1,010.87 mbar 1.95 m/s 183.3 Deg 5.31 µg/m3 0.94 µg/m3
2021-11-17 06:00 15.51 µg/m3 0.28 µg/m3 60.91 µg/m3 36.51 µg/m3 14.01 µg/m3 0.19 mg/m3 21.48 °C 71.59 % 1,010.64 mbar 1.38 m/s 154.5 Deg 3.75 µg/m3 0.44 µg/m3
2021-11-17 05:00 4.92 µg/m3 0.24 µg/m3 73.06 µg/m3 31.4 µg/m3 12.41 µg/m3 0.14 mg/m3 21.51 °C 72.68 % 1,010.63 mbar 1.83 m/s 135.57 Deg 0.77 µg/m3 0.39 µg/m3
2021-11-17 04:00 7.54 µg/m3 0.48 µg/m3 73.24 µg/m3 31.76 µg/m3 11.84 µg/m3 0.14 mg/m3 21.42 °C 70.94 % 1,011.07 mbar 2.18 m/s 129.18 Deg 0.39 µg/m3 0.82 µg/m3
2021-11-17 03:00 18.18 µg/m3 0.26 µg/m3 65.33 µg/m3 27.87 µg/m3 10.55 µg/m3 0.15 mg/m3 21.18 °C 70.05 % 1,011.56 mbar 2.39 m/s 116.77 Deg 0.24 µg/m3 0.58 µg/m3
2021-11-17 02:00 7.94 µg/m3 0.29 µg/m3 78.46 µg/m3 25.65 µg/m3 10.36 µg/m3 0.16 mg/m3 20.83 °C 72.26 % 1,011.61 mbar 2.18 m/s 126.8 Deg 0.87 µg/m3 0.7 µg/m3
2021-11-17 01:00 17.31 µg/m3 0.35 µg/m3 76.22 µg/m3 27.12 µg/m3 10.31 µg/m3 0.21 mg/m3 20.8 °C 70.02 % 1,011.99 mbar 2.03 m/s 189.45 Deg 3.91 µg/m3 0.79 µg/m3
2021-11-17 00:00 20.86 µg/m3 0.44 µg/m3 68.58 µg/m3 31.64 µg/m3 11.29 µg/m3 0.22 mg/m3 20.78 °C 71.54 % 1,012.61 mbar 2 m/s 147.12 Deg 8.6 µg/m3 0.84 µg/m3
2021-11-16 23:00 43.3 µg/m3 0.52 µg/m3 44.94 µg/m3 23.56 µg/m3 15.21 µg/m3 0.32 mg/m3 20.6 °C 73.78 % 1,012.82 mbar 1.04 m/s 178.78 Deg 10.83 µg/m3 2.34 µg/m3
2021-11-16 22:00 62.49 µg/m3 1.56 µg/m3 9.93 µg/m3 51 µg/m3 34.06 µg/m3 0.91 mg/m3 19.55 °C 78.25 % 1,012.79 mbar 0.82 m/s 272.1 Deg 79.25 µg/m3 11.86 µg/m3
2021-11-16 21:00 74.12 µg/m3 2.25 µg/m3 4.38 µg/m3 48.88 µg/m3 32.59 µg/m3 1.37 mg/m3 20.12 °C 75.5 % 1,012.46 mbar 0.62 m/s 251.32 Deg 134.31 µg/m3 10.76 µg/m3
2021-11-16 20:00 63.73 µg/m3 1.03 µg/m3 19.79 µg/m3 34.07 µg/m3 22.71 µg/m3 0.73 mg/m3 20.62 °C 72.69 % 1,012.19 mbar 0.77 m/s 207.83 Deg 52.41 µg/m3 4.33 µg/m3
2021-11-16 19:00 57.33 µg/m3 0.58 µg/m3 21.48 µg/m3 54.55 µg/m3 17.24 µg/m3 0.5 mg/m3 20.94 °C 70.84 % 1,012.11 mbar 0.65 m/s 189.95 Deg 18.05 µg/m3 3.17 µg/m3
2021-11-16 18:00 53 µg/m3 0.63 µg/m3 27.38 µg/m3 56.77 µg/m3 16.52 µg/m3 0.52 mg/m3 21.49 °C 69.7 % 1,012.29 mbar 0.75 m/s 171.88 Deg 17.16 µg/m3 3.34 µg/m3
2021-11-16 17:00 47.5 µg/m3 0.65 µg/m3 40.4 µg/m3 54.82 µg/m3 15.38 µg/m3 0.44 mg/m3 22.16 °C 66.74 % 1,012.43 mbar 1.22 m/s 157.92 Deg 18.43 µg/m3 2.12 µg/m3
2021-11-16 16:00 36.46 µg/m3 0.51 µg/m3 47.71 µg/m3 51 µg/m3 14.31 µg/m3 0.37 mg/m3 22.6 °C 64.74 % 1,012.62 mbar 1.43 m/s 176.13 Deg 13.64 µg/m3 1.99 µg/m3
2021-11-16 15:00 34.73 µg/m3 0.63 µg/m3 54.42 µg/m3 44.2 µg/m3 14.15 µg/m3 0.33 mg/m3 22.83 °C 64.93 % 1,012.46 mbar 2.06 m/s 132.93 Deg 19.36 µg/m3 1.94 µg/m3
2021-11-16 14:00 37.2 µg/m3 0.63 µg/m3 49.93 µg/m3 46.88 µg/m3 14.79 µg/m3 0.39 mg/m3 22.95 °C 64.11 % 1,012.39 mbar 2.03 m/s 131.97 Deg 23.43 µg/m3 2.2 µg/m3
2021-11-16 13:00 32.78 µg/m3 0.56 µg/m3 63.83 µg/m3 38.3 µg/m3 12.34 µg/m3 0.34 mg/m3 22.95 °C 64.74 % 1,012.68 mbar 2.58 m/s 129.8 Deg 18.84 µg/m3 1.5 µg/m3
2021-11-16 12:00 36.82 µg/m3 0.76 µg/m3 61.38 µg/m3 35.74 µg/m3 10.93 µg/m3 0.33 mg/m3 22.63 °C 63.43 % 1,013.14 mbar 2.84 m/s 118.75 Deg 27.72 µg/m3 1.87 µg/m3
2021-11-16 11:00 33.13 µg/m3 0.77 µg/m3 58.27 µg/m3 37.04 µg/m3 10.01 µg/m3 0.33 mg/m3 22.05 °C 63.07 % 1,013.60 mbar 2.54 m/s 124.9 Deg 28.68 µg/m3 1.28 µg/m3
2021-11-16 10:00 39.3 µg/m3 0.75 µg/m3 42.52 µg/m3 44.7 µg/m3 10.92 µg/m3 0.37 mg/m3 21.57 °C 63.97 % 1,013.72 mbar 1.95 m/s 134.22 Deg 21.74 µg/m3 2.91 µg/m3
2021-11-16 09:00 75.61 µg/m3 1.6 µg/m3 24.85 µg/m3 61.06 µg/m3 15.65 µg/m3 0.65 mg/m3 20.56 °C 69.49 % 1,013.49 mbar 1.13 m/s 170.92 Deg 66.6 µg/m3 13.21 µg/m3
2021-11-16 08:00 80.57 µg/m3 7.34 µg/m3 4.14 µg/m3 73.61 µg/m3 49.07 µg/m3 3 mg/m3 17.25 °C 82.55 % 1,013.04 mbar 0.58 m/s 193.9 Deg 485.56 µg/m3 28.24 µg/m3
2021-11-16 07:00 47.3 µg/m3 4.73 µg/m3 3.35 µg/m3 51.99 µg/m3 34.66 µg/m3 2.06 mg/m3 15.77 °C 87.69 % 1,012.49 mbar 0.62 m/s 236.43 Deg 300.09 µg/m3 16.45 µg/m3
2021-11-16 06:00 32.18 µg/m3 1.71 µg/m3 2.04 µg/m3 30.25 µg/m3 20.22 µg/m3 0.74 mg/m3 15.64 °C 87.47 % 1,012.27 mbar 0.9 m/s 238.8 Deg 89.74 µg/m3 6.46 µg/m3
2021-11-16 05:00 31.78 µg/m3 0.98 µg/m3 1.18 µg/m3 24.77 µg/m3 17.06 µg/m3 0.37 mg/m3 15.77 °C 86.38 % 1,012.24 mbar 1 m/s 239.07 Deg 33.75 µg/m3 4.88 µg/m3
2021-11-16 04:00 28.81 µg/m3 0.81 µg/m3 1.45 µg/m3 25.33 µg/m3 17.7 µg/m3 0.35 mg/m3 15.75 °C 86.67 % 1,012.32 mbar 0.89 m/s 243.53 Deg 9.85 µg/m3 4.6 µg/m3
2021-11-16 03:00 28.3 µg/m3 0.7 µg/m3 1.58 µg/m3 27.31 µg/m3 18.81 µg/m3 0.42 mg/m3 15.78 °C 87.37 % 1,012.56 mbar 0.73 m/s 250.85 Deg 12.83 µg/m3 6.3 µg/m3
2021-11-16 02:00 34.49 µg/m3 0.97 µg/m3 1.32 µg/m3 30.98 µg/m3 20.86 µg/m3 0.61 mg/m3 16 °C 87.36 % 1,012.74 mbar 0.56 m/s 252.05 Deg 30.68 µg/m3 6.85 µg/m3
2021-11-16 01:00 36.32 µg/m3 1.36 µg/m3 1.36 µg/m3 36.62 µg/m3 24.43 µg/m3 0.82 mg/m3 16.27 °C 88.47 % 1,012.99 mbar 0.57 m/s 235.48 Deg 57.65 µg/m3 9.05 µg/m3
2021-11-16 00:00 41.2 µg/m3 1.74 µg/m3 1.29 µg/m3 39.69 µg/m3 26.46 µg/m3 1.05 mg/m3 16.83 °C 87.7 % 1,013.32 mbar 0.4 m/s 236.18 Deg 88.92 µg/m3 8.4 µg/m3
2021-11-15 23:00 50.34 µg/m3 1.59 µg/m3 1.27 µg/m3 37.23 µg/m3 24.82 µg/m3 0.95 mg/m3 17.21 °C 86.69 % 1,013.33 mbar 0.39 m/s 231.28 Deg 75.99 µg/m3 8.71 µg/m3
2021-11-15 22:00 56.17 µg/m3 1.94 µg/m3 1.47 µg/m3 33.51 µg/m3 22.34 µg/m3 1.05 mg/m3 17.67 °C 85.01 % 1,013.07 mbar 0.72 m/s 237.35 Deg 103.15 µg/m3 9.03 µg/m3
2021-11-15 21:00 71.77 µg/m3 1.28 µg/m3 3.03 µg/m3 24.21 µg/m3 16.15 µg/m3 0.71 mg/m3 18.61 °C 80.82 % 1,012.66 mbar 0.46 m/s 96.93 Deg 64.87 µg/m3 7.14 µg/m3
2021-11-15 20:00 70.48 µg/m3 0.92 µg/m3 8.31 µg/m3 22.03 µg/m3 14.7 µg/m3 0.72 mg/m3 18.82 °C 78.78 % 1,012.52 mbar 0.6 m/s 160.9 Deg 43.81 µg/m3 2.41 µg/m3
2021-11-15 19:00 67.21 µg/m3 1.17 µg/m3 14.9 µg/m3 17.97 µg/m3 12.01 µg/m3 0.72 mg/m3 18.78 °C 78.71 % 1,012.27 mbar 0.81 m/s 109.75 Deg 61.79 µg/m3 4.64 µg/m3
2021-11-15 18:00 59.32 µg/m3 0.97 µg/m3 23.02 µg/m3 18.1 µg/m3 12.08 µg/m3 0.69 mg/m3 19.06 °C 76.93 % 1,012.05 mbar 1.16 m/s 69.78 Deg 52.72 µg/m3 2.89 µg/m3
2021-11-15 17:00 50.01 µg/m3 0.88 µg/m3 35.75 µg/m3 27.74 µg/m3 9.95 µg/m3 0.47 mg/m3 19.51 °C 74.43 % 1,011.97 mbar 1.75 m/s 134.08 Deg 50.74 µg/m3 1.52 µg/m3
2021-11-15 16:00 35.53 µg/m3 0.75 µg/m3 53.03 µg/m3 27.8 µg/m3 9.18 µg/m3 0.38 mg/m3 19.89 °C 72.55 % 1,011.80 mbar 2.95 m/s 64.68 Deg 39.24 µg/m3 1.29 µg/m3
2021-11-15 15:00 39.06 µg/m3 0.76 µg/m3 52.6 µg/m3 40.54 µg/m3 11.4 µg/m3 0.44 mg/m3 20.25 °C 70.31 % 1,011.81 mbar 2.55 m/s 148.93 Deg 39.81 µg/m3 1.71 µg/m3
2021-11-15 14:00 40.15 µg/m3 0.82 µg/m3 52.24 µg/m3 37.9 µg/m3 10.77 µg/m3 0.38 mg/m3 20.41 °C 69.22 % 1,012.01 mbar 2.07 m/s 175.95 Deg 43.23 µg/m3 2.44 µg/m3
2021-11-15 13:00 46.42 µg/m3 0.89 µg/m3 45.53 µg/m3 38.03 µg/m3 10.57 µg/m3 0.43 mg/m3 20.35 °C 69.76 % 1,012.37 mbar 1.8 m/s 219.3 Deg 48.27 µg/m3 3.62 µg/m3
2021-11-15 12:00 35.27 µg/m3 0.79 µg/m3 52.39 µg/m3 39.5 µg/m3 10.85 µg/m3 0.39 mg/m3 20.14 °C 72.29 % 1,012.79 mbar 2.73 m/s 61.85 Deg 37.82 µg/m3 2.24 µg/m3
2021-11-15 11:00 33.58 µg/m3 1.06 µg/m3 49.5 µg/m3 62.05 µg/m3 14.16 µg/m3 0.38 mg/m3 20.13 °C 69.35 % 1,013.12 mbar 2.04 m/s 65.5 Deg 45.76 µg/m3 3.12 µg/m3
2021-11-15 10:00 48.6 µg/m3 1.33 µg/m3 35.89 µg/m3 87.93 µg/m3 18.96 µg/m3 0.57 mg/m3 19.75 °C 73.54 % 1,013.15 mbar 1.94 m/s 64.48 Deg 66.86 µg/m3 10.16 µg/m3
2021-11-15 09:00 77.12 µg/m3 3.82 µg/m3 3.77 µg/m3 71.1 µg/m3 29.16 µg/m3 1.53 mg/m3 18.85 °C 82.07 % 1,013.08 mbar 0.19 m/s 138.52 Deg 251.99 µg/m3 16.51 µg/m3
2021-11-15 08:00 62.28 µg/m3 2.69 µg/m3 2.84 µg/m3 29.59 µg/m3 20.57 µg/m3 1.31 mg/m3 16.56 °C 90.14 % 1,012.52 mbar 0.52 m/s 236.85 Deg 158.88 µg/m3 13 µg/m3
2021-11-15 07:00 43.81 µg/m3 2.59 µg/m3 2.03 µg/m3 27.21 µg/m3 19.51 µg/m3 1.3 mg/m3 16.12 °C 91.92 % 1,012.23 mbar 0.47 m/s 238.01 Deg 157.06 µg/m3 13.1 µg/m3
2021-11-15 06:00 36.08 µg/m3 1.24 µg/m3 1.41 µg/m3 22.55 µg/m3 15.83 µg/m3 0.65 mg/m3 16.52 °C 91.74 % 1,012.17 mbar 0.4 m/s 240.74 Deg 61.45 µg/m3 5.14 µg/m3
2021-11-15 05:00 39.04 µg/m3 0.54 µg/m3 4.82 µg/m3 16.22 µg/m3 11.42 µg/m3 0.27 mg/m3 17.02 °C 90.54 % 1,012.05 mbar 0.48 m/s 247.33 Deg 10.55 µg/m3 2.17 µg/m3
2021-11-15 04:00 31.82 µg/m3 1.18 µg/m3 10.64 µg/m3 15.88 µg/m3 11.26 µg/m3 0.24 mg/m3 16.97 °C 91.04 % 1,012.33 mbar 0.71 m/s 216.99 Deg 6.42 µg/m3 2.7 µg/m3
2021-11-15 03:00 28.49 µg/m3 0.57 µg/m3 11.96 µg/m3 16.83 µg/m3 12.24 µg/m3 0.29 mg/m3 16.62 °C 91.14 % 1,012.91 mbar 0.41 m/s 128.95 Deg 5.42 µg/m3 3.83 µg/m3
2021-11-15 02:00 38.15 µg/m3 0.76 µg/m3 2.36 µg/m3 22.28 µg/m3 15.79 µg/m3 0.51 mg/m3 16.78 °C 90.04 % 1,013.02 mbar 0.75 m/s 220.92 Deg 15.71 µg/m3 5.39 µg/m3
2021-11-15 01:00 40.56 µg/m3 0.96 µg/m3 1.34 µg/m3 28.85 µg/m3 19.61 µg/m3 0.68 mg/m3 16.92 °C 87.1 % 1,013.44 mbar 0.56 m/s 237.3 Deg 30.05 µg/m3 7.11 µg/m3
2021-11-15 00:00 40.6 µg/m3 1.57 µg/m3 3.56 µg/m3 38.75 µg/m3 25.98 µg/m3 1.08 mg/m3 16.73 °C 86.15 % 1,013.53 mbar 0.65 m/s 230.3 Deg 69.92 µg/m3 12.88 µg/m3
2021-11-14 23:00 45.68 µg/m3 2.01 µg/m3 6.89 µg/m3 45.59 µg/m3 30.44 µg/m3 1.48 mg/m3 16.93 °C 84.92 % 1,013.68 mbar 0.41 m/s 225.7 Deg 100.93 µg/m3 13.77 µg/m3
2021-11-14 22:00 51.12 µg/m3 1.63 µg/m3 5.03 µg/m3 42.56 µg/m3 28.38 µg/m3 1.33 mg/m3 17.12 °C 83.93 % 1,013.61 mbar 0.3 m/s 253.4 Deg 78.05 µg/m3 11.04 µg/m3
2021-11-14 21:00 54.46 µg/m3 1.47 µg/m3 3.76 µg/m3 40.18 µg/m3 26.78 µg/m3 1.09 mg/m3 17.3 °C 83.15 % 1,013.45 mbar 0.89 m/s 228.55 Deg 65.3 µg/m3 10.52 µg/m3
2021-11-14 20:00 63.09 µg/m3 1.88 µg/m3 4.03 µg/m3 48.89 µg/m3 32.59 µg/m3 1.42 mg/m3 17.9 °C 80.83 % 1,013.41 mbar 0.64 m/s 238.1 Deg 97.63 µg/m3 11.58 µg/m3
2021-11-14 19:00 69.57 µg/m3 1.38 µg/m3 4.42 µg/m3 35.97 µg/m3 24 µg/m3 1.05 mg/m3 18.74 °C 76.19 % 1,013.22 mbar 0.54 m/s 226.33 Deg 66.49 µg/m3 7.17 µg/m3
2021-11-14 18:00 56.36 µg/m3 0.54 µg/m3 20.85 µg/m3 28.32 µg/m3 12.96 µg/m3 0.46 mg/m3 19.27 °C 72.8 % 1,012.80 mbar 0.51 m/s 246.82 Deg 18.12 µg/m3 4.88 µg/m3
2021-11-14 17:00 47.37 µg/m3 0.63 µg/m3 33.64 µg/m3 26.34 µg/m3 8.55 µg/m3 0.42 mg/m3 19.51 °C 71.24 % 1,012.34 mbar 0.93 m/s 230.45 Deg 24.24 µg/m3 2.33 µg/m3
2021-11-14 16:00 33.97 µg/m3 0.63 µg/m3 45.43 µg/m3 21.28 µg/m3 7.84 µg/m3 0.41 mg/m3 19.8 °C 73.41 % 1,012.10 mbar 1.74 m/s 147.17 Deg 23.18 µg/m3 1.57 µg/m3
2021-11-14 15:00 33.3 µg/m3 0.64 µg/m3 45.79 µg/m3 15.16 µg/m3 8.26 µg/m3 0.37 mg/m3 19.79 °C 75.82 % 1,012.70 mbar 2.05 m/s 162.38 Deg 26.33 µg/m3 0.94 µg/m3
2021-11-14 14:00 28.94 µg/m3 0.64 µg/m3 55.61 µg/m3 16.87 µg/m3 8.31 µg/m3 0.34 mg/m3 20.33 °C 73.39 % 1,012.95 mbar 2.72 m/s 106.55 Deg 24.55 µg/m3 2.55 µg/m3
2021-11-14 13:00 34.76 µg/m3 0.63 µg/m3 60.52 µg/m3 16.58 µg/m3 5.98 µg/m3 0.37 mg/m3 20.49 °C 65.24 % 1,013.42 mbar 2.97 m/s 86.52 Deg 22.87 µg/m3 2.87 µg/m3
2021-11-14 12:00 27.82 µg/m3 0.66 µg/m3 67.27 µg/m3 15.34 µg/m3 5.3 µg/m3 0.34 mg/m3 20.62 °C 61.75 % 1,014.19 mbar 3.1 m/s 63 Deg 21.04 µg/m3 2.03 µg/m3
2021-11-14 11:00 21.88 µg/m3 0.62 µg/m3 71.15 µg/m3 15.01 µg/m3 5.62 µg/m3 0.3 mg/m3 20.32 °C 65.69 % 1,014.85 mbar 4.03 m/s 61.28 Deg 17.9 µg/m3 1.45 µg/m3
2021-11-14 10:00 32.52 µg/m3 0.83 µg/m3 57.65 µg/m3 21.15 µg/m3 6.91 µg/m3 0.43 mg/m3 20.16 °C 65.17 % 1,014.73 mbar 2.96 m/s 70.27 Deg 26.5 µg/m3 4.3 µg/m3
2021-11-14 09:00 55.95 µg/m3 1.72 µg/m3 7.11 µg/m3 56.47 µg/m3 23.95 µg/m3 0.93 mg/m3 18.18 °C 72.4 % 1,014.79 mbar 0.48 m/s 237.27 Deg 76 µg/m3 10.48 µg/m3
2021-11-14 08:00 42.53 µg/m3 1.87 µg/m3 3.27 µg/m3 37.25 µg/m3 24.85 µg/m3 1.07 mg/m3 15.45 °C 81.29 % 1,014.72 mbar 0.55 m/s 244.53 Deg 86.29 µg/m3 13.12 µg/m3
2021-11-14 07:00 38.6 µg/m3 1.31 µg/m3 1.93 µg/m3 25.04 µg/m3 16.69 µg/m3 0.73 mg/m3 14.77 °C 82.61 % 1,014.61 mbar 0.6 m/s 249.9 Deg 49.62 µg/m3 8.21 µg/m3
2021-11-14 06:00 38.09 µg/m3 0.99 µg/m3 2.51 µg/m3 20.28 µg/m3 13.53 µg/m3 0.49 mg/m3 14.88 °C 80.78 % 1,014.72 mbar 0.67 m/s 245.68 Deg 25.31 µg/m3 5.48 µg/m3
2021-11-14 05:00 38.53 µg/m3 0.86 µg/m3 4.83 µg/m3 17.75 µg/m3 11.84 µg/m3 0.42 mg/m3 15.04 °C 79.01 % 1,014.85 mbar 0.71 m/s 247.38 Deg 17.71 µg/m3 8.43 µg/m3
2021-11-14 04:00 43.25 µg/m3 0.96 µg/m3 3.05 µg/m3 26.03 µg/m3 17.37 µg/m3 0.56 mg/m3 15.12 °C 79.02 % 1,015.16 mbar 0.73 m/s 245.22 Deg 16.71 µg/m3 6.42 µg/m3
2021-11-14 03:00 45.63 µg/m3 0.88 µg/m3 2.2 µg/m3 24.05 µg/m3 16.04 µg/m3 0.68 mg/m3 15.36 °C 77.92 % 1,015.63 mbar 0.67 m/s 239.77 Deg 19.33 µg/m3 6 µg/m3
2021-11-14 02:00 52.73 µg/m3 1.11 µg/m3 2.77 µg/m3 32.82 µg/m3 21.89 µg/m3 0.81 mg/m3 15.57 °C 77.72 % 1,015.80 mbar 0.62 m/s 239.05 Deg 34.39 µg/m3 10.29 µg/m3
2021-11-14 01:00 54.95 µg/m3 1.34 µg/m3 2.95 µg/m3 38.62 µg/m3 25.75 µg/m3 0.92 mg/m3 15.8 °C 78.54 % 1,015.97 mbar 0.57 m/s 242.03 Deg 52.27 µg/m3 9.19 µg/m3
2021-11-14 00:00 58.6 µg/m3 1.61 µg/m3 3.83 µg/m3 49.07 µg/m3 32.72 µg/m3 1.16 mg/m3 16.2 °C 78.44 % 1,016.40 mbar 0.7 m/s 236.93 Deg 68.71 µg/m3 15.04 µg/m3
2021-11-13 23:00 55.64 µg/m3 1.86 µg/m3 4.07 µg/m3 52.57 µg/m3 35.05 µg/m3 1.3 mg/m3 16.45 °C 79.59 % 1,016.53 mbar 0.64 m/s 234.77 Deg 84.33 µg/m3 11.86 µg/m3
2021-11-13 22:00 60.79 µg/m3 2.39 µg/m3 5.59 µg/m3 57.76 µg/m3 38.5 µg/m3 1.6 mg/m3 16.96 °C 78.67 % 1,016.50 mbar 0.69 m/s 238.35 Deg 115.19 µg/m3 16.55 µg/m3
2021-11-13 21:00 66.21 µg/m3 3.08 µg/m3 4.69 µg/m3 63.91 µg/m3 42.61 µg/m3 2.07 mg/m3 17.53 °C 77.72 % 1,016.61 mbar 0.5 m/s 241.23 Deg 169.49 µg/m3 18.44 µg/m3
2021-11-13 20:00 70.87 µg/m3 2.82 µg/m3 5.04 µg/m3 58.87 µg/m3 39.25 µg/m3 1.87 mg/m3 18.21 °C 75.2 % 1,016.71 mbar 0.56 m/s 236.65 Deg 145.04 µg/m3 15.73 µg/m3
2021-11-13 19:00 75.61 µg/m3 3.02 µg/m3 5.24 µg/m3 52.05 µg/m3 34.7 µg/m3 1.92 mg/m3 18.82 °C 72.08 % 1,016.58 mbar 0.58 m/s 242 Deg 172.65 µg/m3 15.19 µg/m3
2021-11-13 18:00 81.96 µg/m3 2.09 µg/m3 4.7 µg/m3 138.76 µg/m3 28.37 µg/m3 1.34 mg/m3 19.58 °C 66.97 % 1,016.45 mbar 0.43 m/s 238.53 Deg 112.24 µg/m3 9.19 µg/m3
2021-11-13 17:00 59.7 µg/m3 0.68 µg/m3 29.87 µg/m3 84.5 µg/m3 15.33 µg/m3 0.53 mg/m3 20.47 °C 59.41 % 1,016.24 mbar 0.28 m/s 226.55 Deg 18.87 µg/m3 2.47 µg/m3
2021-11-13 16:00 29.25 µg/m3 0.43 µg/m3 61 µg/m3 34.87 µg/m3 7.95 µg/m3 0.3 mg/m3 20.59 °C 58.48 % 1,016.35 mbar 0.95 m/s 208.72 Deg 2.74 µg/m3 2.07 µg/m3
2021-11-13 15:00 29.49 µg/m3 0.47 µg/m3 61.54 µg/m3 45.31 µg/m3 9.35 µg/m3 0.28 mg/m3 20.74 °C 58.12 % 1,016.42 mbar 1.14 m/s 221.28 Deg 3.81 µg/m3 1.89 µg/m3
2021-11-13 14:00 53.81 µg/m3 0.84 µg/m3 50.18 µg/m3 53.32 µg/m3 12.73 µg/m3 0.43 mg/m3 20.63 °C 61.08 % 1,016.70 mbar 1.44 m/s 118.87 Deg 31.07 µg/m3 2.54 µg/m3
2021-11-13 13:00 52.02 µg/m3 0.97 µg/m3 49.8 µg/m3 48.71 µg/m3 12.01 µg/m3 0.53 mg/m3 20.88 °C 57 % 1,017.00 mbar 1.41 m/s 50.4 Deg 39.98 µg/m3 5.58 µg/m3
2021-11-13 12:00 56.94 µg/m3 1.09 µg/m3 43.97 µg/m3 59.76 µg/m3 14.13 µg/m3 0.64 mg/m3 20.8 °C 56.65 % 1,017.48 mbar 1.1 m/s 42.18 Deg 45.27 µg/m3 4.15 µg/m3
2021-11-13 11:00 62.65 µg/m3 1.18 µg/m3 36.62 µg/m3 49.83 µg/m3 12.95 µg/m3 0.56 mg/m3 20.69 °C 57.41 % 1,018.17 mbar 1.31 m/s 105.88 Deg 47.27 µg/m3 4.67 µg/m3
2021-11-13 10:00 79.54 µg/m3 1.77 µg/m3 20.47 µg/m3 91.8 µg/m3 22.39 µg/m3 0.88 mg/m3 20.39 °C 59.23 % 1,018.19 mbar 0.5 m/s 141.85 Deg 81.51 µg/m3 8.01 µg/m3
2021-11-13 09:00 75.62 µg/m3 2.14 µg/m3 7.52 µg/m3 146.75 µg/m3 33.25 µg/m3 0.89 mg/m3 17.96 °C 68.49 % 1,017.97 mbar 0.62 m/s 225.71 Deg 95.21 µg/m3 8.87 µg/m3
2021-11-13 08:00 63.22 µg/m3 2.2 µg/m3 3.41 µg/m3 52.16 µg/m3 27.51 µg/m3 1.03 mg/m3 15.59 °C 75 % 1,017.53 mbar 0.52 m/s 215.08 Deg 108.95 µg/m3 10.73 µg/m3
2021-11-13 07:00 60.8 µg/m3 1.55 µg/m3 2.48 µg/m3 30.91 µg/m3 20.61 µg/m3 0.75 mg/m3 14.82 °C 75.33 % 1,017.39 mbar 0.53 m/s 233.76 Deg 67.98 µg/m3 7.77 µg/m3
2021-11-13 06:00 54.27 µg/m3 0.93 µg/m3 4.36 µg/m3 29.62 µg/m3 19.76 µg/m3 0.49 mg/m3 14.56 °C 75.16 % 1,017.17 mbar 0.8 m/s 235.72 Deg 29.36 µg/m3 3.97 µg/m3
2021-11-13 05:00 47.65 µg/m3 0.66 µg/m3 7.12 µg/m3 29.66 µg/m3 19.87 µg/m3 0.31 mg/m3 14.51 °C 76.82 % 1,017.02 mbar 0.89 m/s 237.6 Deg 9.91 µg/m3 3.04 µg/m3
2021-11-13 04:00 48.02 µg/m3 1.74 µg/m3 4.41 µg/m3 22.15 µg/m3 14.78 µg/m3 0.41 mg/m3 14.61 °C 78.02 % 1,017.01 mbar 0.67 m/s 240.97 Deg 14.42 µg/m3 5.62 µg/m3
2021-11-13 03:00 55.12 µg/m3 0.75 µg/m3 2.22 µg/m3 24.01 µg/m3 16.01 µg/m3 0.52 mg/m3 15.02 °C 75.84 % 1,017.13 mbar 0.66 m/s 245.33 Deg 19.26 µg/m3 4.41 µg/m3
2021-11-13 02:00 62.36 µg/m3 1.11 µg/m3 1.89 µg/m3 27.29 µg/m3 18.2 µg/m3 0.69 mg/m3 15.28 °C 75.05 % 1,017.29 mbar 0.65 m/s 243.95 Deg 39.57 µg/m3 5.64 µg/m3
2021-11-13 01:00 64.3 µg/m3 1.47 µg/m3 2.52 µg/m3 31.97 µg/m3 21.32 µg/m3 0.83 mg/m3 15.51 °C 74.68 % 1,017.33 mbar 0.67 m/s 236.32 Deg 62.77 µg/m3 7.69 µg/m3
2021-11-13 00:00 64.67 µg/m3 1.55 µg/m3 2.92 µg/m3 40.32 µg/m3 26.89 µg/m3 0.88 mg/m3 15.77 °C 74.55 % 1,017.45 mbar 0.62 m/s 242.1 Deg 63.78 µg/m3 10.27 µg/m3
2021-11-12 23:00 66.03 µg/m3 1.82 µg/m3 3.44 µg/m3 45.58 µg/m3 30.39 µg/m3 1.1 mg/m3 16.14 °C 74.25 % 1,017.51 mbar 0.74 m/s 238.62 Deg 83.26 µg/m3 10.29 µg/m3
2021-11-12 22:00 67.7 µg/m3 2.35 µg/m3 3.58 µg/m3 57.58 µg/m3 38.39 µg/m3 1.39 mg/m3 16.61 °C 73.67 % 1,017.61 mbar 0.8 m/s 240.12 Deg 119.49 µg/m3 14.8 µg/m3
2021-11-12 21:00 77.48 µg/m3 3.09 µg/m3 3.94 µg/m3 58.61 µg/m3 39.05 µg/m3 1.76 mg/m3 17.23 °C 71.59 % 1,017.43 mbar 0.68 m/s 234.92 Deg 175.6 µg/m3 14.51 µg/m3
2021-11-12 20:00 81.53 µg/m3 3.24 µg/m3 4.04 µg/m3 94.95 µg/m3 38.06 µg/m3 1.75 mg/m3 17.82 °C 68.82 % 1,017.34 mbar 0.78 m/s 238.23 Deg 183.94 µg/m3 17.08 µg/m3
2021-11-12 19:00 93.54 µg/m3 2.82 µg/m3 4.09 µg/m3 122.3 µg/m3 27.39 µg/m3 1.48 mg/m3 18.78 °C 61.34 % 1,017.25 mbar 0.68 m/s 236.93 Deg 161.73 µg/m3 10.57 µg/m3
2021-11-12 18:00 77.31 µg/m3 1.06 µg/m3 17.94 µg/m3 62.07 µg/m3 14.62 µg/m3 0.74 mg/m3 19.62 °C 53.74 % 1,016.86 mbar 0.8 m/s 292.33 Deg 48.86 µg/m3 2.75 µg/m3
2021-11-12 17:00 42.22 µg/m3 0.54 µg/m3 54.24 µg/m3 30.94 µg/m3 7.17 µg/m3 0.35 mg/m3 20.29 °C 50.13 % 1,016.44 mbar 1.23 m/s 310.28 Deg 9.03 µg/m3 1.26 µg/m3
2021-11-12 16:00 36.19 µg/m3 0.59 µg/m3 64.47 µg/m3 32.09 µg/m3 7.7 µg/m3 0.31 mg/m3 20.87 °C 50.07 % 1,016.01 mbar 1.33 m/s 316.48 Deg 15.04 µg/m3 1.1 µg/m3
2021-11-12 15:00 40.34 µg/m3 0.6 µg/m3 67.4 µg/m3 36.51 µg/m3 7.93 µg/m3 0.32 mg/m3 21.32 °C 49.3 % 1,015.97 mbar 1.43 m/s 328.72 Deg 16.72 µg/m3 0.89 µg/m3
2021-11-12 14:00 26.93 µg/m3 0.44 µg/m3 70.89 µg/m3 29.94 µg/m3 6.44 µg/m3 0.25 mg/m3 21.63 °C 42.59 % 1,015.98 mbar 1.47 m/s 255.82 Deg 6.95 µg/m3 1.21 µg/m3
2021-11-12 13:00 27.29 µg/m3 0.57 µg/m3 67.51 µg/m3 26.65 µg/m3 6 µg/m3 0.28 mg/m3 21.36 °C 45.96 % 1,016.24 mbar 1.53 m/s 234.63 Deg 11.17 µg/m3 0.98 µg/m3
2021-11-12 12:00 22.31 µg/m3 0.45 µg/m3 68.81 µg/m3 27.28 µg/m3 5.98 µg/m3 0.24 mg/m3 20.98 °C 48.22 % 1,016.81 mbar 1.82 m/s 220.6 Deg 5.73 µg/m3 1.63 µg/m3
2021-11-12 11:00 35.42 µg/m3 0.67 µg/m3 55.12 µg/m3 35.03 µg/m3 7.73 µg/m3 0.33 mg/m3 20.92 °C 45.57 % 1,017.31 mbar 0.82 m/s 189.48 Deg 19.21 µg/m3 2.36 µg/m3
2021-11-12 10:00 68.96 µg/m3 1.25 µg/m3 28.37 µg/m3 70.61 µg/m3 15.34 µg/m3 0.54 mg/m3 20.32 °C 45.81 % 1,017.41 mbar 0.59 m/s 247.66 Deg 47.73 µg/m3 7.03 µg/m3
2021-11-12 09:00 89.36 µg/m3 3.18 µg/m3 6.14 µg/m3 137.61 µg/m3 34.2 µg/m3 1.3 mg/m3 17.87 °C 60.74 % 1,017.40 mbar 0.79 m/s 219.35 Deg 170.62 µg/m3 10.68 µg/m3
2021-11-12 08:00 69.18 µg/m3 2.47 µg/m3 4.28 µg/m3 92.87 µg/m3 28.76 µg/m3 1.12 mg/m3 15.42 °C 70.48 % 1,017.20 mbar 0.82 m/s 223.97 Deg 124.97 µg/m3 8.35 µg/m3
2021-11-12 07:00 59.31 µg/m3 2.21 µg/m3 2.56 µg/m3 29.18 µg/m3 19.46 µg/m3 1.18 mg/m3 14.42 °C 75.39 % 1,016.90 mbar 0.83 m/s 233.03 Deg 112.13 µg/m3 12.79 µg/m3
2021-11-12 06:00 47.53 µg/m3 1.06 µg/m3 6.15 µg/m3 17.83 µg/m3 11.9 µg/m3 0.58 mg/m3 14.6 °C 74.96 % 1,016.72 mbar 0.66 m/s 242.62 Deg 47.38 µg/m3 4.04 µg/m3
2021-11-12 05:00 24.27 µg/m3 0.45 µg/m3 23.16 µg/m3 13.1 µg/m3 8.85 µg/m3 0.27 mg/m3 14.75 °C 76.23 % 1,016.67 mbar 0.86 m/s 235.58 Deg 3.04 µg/m3 3.2 µg/m3
2021-11-12 04:00 22.38 µg/m3 0.53 µg/m3 21.02 µg/m3 11.95 µg/m3 8 µg/m3 0.32 mg/m3 15.04 °C 77.13 % 1,016.81 mbar 0.69 m/s 227.8 Deg 0.81 µg/m3 2.8 µg/m3
2021-11-12 03:00 37.08 µg/m3 0.5 µg/m3 13.4 µg/m3 14.21 µg/m3 9.49 µg/m3 0.33 mg/m3 15.51 °C 75.29 % 1,017.11 mbar 0.36 m/s 237.31 Deg 4.73 µg/m3 3.08 µg/m3
2021-11-12 02:00 37 µg/m3 0.55 µg/m3 15.74 µg/m3 17.99 µg/m3 12.03 µg/m3 0.37 mg/m3 15.64 °C 75.08 % 1,017.14 mbar 0.96 m/s 236.53 Deg 4.12 µg/m3 4.2 µg/m3
2021-11-12 01:00 56.13 µg/m3 0.78 µg/m3 5 µg/m3 24.14 µg/m3 16.09 µg/m3 0.61 mg/m3 16.11 °C 73.94 % 1,017.30 mbar 0.65 m/s 237.6 Deg 19.9 µg/m3 5.46 µg/m3
2021-11-12 00:00 58.48 µg/m3 1.03 µg/m3 5.13 µg/m3 34.18 µg/m3 22.79 µg/m3 0.69 mg/m3 16.32 °C 75.72 % 1,017.47 mbar 0.84 m/s 232.63 Deg 38.19 µg/m3 7.3 µg/m3
2021-11-11 23:00 63.02 µg/m3 1.43 µg/m3 3.73 µg/m3 40.47 µg/m3 26.99 µg/m3 0.91 mg/m3 16.77 °C 75.59 % 1,017.84 mbar 0.72 m/s 241.23 Deg 64.6 µg/m3 8.59 µg/m3
2021-11-11 22:00 65.6 µg/m3 1.63 µg/m3 3.7 µg/m3 42.7 µg/m3 28.47 µg/m3 1.06 mg/m3 17.15 °C 73.52 % 1,018.05 mbar 0.72 m/s 239.07 Deg 79.49 µg/m3 11.07 µg/m3
2021-11-11 21:00 75.05 µg/m3 1.6 µg/m3 4.11 µg/m3 49.62 µg/m3 26.63 µg/m3 1.05 mg/m3 17.56 °C 69 % 1,017.77 mbar 0.6 m/s 230.12 Deg 79.67 µg/m3 8.68 µg/m3
2021-11-11 20:00 76.9 µg/m3 1.74 µg/m3 5.46 µg/m3 72.44 µg/m3 30.45 µg/m3 1.09 mg/m3 17.88 °C 68.36 % 1,017.57 mbar 0.75 m/s 230.53 Deg 90.93 µg/m3 13.02 µg/m3
2021-11-11 19:00 82.04 µg/m3 1.37 µg/m3 5.14 µg/m3 90.64 µg/m3 23.5 µg/m3 0.96 mg/m3 18.6 °C 63.27 % 1,017.60 mbar 0.64 m/s 227.4 Deg 75.02 µg/m3 7.48 µg/m3
2021-11-11 18:00 80.22 µg/m3 0.8 µg/m3 5.96 µg/m3 76.36 µg/m3 16.94 µg/m3 0.62 mg/m3 19.24 °C 59.56 % 1,017.08 mbar 0.68 m/s 219.33 Deg 30.21 µg/m3 10.36 µg/m3
2021-11-11 17:00 63.23 µg/m3 0.6 µg/m3 24.26 µg/m3 56.07 µg/m3 14.85 µg/m3 0.47 mg/m3 20.38 °C 52.29 % 1,016.64 mbar 1.38 m/s 244.77 Deg 18.87 µg/m3 2.68 µg/m3
2021-11-11 16:00 46.01 µg/m3 0.38 µg/m3 42.27 µg/m3 35.61 µg/m3 9.86 µg/m3 0.33 mg/m3 21.21 °C 48.17 % 1,016.70 mbar 1.69 m/s 272.52 Deg 12.67 µg/m3 2.52 µg/m3
2021-11-11 15:00 51.27 µg/m3 0.4 µg/m3 35.53 µg/m3 43.86 µg/m3 10.96 µg/m3 0.37 mg/m3 20.97 °C 50.73 % 1,016.65 mbar 1.48 m/s 264.63 Deg 15.72 µg/m3 2.1 µg/m3
2021-11-11 14:00 42.24 µg/m3 0.38 µg/m3 40.83 µg/m3 36.02 µg/m3 9.58 µg/m3 0.33 mg/m3 20.66 °C 59.57 % 1,016.85 mbar 1.63 m/s 275.7 Deg 14.77 µg/m3 1.87 µg/m3
2021-11-11 13:00 41.82 µg/m3 0.39 µg/m3 51.57 µg/m3 45.41 µg/m3 12.16 µg/m3 0.35 mg/m3 20.36 °C 73.12 % 1,017.18 mbar 0.86 m/s 266.78 Deg 23.77 µg/m3 2.13 µg/m3
2021-11-11 12:00 37.43 µg/m3 0.31 µg/m3 52.29 µg/m3 15.06 µg/m3 9.98 µg/m3 0.31 mg/m3 19.65 °C 77.84 % 1,017.21 mbar 0.9 m/s 320.87 Deg 11.82 µg/m3 3.25 µg/m3
2021-11-11 11:00 45.82 µg/m3 0.36 µg/m3 39.14 µg/m3 19.53 µg/m3 13.03 µg/m3 0.34 mg/m3 18.81 °C 82.28 % 1,017.43 mbar 0.87 m/s 305.4 Deg 15.34 µg/m3 1.75 µg/m3
2021-11-11 10:00 50.26 µg/m3 0.37 µg/m3 37.08 µg/m3 15.7 µg/m3 10.8 µg/m3 0.34 mg/m3 18.08 °C 85.46 % 1,017.19 mbar 1.63 m/s 198.3 Deg 18.7 µg/m3 2.23 µg/m3
2021-11-11 09:00 39.76 µg/m3 0.28 µg/m3 45.33 µg/m3 13.9 µg/m3 12.67 µg/m3 0.28 mg/m3 19.04 °C 90.29 % 1,016.80 mbar 2.74 m/s 199.07 Deg 14.51 µg/m3 1.1 µg/m3
2021-11-11 08:00 26.71 µg/m3 0.35 µg/m3 52.53 µg/m3 21.68 µg/m3 20 µg/m3 0.27 mg/m3 20.05 °C 89.53 % 1,016.04 mbar 5.02 m/s 67.53 Deg 18.29 µg/m3 0.89 µg/m3
2021-11-11 07:00 25.91 µg/m3 0.29 µg/m3 52.66 µg/m3 22.32 µg/m3 18.12 µg/m3 0.26 mg/m3 20.06 °C 87.55 % 1,016.14 mbar 4.08 m/s 115.85 Deg 11.7 µg/m3 0.86 µg/m3
2021-11-11 06:00 11.62 µg/m3 0.2 µg/m3 68.76 µg/m3 25.92 µg/m3 20.91 µg/m3 0.19 mg/m3 20.82 °C 85.28 % 1,015.80 mbar 5.24 m/s 70.3 Deg 3.74 µg/m3 0.77 µg/m3
2021-11-11 05:00 8.68 µg/m3 0.15 µg/m3 70.73 µg/m3 28.78 µg/m3 21.78 µg/m3 0.16 mg/m3 20.89 °C 83.34 % 1,016.07 mbar 4.15 m/s 67.83 Deg 0.72 µg/m3 0.63 µg/m3
2021-11-11 04:00 7.21 µg/m3 0.24 µg/m3 70.9 µg/m3 28.06 µg/m3 22.12 µg/m3 0.16 mg/m3 20.71 °C 85.12 % 1,016.55 mbar 4.63 m/s 69.85 Deg 0.39 µg/m3 0.6 µg/m3
2021-11-11 03:00 2.62 µg/m3 0.12 µg/m3 72.17 µg/m3 25.67 µg/m3 22.15 µg/m3 0.16 mg/m3 20.61 °C 87.04 % 1,016.99 mbar 4.87 m/s 63.97 Deg 0.48 µg/m3 0.65 µg/m3
2021-11-11 02:00 4.88 µg/m3 0.16 µg/m3 70.41 µg/m3 23.37 µg/m3 21.37 µg/m3 0.16 mg/m3 20.5 °C 88.06 % 1,017.45 mbar 5.5 m/s 63 Deg 0.51 µg/m3 0.73 µg/m3
2021-11-11 01:00 4.67 µg/m3 0.17 µg/m3 73.48 µg/m3 32.24 µg/m3 25.33 µg/m3 0.17 mg/m3 21.16 °C 83.69 % 1,017.69 mbar 4.78 m/s 65.73 Deg 2.4 µg/m3 0.65 µg/m3
2021-11-11 00:00 8.12 µg/m3 0.2 µg/m3 72.02 µg/m3 31.9 µg/m3 25.27 µg/m3 0.19 mg/m3 21.32 °C 81.54 % 1,017.80 mbar 4.75 m/s 66.13 Deg 5.54 µg/m3 0.73 µg/m3
2021-11-10 23:00 11.73 µg/m3 0.25 µg/m3 70.85 µg/m3 34.29 µg/m3 26.72 µg/m3 0.23 mg/m3 21.5 °C 81.51 % 1,017.92 mbar 4.71 m/s 66.23 Deg 8.06 µg/m3 1.1 µg/m3
2021-11-10 22:00 16.74 µg/m3 0.22 µg/m3 70.91 µg/m3 34.23 µg/m3 26.42 µg/m3 0.22 mg/m3 21.6 °C 81.64 % 1,018.01 mbar 4.81 m/s 66.18 Deg 5.55 µg/m3 0.65 µg/m3
2021-11-10 21:00 16.03 µg/m3 0.27 µg/m3 71.61 µg/m3 34.36 µg/m3 25.46 µg/m3 0.25 mg/m3 21.66 °C 81.62 % 1,018.11 mbar 4.54 m/s 68.27 Deg 11.55 µg/m3 1.31 µg/m3
2021-11-10 20:00 23.16 µg/m3 0.31 µg/m3 63.75 µg/m3 32.53 µg/m3 24.68 µg/m3 0.26 mg/m3 21.69 °C 82.6 % 1,017.54 mbar 4.78 m/s 72.97 Deg 14.95 µg/m3 0.97 µg/m3
2021-11-10 19:00 29.61 µg/m3 0.32 µg/m3 59.76 µg/m3 34.95 µg/m3 25.5 µg/m3 0.32 mg/m3 21.85 °C 83.18 % 1,017.57 mbar 4.47 m/s 71.78 Deg 19.52 µg/m3 4.15 µg/m3
2021-11-10 18:00 32.56 µg/m3 0.43 µg/m3 54.03 µg/m3 33.47 µg/m3 24.48 µg/m3 0.36 mg/m3 21.95 °C 83.1 % 1,017.54 mbar 4.47 m/s 68.92 Deg 25.13 µg/m3 1.94 µg/m3
2021-11-10 17:00 48.25 µg/m3 0.55 µg/m3 36.06 µg/m3 35.67 µg/m3 25.81 µg/m3 0.39 mg/m3 22.02 °C 84.95 % 1,017.46 mbar 4 m/s 72.02 Deg 32.37 µg/m3 1.89 µg/m3
2021-11-10 16:00 59.82 µg/m3 0.76 µg/m3 17.18 µg/m3 37.03 µg/m3 26.68 µg/m3 0.38 mg/m3 22 °C 86.48 % 1,017.04 mbar 4.33 m/s 67.8 Deg 51.32 µg/m3 1.66 µg/m3
2021-11-10 15:00 38.06 µg/m3 0.67 µg/m3 28.58 µg/m3 35.5 µg/m3 25.63 µg/m3 0.34 mg/m3 21.8 °C 87.71 % 1,016.57 mbar 4.75 m/s 64.35 Deg 43.65 µg/m3 1.13 µg/m3
2021-11-10 14:00 31.04 µg/m3 0.59 µg/m3 33.07 µg/m3 34.74 µg/m3 24.86 µg/m3 0.33 mg/m3 21.88 °C 86.73 % 1,016.73 mbar 4.54 m/s 63.8 Deg 41.27 µg/m3 2.05 µg/m3
2021-11-10 13:00 29.61 µg/m3 0.53 µg/m3 45.38 µg/m3 35.27 µg/m3 25.16 µg/m3 0.33 mg/m3 22.16 °C 84.92 % 1,017.72 mbar 4.9 m/s 64.1 Deg 32.04 µg/m3 1.52 µg/m3
2021-11-10 12:00 34.58 µg/m3 0.65 µg/m3 46.13 µg/m3 40.19 µg/m3 28.01 µg/m3 0.36 mg/m3 21.96 °C 84.57 % 1,018.34 mbar 4.56 m/s 64.58 Deg 38.04 µg/m3 1.5 µg/m3
2021-11-10 11:00 53.93 µg/m3 0.88 µg/m3 20.8 µg/m3 49.19 µg/m3 28.16 µg/m3 0.34 mg/m3 22.29 °C 79.66 % 1,018.81 mbar 3.57 m/s 71.43 Deg 59.98 µg/m3 1.84 µg/m3
2021-11-10 10:00 60.4 µg/m3 1.01 µg/m3 18.13 µg/m3 62.54 µg/m3 27.55 µg/m3 0.34 mg/m3 22.12 °C 76.52 % 1,018.69 mbar 3.47 m/s 75.38 Deg 68.23 µg/m3 2.83 µg/m3
2021-11-10 09:00 43.13 µg/m3 0.84 µg/m3 35.96 µg/m3 25.96 µg/m3 17.79 µg/m3 0.42 mg/m3 20.98 °C 82.43 % 1,018.58 mbar 3.07 m/s 62.1 Deg 54.68 µg/m3 2.52 µg/m3
2021-11-10 08:00 36.98 µg/m3 0.6 µg/m3 53.03 µg/m3 14.26 µg/m3 10.58 µg/m3 0.36 mg/m3 20 °C 82.96 % 1,018.20 mbar 4.07 m/s 47.1 Deg 33.61 µg/m3 1.07 µg/m3
2021-11-10 07:00 18.03 µg/m3 0.45 µg/m3 65.19 µg/m3 10 µg/m3 6.95 µg/m3 0.3 mg/m3 19.64 °C 78.88 % 1,017.73 mbar 2.7 m/s 43.67 Deg 20.77 µg/m3 0.94 µg/m3
2021-11-10 06:00 18.59 µg/m3 0.22 µg/m3 64.99 µg/m3 9.5 µg/m3 6.42 µg/m3 0.23 mg/m3 19.33 °C 77.56 % 1,017.79 mbar 0.91 m/s 109.82 Deg 6.65 µg/m3 0.84 µg/m3
2021-11-10 05:00 10.28 µg/m3 0.2 µg/m3 67.21 µg/m3 8.55 µg/m3 5.74 µg/m3 0.15 mg/m3 18.78 °C 79.19 % 1,017.87 mbar 0.51 m/s 164.66 Deg 2.19 µg/m3 0.37 µg/m3
2021-11-10 04:00 4.79 µg/m3 0.39 µg/m3 71.49 µg/m3 10.25 µg/m3 7.07 µg/m3 0.14 mg/m3 18.48 °C 79.95 % 1,017.76 mbar 0.77 m/s 287.38 Deg -0.16 µg/m3 0.39 µg/m3
2021-11-10 03:00 3.3 µg/m3 0.17 µg/m3 72.61 µg/m3 8.58 µg/m3 5.79 µg/m3 0.12 mg/m3 17.96 °C 83.42 % 1,017.78 mbar 1.38 m/s 252.75 Deg 0.49 µg/m3 0.31 µg/m3
2021-11-10 02:00 2.78 µg/m3 0.13 µg/m3 73.19 µg/m3 10.99 µg/m3 7.46 µg/m3 0.13 mg/m3 17.98 °C 86.48 % 1,017.84 mbar 2.05 m/s 233.98 Deg -0.32 µg/m3 0.23 µg/m3
2021-11-10 01:00 8.27 µg/m3 0.19 µg/m3 66.43 µg/m3 18.65 µg/m3 13.38 µg/m3 0.14 mg/m3 19.78 °C 83.03 % 1,018.01 mbar 3.16 m/s 195.1 Deg 1.26 µg/m3 0.44 µg/m3
2021-11-10 00:00 17.46 µg/m3 0.22 µg/m3 54.44 µg/m3 27.14 µg/m3 20.64 µg/m3 0.19 mg/m3 21.36 °C 84.98 % 1,016.56 mbar 4.13 m/s 171.05 Deg 6.45 µg/m3 0.56 µg/m3
2021-11-09 23:00 22.05 µg/m3 0.2 µg/m3 48.12 µg/m3 25.01 µg/m3 19.64 µg/m3 0.18 mg/m3 21.23 °C 86.93 % 1,015.66 mbar 5.14 m/s 68.07 Deg 9.32 µg/m3 1.6 µg/m3
2021-11-09 22:00 14.23 µg/m3 0.24 µg/m3 62.24 µg/m3 25.79 µg/m3 19.83 µg/m3 0.2 mg/m3 21.13 °C 89.37 % 1,014.99 mbar 5.15 m/s 63.73 Deg 5.99 µg/m3 0.65 µg/m3
2021-11-09 21:00 9.83 µg/m3 0.26 µg/m3 61.14 µg/m3 24.03 µg/m3 18.42 µg/m3 0.23 mg/m3 21.39 °C 88.67 % 1,014.66 mbar 5.65 m/s 56.53 Deg 8.23 µg/m3 0.87 µg/m3
2021-11-09 20:00 20.91 µg/m3 0.35 µg/m3 51.57 µg/m3 9.95 µg/m3 7.26 µg/m3 0.27 mg/m3 20.59 °C 81.26 % 1,015.25 mbar 3.71 m/s 43.75 Deg 15.84 µg/m3 3.04 µg/m3
2021-11-09 19:00 28.56 µg/m3 0.53 µg/m3 42.71 µg/m3 9 µg/m3 6.77 µg/m3 0.34 mg/m3 19.94 °C 83.29 % 1,016.04 mbar 2.96 m/s 40.07 Deg 31.84 µg/m3 2.41 µg/m3
2021-11-09 18:00 54.45 µg/m3 0.55 µg/m3 14.31 µg/m3 12.67 µg/m3 8.69 µg/m3 0.49 mg/m3 19.2 °C 83.72 % 1,016.95 mbar 0.94 m/s 284.23 Deg 25.96 µg/m3 2.13 µg/m3
2021-11-09 17:00 48.38 µg/m3 0.45 µg/m3 19.85 µg/m3 11.74 µg/m3 8.19 µg/m3 0.4 mg/m3 18.32 °C 85.39 % 1,016.67 mbar 1.14 m/s 264.1 Deg 19.79 µg/m3 2.83 µg/m3
2021-11-09 16:00 31.13 µg/m3 0.27 µg/m3 37.59 µg/m3 13.02 µg/m3 8.9 µg/m3 0.27 mg/m3 18.12 °C 87.04 % 1,015.97 mbar 3.05 m/s 249.95 Deg 8.34 µg/m3 1.31 µg/m3
2021-11-09 15:00 47.02 µg/m3 0.65 µg/m3 27.85 µg/m3 34 µg/m3 18.74 µg/m3 0.42 mg/m3 21.94 °C 81.56 % 1,015.38 mbar 1.85 m/s 207.98 Deg 38.47 µg/m3 4.97 µg/m3
2021-11-09 14:00 47.84 µg/m3 0.61 µg/m3 28.71 µg/m3 33.42 µg/m3 22.28 µg/m3 0.43 mg/m3 23.29 °C 82.98 % 1,015.12 mbar 1.68 m/s 187.32 Deg 39.22 µg/m3 2.6 µg/m3
2021-11-09 13:00 46.83 µg/m3 0.69 µg/m3 28.62 µg/m3 31.98 µg/m3 21.39 µg/m3 0.41 mg/m3 23.17 °C 82.5 % 1,014.55 mbar 2.62 m/s 179.67 Deg 45.63 µg/m3 1.42 µg/m3
2021-11-09 12:00 50.91 µg/m3 0.8 µg/m3 23.84 µg/m3 35.21 µg/m3 23.55 µg/m3 0.41 mg/m3 22.84 °C 85.74 % 1,014.79 mbar 2.31 m/s 96.5 Deg 51.2 µg/m3 1.99 µg/m3
2021-11-09 11:00 46.47 µg/m3 0.68 µg/m3 28.27 µg/m3 37.05 µg/m3 24.72 µg/m3 0.41 mg/m3 22.98 °C 86.16 % 1,014.71 mbar 2.3 m/s 79.17 Deg 42.95 µg/m3 2.81 µg/m3
2021-11-09 10:00 44.73 µg/m3 0.77 µg/m3 22.06 µg/m3 36.47 µg/m3 24.32 µg/m3 0.46 mg/m3 22.89 °C 88.07 % 1,014.38 mbar 1.68 m/s 157.27 Deg 46.18 µg/m3 3.25 µg/m3
2021-11-09 09:00 52.27 µg/m3 1.03 µg/m3 8.64 µg/m3 35.89 µg/m3 23.93 µg/m3 0.56 mg/m3 22.54 °C 90.22 % 1,013.92 mbar 0.96 m/s 128.35 Deg 62.98 µg/m3 5.88 µg/m3
2021-11-09 08:00 50 µg/m3 2.19 µg/m3 3.08 µg/m3 44.71 µg/m3 29.98 µg/m3 1.14 mg/m3 21.43 °C 91.48 % 1,013.21 mbar 0.85 m/s 155.92 Deg 140.03 µg/m3 11.67 µg/m3
2021-11-09 07:00 42.37 µg/m3 1.47 µg/m3 1.89 µg/m3 37.09 µg/m3 24.93 µg/m3 0.97 mg/m3 21.07 °C 91.69 % 1,012.45 mbar 0.19 m/s 235.79 Deg 96.15 µg/m3 4.93 µg/m3
2021-11-09 06:00 26.04 µg/m3 0.26 µg/m3 15.26 µg/m3 29.71 µg/m3 20.02 µg/m3 0.34 mg/m3 20.91 °C 91.76 % 1,011.90 mbar 0.79 m/s 213.22 Deg 9.26 µg/m3 2.02 µg/m3
2021-11-09 05:00 20.11 µg/m3 0.23 µg/m3 27.5 µg/m3 30.33 µg/m3 20.43 µg/m3 0.26 mg/m3 21.22 °C 91.61 % 1,011.29 mbar 0.58 m/s 225.22 Deg 3.71 µg/m3 1.84 µg/m3
2021-11-09 04:00 14.81 µg/m3 0.91 µg/m3 34.33 µg/m3 28.29 µg/m3 18.9 µg/m3 0.24 mg/m3 21.23 °C 90.62 % 1,011.38 mbar 0.26 m/s 64.58 Deg 1.31 µg/m3 3.33 µg/m3
2021-11-09 03:00 11.22 µg/m3 0.15 µg/m3 39.26 µg/m3 27.54 µg/m3 18.41 µg/m3 0.2 mg/m3 21.19 °C 89.68 % 1,011.55 mbar 0.49 m/s 220.93 Deg 0.11 µg/m3 1.86 µg/m3
2021-11-09 02:00 11.7 µg/m3 0.18 µg/m3 46.11 µg/m3 24.78 µg/m3 16.57 µg/m3 0.18 mg/m3 21.25 °C 88.21 % 1,011.63 mbar 0.98 m/s 165.8 Deg 2.32 µg/m3 1.21 µg/m3
2021-11-09 01:00 17.82 µg/m3 0.21 µg/m3 35.24 µg/m3 26.12 µg/m3 17.45 µg/m3 0.29 mg/m3 21.61 °C 88.36 % 1,011.65 mbar 0.73 m/s 221.84 Deg 3.35 µg/m3 1.97 µg/m3
2021-11-09 00:00 17.38 µg/m3 0.18 µg/m3 34.35 µg/m3 26.57 µg/m3 17.75 µg/m3 0.24 mg/m3 21.91 °C 88.45 % 1,011.37 mbar 1.24 m/s 234.33 Deg 1 µg/m3 1.68 µg/m3
2021-11-08 23:00 37 µg/m3 0.46 µg/m3 13.16 µg/m3 32.06 µg/m3 21.37 µg/m3 0.48 mg/m3 22.23 °C 86.15 % 1,010.51 mbar 0.83 m/s 267.47 Deg 21.97 µg/m3 4.36 µg/m3
2021-11-08 22:00 30.23 µg/m3 0.21 µg/m3 31.32 µg/m3 28.11 µg/m3 18.74 µg/m3 0.32 mg/m3 22.54 °C 82.67 % 1,010.25 mbar 0.79 m/s 227.27 Deg 6.7 µg/m3 2.73 µg/m3
2021-11-08 21:00 31.24 µg/m3 0.28 µg/m3 32.52 µg/m3 25.58 µg/m3 17.06 µg/m3 0.36 mg/m3 22.53 °C 84.44 % 1,010.59 mbar 0.85 m/s 174.92 Deg 9.18 µg/m3 2.13 µg/m3
2021-11-08 20:00 25.02 µg/m3 0.3 µg/m3 37.34 µg/m3 23.61 µg/m3 15.9 µg/m3 0.31 mg/m3 22.8 °C 88.27 % 1,010.64 mbar 1.65 m/s 142.03 Deg 13.64 µg/m3 3.02 µg/m3
2021-11-08 19:00 38.12 µg/m3 0.44 µg/m3 22.46 µg/m3 27.33 µg/m3 18.28 µg/m3 0.43 mg/m3 22.91 °C 87.39 % 1,010.28 mbar 1.49 m/s 240.63 Deg 22.46 µg/m3 3.15 µg/m3
2021-11-08 18:00 42.51 µg/m3 0.59 µg/m3 20.36 µg/m3 29.09 µg/m3 19.44 µg/m3 0.58 mg/m3 23.06 °C 85.93 % 1,009.66 mbar 1.55 m/s 89.3 Deg 38.79 µg/m3 2.45 µg/m3
2021-11-08 17:00 35.57 µg/m3 0.44 µg/m3 30.53 µg/m3 26.46 µg/m3 17.72 µg/m3 0.37 mg/m3 23.24 °C 84.92 % 1,009.69 mbar 2.11 m/s 186.6 Deg 22.05 µg/m3 2.49 µg/m3
2021-11-08 16:00 43.74 µg/m3 0.64 µg/m3 25.89 µg/m3 28.66 µg/m3 19.19 µg/m3 0.41 mg/m3 23.41 °C 83.35 % 1,008.98 mbar 2.36 m/s 192.02 Deg 40.31 µg/m3 2.71 µg/m3
2021-11-08 15:00 32.85 µg/m3 0.48 µg/m3 35.04 µg/m3 30.09 µg/m3 20.08 µg/m3 0.36 mg/m3 23.63 °C 81.56 % 1,009.80 mbar 1.82 m/s 132.75 Deg 27.66 µg/m3 1.78 µg/m3
2021-11-08 14:00 28.63 µg/m3 0.4 µg/m3 37.82 µg/m3 27.33 µg/m3 18.29 µg/m3 0.33 mg/m3 23.56 °C 81.4 % 1,009.84 mbar 2.05 m/s 141.92 Deg 18.63 µg/m3 2.75 µg/m3
2021-11-08 13:00 33.17 µg/m3 0.46 µg/m3 36.19 µg/m3 27.85 µg/m3 18.59 µg/m3 0.34 mg/m3 23.64 °C 80.33 % 1,009.90 mbar 1.84 m/s 130.77 Deg 23.87 µg/m3 1.54 µg/m3
2021-11-08 12:00 34.91 µg/m3 0.5 µg/m3 31.86 µg/m3 29.18 µg/m3 19.47 µg/m3 0.35 mg/m3 23.57 °C 80.91 % 1,010.50 mbar 2.36 m/s 121.07 Deg 32.3 µg/m3 2.39 µg/m3
2021-11-08 11:00 33.77 µg/m3 0.58 µg/m3 40.43 µg/m3 27.05 µg/m3 18.1 µg/m3 0.36 mg/m3 23.37 °C 81.56 % 1,010.59 mbar 2.95 m/s 140.63 Deg 25.15 µg/m3 4.74 µg/m3
2021-11-08 10:00 49.34 µg/m3 0.66 µg/m3 26.11 µg/m3 31.93 µg/m3 21.3 µg/m3 0.46 mg/m3 23.3 °C 82.1 % 1,011.22 mbar 2.38 m/s 125.32 Deg 35.91 µg/m3 3.31 µg/m3
2021-11-08 09:00 52.27 µg/m3 0.66 µg/m3 16.35 µg/m3 28.63 µg/m3 19.1 µg/m3 0.43 mg/m3 22.72 °C 82.87 % 1,011.32 mbar 1.42 m/s 147.85 Deg 39.9 µg/m3 3.08 µg/m3
2021-11-08 08:00 64.14 µg/m3 0.65 µg/m3 9.73 µg/m3 31.83 µg/m3 21.22 µg/m3 0.47 mg/m3 22.43 °C 82.41 % 1,011.14 mbar 0.98 m/s 128.4 Deg 35.37 µg/m3 2.65 µg/m3
2021-11-08 07:00 58.95 µg/m3 0.76 µg/m3 9.71 µg/m3 33.25 µg/m3 22.18 µg/m3 0.67 mg/m3 21.79 °C 85.97 % 1,011.07 mbar 0.59 m/s 114.02 Deg 42.65 µg/m3 5.67 µg/m3
2021-11-08 06:00 34.59 µg/m3 0.31 µg/m3 27.36 µg/m3 29.4 µg/m3 19.66 µg/m3 0.35 mg/m3 21.6 °C 88.25 % 1,010.87 mbar 1 m/s 161.45 Deg 10.79 µg/m3 1.61 µg/m3
2021-11-08 05:00 19.36 µg/m3 0.17 µg/m3 48.84 µg/m3 27.19 µg/m3 18.2 µg/m3 0.15 mg/m3 21.71 °C 88.32 % 1,010.23 mbar 0.83 m/s 31.43 Deg 2.5 µg/m3 0.44 µg/m3
2021-11-08 04:00 26.56 µg/m3 0.28 µg/m3 44.47 µg/m3 25.77 µg/m3 17.51 µg/m3 0.15 mg/m3 21.66 °C 90.06 % 1,010.49 mbar 1.9 m/s 140.02 Deg 1.78 µg/m3 0.42 µg/m3
2021-11-08 03:00 35 µg/m3 0.12 µg/m3 28 µg/m3 26.07 µg/m3 17.91 µg/m3 0.15 mg/m3 21.81 °C 90.83 % 1,010.88 mbar 2.51 m/s 54.53 Deg 3.86 µg/m3 0.42 µg/m3
2021-11-08 02:00 20.45 µg/m3 0.16 µg/m3 37.95 µg/m3 24.65 µg/m3 16.66 µg/m3 0.14 mg/m3 22.04 °C 90.62 % 1,011.65 mbar 2.02 m/s 139.33 Deg 2.32 µg/m3 0.49 µg/m3
2021-11-08 01:00 11.04 µg/m3 0.17 µg/m3 47.44 µg/m3 23.51 µg/m3 15.75 µg/m3 0.17 mg/m3 22.16 °C 89.81 % 1,012.26 mbar 1.68 m/s 230.05 Deg 3.49 µg/m3 0.89 µg/m3
2021-11-08 00:00 18.66 µg/m3 0.18 µg/m3 40.57 µg/m3 23.35 µg/m3 15.61 µg/m3 0.2 mg/m3 22.3 °C 87.57 % 1,013.39 mbar 1.33 m/s 185.17 Deg 5.13 µg/m3 0.65 µg/m3
2021-11-07 23:00 25.74 µg/m3 0.24 µg/m3 37.18 µg/m3 24.13 µg/m3 16.13 µg/m3 0.24 mg/m3 22.35 °C 86.67 % 1,013.23 mbar 1.77 m/s 192.03 Deg 7.23 µg/m3 1.29 µg/m3
2021-11-07 22:00 20.57 µg/m3 0.28 µg/m3 42.65 µg/m3 25.01 µg/m3 16.69 µg/m3 0.26 mg/m3 22.42 °C 84.96 % 1,013.46 mbar 1.44 m/s 140.68 Deg 8.97 µg/m3 0.65 µg/m3
2021-11-07 21:00 18.48 µg/m3 0.3 µg/m3 47.37 µg/m3 26 µg/m3 17.36 µg/m3 0.31 mg/m3 22.47 °C 86.17 % 1,012.96 mbar 2 m/s 194.77 Deg 12.94 µg/m3 3.41 µg/m3
2021-11-07 20:00 30.84 µg/m3 0.34 µg/m3 35.86 µg/m3 30.73 µg/m3 20.51 µg/m3 0.32 mg/m3 22.72 °C 85.62 % 1,013.01 mbar 2.06 m/s 191.62 Deg 16.15 µg/m3 1.29 µg/m3
2021-11-07 19:00 32.54 µg/m3 0.56 µg/m3 30.71 µg/m3 33.66 µg/m3 22.45 µg/m3 0.39 mg/m3 22.71 °C 87.04 % 1,013.16 mbar 2.09 m/s 143.57 Deg 31.75 µg/m3 5.2 µg/m3
2021-11-07 18:00 26.54 µg/m3 0.41 µg/m3 32.38 µg/m3 31.59 µg/m3 21.09 µg/m3 0.36 mg/m3 22.84 °C 87.14 % 1,013.16 mbar 2.24 m/s 249.02 Deg 21.44 µg/m3 1.49 µg/m3
2021-11-07 17:00 20.38 µg/m3 0.33 µg/m3 49.14 µg/m3 32.55 µg/m3 21.8 µg/m3 0.37 mg/m3 22.86 °C 82.96 % 1,012.62 mbar 2.48 m/s 101.65 Deg 14.75 µg/m3 1.73 µg/m3
2021-11-07 16:00 13.17 µg/m3 0.18 µg/m3 48.23 µg/m3 29.07 µg/m3 19.41 µg/m3 0.24 mg/m3 23.72 °C 80.1 % 1,013.77 mbar 1.5 m/s 205.77 Deg 4.1 µg/m3 1.31 µg/m3
2021-11-07 15:00 11.92 µg/m3 0.25 µg/m3 50.68 µg/m3 25.66 µg/m3 17.15 µg/m3 0.22 mg/m3 24.18 °C 79.08 % 1,013.20 mbar 2.08 m/s 152.23 Deg 7.8 µg/m3 0.98 µg/m3
2021-11-07 14:00 9.05 µg/m3 0.27 µg/m3 52.8 µg/m3 31.98 µg/m3 17.23 µg/m3 0.23 mg/m3 24.54 °C 76.02 % 1,013.54 mbar 2.13 m/s 154.03 Deg 8.02 µg/m3 0.97 µg/m3
2021-11-07 13:00 10.18 µg/m3 0.23 µg/m3 53.74 µg/m3 35.56 µg/m3 16.75 µg/m3 0.25 mg/m3 24.74 °C 73.28 % 1,013.39 mbar 2.65 m/s 131.58 Deg 10.47 µg/m3 0.86 µg/m3
2021-11-07 12:00 16.57 µg/m3 0.28 µg/m3 50.23 µg/m3 38.67 µg/m3 18.27 µg/m3 0.25 mg/m3 24.76 °C 72.84 % 1,013.83 mbar 2.77 m/s 127.82 Deg 10.75 µg/m3 1.19 µg/m3
2021-11-07 11:00 17.2 µg/m3 0.3 µg/m3 48.01 µg/m3 40.63 µg/m3 18.09 µg/m3 0.25 mg/m3 24.41 °C 73.16 % 1,014.30 mbar 3.25 m/s 133.18 Deg 10.96 µg/m3 2.1 µg/m3
2021-11-07 10:00 14.86 µg/m3 0.24 µg/m3 50.32 µg/m3 35.41 µg/m3 17.15 µg/m3 0.23 mg/m3 24.22 °C 72.57 % 1,014.41 mbar 3.15 m/s 180.13 Deg 9.44 µg/m3 0.84 µg/m3
2021-11-07 09:00 19.29 µg/m3 0.27 µg/m3 46.35 µg/m3 40.65 µg/m3 18.3 µg/m3 0.27 mg/m3 23.83 °C 71.6 % 1,014.33 mbar 2.47 m/s 128.55 Deg 8.54 µg/m3 0.79 µg/m3
2021-11-07 08:00 26.25 µg/m3 0.27 µg/m3 40.05 µg/m3 37.55 µg/m3 17.83 µg/m3 0.23 mg/m3 23.52 °C 71.67 % 1,013.89 mbar 2.24 m/s 120.83 Deg 7.53 µg/m3 0.89 µg/m3
2021-11-07 07:00 20.21 µg/m3 0.23 µg/m3 49.5 µg/m3 33.97 µg/m3 16.85 µg/m3 0.18 mg/m3 23.42 °C 69.96 % 1,013.37 mbar 2.52 m/s 114.98 Deg 5.01 µg/m3 0.58 µg/m3
2021-11-07 06:00 13.1 µg/m3 0.18 µg/m3 54.56 µg/m3 33.32 µg/m3 16.64 µg/m3 0.15 mg/m3 23.55 °C 69 % 1,012.90 mbar 2.47 m/s 109.58 Deg 3.9 µg/m3 0.37 µg/m3
2021-11-07 05:00 12.15 µg/m3 0.17 µg/m3 57.1 µg/m3 31.48 µg/m3 16.46 µg/m3 0.14 mg/m3 23.59 °C 68.57 % 1,012.80 mbar 2.66 m/s 146.78 Deg 2.07 µg/m3 0.55 µg/m3
2021-11-07 04:00 5.12 µg/m3 1.22 µg/m3 62.96 µg/m3 30.54 µg/m3 16.62 µg/m3 0.14 mg/m3 23.5 °C 70.33 % 1,012.71 mbar 2.87 m/s 207.28 Deg 2.69 µg/m3 0.58 µg/m3
2021-11-07 03:00 6.01 µg/m3 0.19 µg/m3 62.27 µg/m3 28.32 µg/m3 17.43 µg/m3 0.15 mg/m3 23.23 °C 74.39 % 1,012.93 mbar 3.05 m/s 287.43 Deg 1.85 µg/m3 0.47 µg/m3
2021-11-07 02:00 11.82 µg/m3 0.2 µg/m3 52.9 µg/m3 28.62 µg/m3 16.68 µg/m3 0.18 mg/m3 23.35 °C 73.46 % 1,013.05 mbar 3.15 m/s 143.8 Deg 3.28 µg/m3 1.05 µg/m3
2021-11-07 01:00 14.32 µg/m3 0.23 µg/m3 51.79 µg/m3 30.69 µg/m3 16.38 µg/m3 0.19 mg/m3 23.48 °C 71.36 % 1,013.07 mbar 2.62 m/s 134.92 Deg 7.43 µg/m3 0.97 µg/m3
2021-11-07 00:00 16.02 µg/m3 0.26 µg/m3 52.98 µg/m3 31.81 µg/m3 16.37 µg/m3 0.22 mg/m3 23.62 °C 70.04 % 1,013.17 mbar 2.67 m/s 184.33 Deg 10.53 µg/m3 0.86 µg/m3
2021-11-06 23:00 14.96 µg/m3 0.28 µg/m3 51.38 µg/m3 30.8 µg/m3 15.95 µg/m3 0.21 mg/m3 23.76 °C 68.05 % 1,012.97 mbar 3.11 m/s 56.15 Deg 10.65 µg/m3 0.7 µg/m3
2021-11-06 22:00 21 µg/m3 0.36 µg/m3 47.02 µg/m3 32.04 µg/m3 16.29 µg/m3 0.26 mg/m3 23.75 °C 69.8 % 1,013.02 mbar 2.95 m/s 138.83 Deg 15.77 µg/m3 1.21 µg/m3
2021-11-06 21:00 22.88 µg/m3 0.29 µg/m3 42.57 µg/m3 33.95 µg/m3 16.84 µg/m3 0.3 mg/m3 23.88 °C 69.83 % 1,012.89 mbar 2.78 m/s 101.77 Deg 13.55 µg/m3 2.5 µg/m3
2021-11-06 20:00 23.99 µg/m3 0.25 µg/m3 39.95 µg/m3 33.12 µg/m3 16.91 µg/m3 0.27 mg/m3 23.92 °C 71.08 % 1,012.86 mbar 2.71 m/s 117.47 Deg 14.78 µg/m3 2.83 µg/m3
2021-11-06 19:00 24.06 µg/m3 0.34 µg/m3 38.49 µg/m3 35.81 µg/m3 17.2 µg/m3 0.3 mg/m3 24.05 °C 70.35 % 1,012.68 mbar 2.64 m/s 113.08 Deg 15.02 µg/m3 1.4 µg/m3
2021-11-06 18:00 25.48 µg/m3 0.32 µg/m3 37.43 µg/m3 38.74 µg/m3 18.2 µg/m3 0.31 mg/m3 24.17 °C 69.23 % 1,012.51 mbar 2.85 m/s 114.12 Deg 16.21 µg/m3 1.42 µg/m3
2021-11-06 17:00 30.65 µg/m3 0.33 µg/m3 31.22 µg/m3 38.48 µg/m3 17.65 µg/m3 0.32 mg/m3 24.88 °C 64.41 % 1,012.44 mbar 2.58 m/s 113.73 Deg 16.19 µg/m3 2.12 µg/m3
2021-11-06 16:00 20.97 µg/m3 0.32 µg/m3 39.1 µg/m3 39.99 µg/m3 17.11 µg/m3 0.28 mg/m3 25.39 °C 62.08 % 1,012.56 mbar 2.48 m/s 120.95 Deg 15.06 µg/m3 0.98 µg/m3
2021-11-06 15:00 17.46 µg/m3 0.33 µg/m3 42.14 µg/m3 42.8 µg/m3 18.54 µg/m3 0.28 mg/m3 25.48 °C 64.16 % 1,012.80 mbar 2.16 m/s 134.5 Deg 14.69 µg/m3 0.79 µg/m3
2021-11-06 14:00 19.65 µg/m3 0.27 µg/m3 38.79 µg/m3 44.09 µg/m3 18.08 µg/m3 0.29 mg/m3 25.6 °C 62.19 % 1,013.18 mbar 2.03 m/s 159.5 Deg 9.51 µg/m3 1.08 µg/m3
2021-11-06 13:00 21.99 µg/m3 0.38 µg/m3 37.06 µg/m3 46.5 µg/m3 18.96 µg/m3 0.32 mg/m3 25.49 °C 64.05 % 1,013.32 mbar 2.27 m/s 142.77 Deg 13.92 µg/m3 1.13 µg/m3
2021-11-06 12:00 22.52 µg/m3 0.36 µg/m3 35.22 µg/m3 51.41 µg/m3 19.78 µg/m3 0.33 mg/m3 25.35 °C 65.59 % 1,013.60 mbar 2.35 m/s 144.35 Deg 17.27 µg/m3 2.15 µg/m3
2021-11-06 11:00 27.36 µg/m3 0.41 µg/m3 29.65 µg/m3 52.42 µg/m3 18.79 µg/m3 0.33 mg/m3 25.63 °C 62.41 % 1,013.46 mbar 2.39 m/s 128.33 Deg 18.99 µg/m3 1.66 µg/m3
2021-11-06 10:00 29.38 µg/m3 0.53 µg/m3 25.62 µg/m3 48.48 µg/m3 18.2 µg/m3 0.32 mg/m3 25.94 °C 60.6 % 1,013.11 mbar 2.54 m/s 114.07 Deg 25.01 µg/m3 1.28 µg/m3
2021-11-06 09:00 42.44 µg/m3 0.7 µg/m3 16.97 µg/m3 61.09 µg/m3 20.57 µg/m3 0.4 mg/m3 24.81 °C 66.7 % 1,012.89 mbar 1.6 m/s 137.33 Deg 32.14 µg/m3 5.9 µg/m3
2021-11-06 08:00 46.14 µg/m3 1.03 µg/m3 5.33 µg/m3 59.39 µg/m3 27.02 µg/m3 0.66 mg/m3 23.51 °C 74.06 % 1,012.63 mbar 1.11 m/s 245.88 Deg 63.59 µg/m3 6.23 µg/m3
2021-11-06 07:00 44.65 µg/m3 0.85 µg/m3 4.78 µg/m3 35.87 µg/m3 23.92 µg/m3 0.6 mg/m3 22.84 °C 77.06 % 1,012.05 mbar 1.15 m/s 264.98 Deg 51.14 µg/m3 3.52 µg/m3
2021-11-06 06:00 33.55 µg/m3 0.34 µg/m3 16.02 µg/m3 35.06 µg/m3 23.39 µg/m3 0.31 mg/m3 22.61 °C 80.47 % 1,011.77 mbar 0.9 m/s 108 Deg 16.01 µg/m3 1.99 µg/m3
2021-11-06 05:00 15.28 µg/m3 0.21 µg/m3 36 µg/m3 39.32 µg/m3 26.24 µg/m3 0.2 mg/m3 22.06 °C 85.62 % 1,011.78 mbar 1.61 m/s 122.63 Deg 6.09 µg/m3 0.89 µg/m3
2021-11-06 04:00 8.69 µg/m3 0.33 µg/m3 47.34 µg/m3 43.3 µg/m3 29.07 µg/m3 0.13 mg/m3 21.74 °C 88.71 % 1,012.12 mbar 2.78 m/s 54.18 Deg 1.52 µg/m3 0.39 µg/m3
2021-11-06 03:00 7.19 µg/m3 0.18 µg/m3 53.47 µg/m3 49.81 µg/m3 33.29 µg/m3 0.15 mg/m3 21.58 °C 90.86 % 1,012.34 mbar 3.27 m/s 50.18 Deg 1.05 µg/m3 0.68 µg/m3
2021-11-06 02:00 11.38 µg/m3 0.18 µg/m3 45.69 µg/m3 56.73 µg/m3 37.83 µg/m3 0.19 mg/m3 21.68 °C 90.13 % 1,012.84 mbar 2.21 m/s 107.23 Deg 3.17 µg/m3 0.73 µg/m3
2021-11-06 01:00 16.64 µg/m3 0.24 µg/m3 39.09 µg/m3 50.56 µg/m3 33.72 µg/m3 0.23 mg/m3 21.72 °C 90.05 % 1,012.40 mbar 2.06 m/s 114.68 Deg 5.88 µg/m3 2.03 µg/m3
2021-11-06 00:00 35.42 µg/m3 0.42 µg/m3 15.5 µg/m3 38.69 µg/m3 25.82 µg/m3 0.42 mg/m3 21.76 °C 88.44 % 1,012.36 mbar 1.12 m/s 248.12 Deg 15.38 µg/m3 2.96 µg/m3
2021-11-05 23:00 38.88 µg/m3 0.48 µg/m3 10.54 µg/m3 38.8 µg/m3 25.87 µg/m3 0.48 mg/m3 21.96 °C 88.86 % 1,011.43 mbar 1.08 m/s 154.68 Deg 23.67 µg/m3 3.54 µg/m3
2021-11-05 22:00 50.4 µg/m3 0.82 µg/m3 4.68 µg/m3 48.06 µg/m3 32.13 µg/m3 0.72 mg/m3 22.44 °C 85.97 % 1,011.16 mbar 0.93 m/s 76.35 Deg 43.89 µg/m3 5.72 µg/m3
2021-11-05 21:00 51.01 µg/m3 1.09 µg/m3 2.37 µg/m3 49.69 µg/m3 33.17 µg/m3 0.74 mg/m3 22.14 °C 87.49 % 1,010.76 mbar 1.67 m/s 171.97 Deg 63.92 µg/m3 7.32 µg/m3
2021-11-05 20:00 46 µg/m3 0.97 µg/m3 2.22 µg/m3 44.28 µg/m3 29.52 µg/m3 0.78 mg/m3 21.84 °C 91.9 % 1,011.24 mbar 0.81 m/s 206.41 Deg 61.42 µg/m3 5.32 µg/m3
2021-11-05 19:00 42.97 µg/m3 0.9 µg/m3 8.21 µg/m3 38.52 µg/m3 25.7 µg/m3 0.65 mg/m3 21.89 °C 91.76 % 1,011.03 mbar 1.33 m/s 53.47 Deg 54.61 µg/m3 6.46 µg/m3
2021-11-05 18:00 54.26 µg/m3 1.09 µg/m3 2.15 µg/m3 45.01 µg/m3 30.01 µg/m3 0.72 mg/m3 22.02 °C 90.5 % 1,011.07 mbar 0.71 m/s 36.18 Deg 69.5 µg/m3 8.58 µg/m3
2021-11-05 17:00 51.05 µg/m3 1.64 µg/m3 4.28 µg/m3 48.81 µg/m3 32.55 µg/m3 0.66 mg/m3 21.68 °C 91.97 % 1,010.60 mbar 1.1 m/s 62 Deg 99.65 µg/m3 3.94 µg/m3
2021-11-05 16:00 46.8 µg/m3 0.86 µg/m3 15.65 µg/m3 41.6 µg/m3 27.77 µg/m3 0.48 mg/m3 21.34 °C 92.79 % 1,010.64 mbar 2.22 m/s 136.8 Deg 52.35 µg/m3 1.6 µg/m3
2021-11-05 15:00 37.33 µg/m3 0.81 µg/m3 29.06 µg/m3 50.7 µg/m3 33.84 µg/m3 0.48 mg/m3 21.27 °C 91.2 % 1,010.60 mbar 3.42 m/s 73.73 Deg 54.61 µg/m3 6.7 µg/m3
2021-11-05 14:00 30.92 µg/m3 0.49 µg/m3 53.68 µg/m3 38.43 µg/m3 25.67 µg/m3 0.4 mg/m3 21.35 °C 89.21 % 1,010.81 mbar 3.57 m/s 52.75 Deg 33.53 µg/m3 2.1 µg/m3
2021-11-05 13:00 24.67 µg/m3 0.43 µg/m3 60.66 µg/m3 31.59 µg/m3 21.18 µg/m3 0.32 mg/m3 21.21 °C 89.2 % 1,011.26 mbar 4.71 m/s 51.52 Deg 28.23 µg/m3 1.76 µg/m3
2021-11-05 12:00 27.29 µg/m3 0.59 µg/m3 51.08 µg/m3 33.03 µg/m3 22.06 µg/m3 0.39 mg/m3 21.19 °C 88.49 % 1,012.36 mbar 3.1 m/s 48.72 Deg 38.5 µg/m3 1.52 µg/m3
2021-11-05 11:00 32.92 µg/m3 0.56 µg/m3 47.61 µg/m3 32.22 µg/m3 21.51 µg/m3 0.39 mg/m3 21.19 °C 86.89 % 1,012.88 mbar 2.59 m/s 36.08 Deg 31.83 µg/m3 2.52 µg/m3
2021-11-05 10:00 40.94 µg/m3 0.55 µg/m3 39.7 µg/m3 39.32 µg/m3 25.94 µg/m3 0.34 mg/m3 21.45 °C 85.82 % 1,013.40 mbar 1.24 m/s 176.47 Deg 27.19 µg/m3 2.5 µg/m3
2021-11-05 09:00 38.08 µg/m3 1.03 µg/m3 30.09 µg/m3 40.2 µg/m3 26.8 µg/m3 0.56 mg/m3 20.58 °C 91.59 % 1,012.31 mbar 1.71 m/s 36.42 Deg 52.31 µg/m3 11.44 µg/m3
2021-11-05 08:00 46.12 µg/m3 3.17 µg/m3 3.07 µg/m3 45.83 µg/m3 32.22 µg/m3 1.55 mg/m3 19.45 °C 93.48 % 1,011.48 mbar 0.25 m/s 149.73 Deg 208.19 µg/m3 14.26 µg/m3
2021-11-05 07:00 43.67 µg/m3 2.08 µg/m3 2.64 µg/m3 37.08 µg/m3 27.01 µg/m3 1.23 mg/m3 18.74 °C 94.5 % 1,011.26 mbar 0.19 m/s 250.08 Deg 135.58 µg/m3 6.93 µg/m3
2021-11-05 06:00 33.49 µg/m3 0.46 µg/m3 5.44 µg/m3 27.8 µg/m3 20.01 µg/m3 0.39 mg/m3 18.68 °C 93.57 % 1,011.33 mbar 0.6 m/s 237.16 Deg 17.6 µg/m3 3.94 µg/m3
2021-11-05 05:00 22.86 µg/m3 0.33 µg/m3 10.57 µg/m3 30.01 µg/m3 20.09 µg/m3 0.26 mg/m3 18.83 °C 92.48 % 1,011.55 mbar 0.95 m/s 238.35 Deg 5 µg/m3 3.57 µg/m3
2021-11-05 04:00 23.45 µg/m3 0.5 µg/m3 10.79 µg/m3 37.74 µg/m3 25.23 µg/m3 0.31 mg/m3 19.05 °C 91.6 % 1,011.43 mbar 0.65 m/s 236.07 Deg 6.09 µg/m3 4.64 µg/m3
2021-11-05 03:00 32.65 µg/m3 0.35 µg/m3 5.32 µg/m3 34.97 µg/m3 23.32 µg/m3 0.33 mg/m3 19.49 °C 91.08 % 1,011.57 mbar 0.53 m/s 223.47 Deg 3.14 µg/m3 3.55 µg/m3
2021-11-05 02:00 42.23 µg/m3 0.39 µg/m3 3.87 µg/m3 30.72 µg/m3 20.48 µg/m3 0.45 mg/m3 19.76 °C 90.87 % 1,011.53 mbar 0.78 m/s 245.55 Deg 13.01 µg/m3 4.34 µg/m3
2021-11-05 01:00 48.01 µg/m3 0.62 µg/m3 4.98 µg/m3 31.74 µg/m3 21.16 µg/m3 0.58 mg/m3 20.4 °C 89.67 % 1,011.51 mbar 0.31 m/s 147.23 Deg 24.1 µg/m3 5.79 µg/m3
2021-11-05 00:00 35.86 µg/m3 0.46 µg/m3 23.76 µg/m3 29.62 µg/m3 19.75 µg/m3 0.49 mg/m3 20.89 °C 88.67 % 1,011.64 mbar 0.5 m/s 145.3 Deg 17.12 µg/m3 3.86 µg/m3
2021-11-04 23:00 16.94 µg/m3 0.16 µg/m3 47.17 µg/m3 29.69 µg/m3 19.8 µg/m3 0.27 mg/m3 21.29 °C 87.83 % 1,011.43 mbar 1.11 m/s 210.93 Deg 0.66 µg/m3 2.54 µg/m3
2021-11-04 22:00 25.01 µg/m3 0.2 µg/m3 33.57 µg/m3 43.5 µg/m3 29 µg/m3 0.3 mg/m3 21.97 °C 86.16 % 1,011.05 mbar 1.13 m/s 217.17 Deg 2.89 µg/m3 2.18 µg/m3
2021-11-04 21:00 27.19 µg/m3 0.27 µg/m3 32.32 µg/m3 86.97 µg/m3 57.98 µg/m3 0.29 mg/m3 22.71 °C 82.3 % 1,010.76 mbar 1.02 m/s 228.25 Deg 3.27 µg/m3 2.52 µg/m3
2021-11-04 20:00 39.32 µg/m3 0.29 µg/m3 34.19 µg/m3 85.01 µg/m3 56.68 µg/m3 0.4 mg/m3 23.13 °C 77.95 % 1,010.11 mbar 1.07 m/s 224.97 Deg 6.84 µg/m3 4.25 µg/m3
2021-11-04 19:00 32 µg/m3 0.27 µg/m3 47.58 µg/m3 78.08 µg/m3 38.51 µg/m3 0.35 mg/m3 23.72 °C 74.12 % 1,009.55 mbar 1.7 m/s 212.23 Deg 4.15 µg/m3 2.47 µg/m3
2021-11-04 18:00 32.64 µg/m3 0.23 µg/m3 43.24 µg/m3 93.39 µg/m3 31.95 µg/m3 0.36 mg/m3 24.07 °C 71.76 % 1,008.97 mbar 2.1 m/s 207.8 Deg 4.37 µg/m3 2.23 µg/m3
2021-11-04 17:00 32.88 µg/m3 0.26 µg/m3 44.31 µg/m3 88.41 µg/m3 30.22 µg/m3 0.34 mg/m3 24.47 °C 69.03 % 1,008.37 mbar 2.24 m/s 198.5 Deg 5.06 µg/m3 2.52 µg/m3
2021-11-04 16:00 24.1 µg/m3 0.24 µg/m3 53.39 µg/m3 90.05 µg/m3 28.45 µg/m3 0.29 mg/m3 25.44 °C 63.94 % 1,008.26 mbar 2.73 m/s 199.82 Deg 5.87 µg/m3 1.55 µg/m3
2021-11-04 15:00 28.77 µg/m3 0.36 µg/m3 46.99 µg/m3 91.8 µg/m3 26.73 µg/m3 0.3 mg/m3 26.27 °C 59.45 % 1,008.10 mbar 2.07 m/s 186.6 Deg 15.05 µg/m3 1.52 µg/m3
2021-11-04 14:00 21.4 µg/m3 0.23 µg/m3 49.94 µg/m3 70.29 µg/m3 22 µg/m3 0.27 mg/m3 26.4 °C 58.78 % 1,008.48 mbar 3.02 m/s 201.85 Deg 9.02 µg/m3 1.36 µg/m3
2021-11-04 13:00 21.57 µg/m3 0.28 µg/m3 44.48 µg/m3 76.76 µg/m3 24.3 µg/m3 0.27 mg/m3 26.46 °C 60.19 % 1,008.66 mbar 2.45 m/s 187.08 Deg 12.47 µg/m3 1.57 µg/m3
2021-11-04 12:00 21.95 µg/m3 0.32 µg/m3 42.85 µg/m3 75.45 µg/m3 25.12 µg/m3 0.31 mg/m3 26.26 °C 64.39 % 1,009.21 mbar 1.99 m/s 182.35 Deg 15.22 µg/m3 1.12 µg/m3
2021-11-04 11:00 19.37 µg/m3 0.32 µg/m3 41.69 µg/m3 64.03 µg/m3 24.74 µg/m3 0.29 mg/m3 25.74 °C 67.05 % 1,009.69 mbar 2.35 m/s 177.58 Deg 13.38 µg/m3 1.57 µg/m3
2021-11-04 10:00 23.56 µg/m3 0.32 µg/m3 36.09 µg/m3 69.87 µg/m3 25.92 µg/m3 0.28 mg/m3 25.4 °C 68.34 % 1,009.70 mbar 2.28 m/s 163.87 Deg 13.88 µg/m3 1.23 µg/m3
2021-11-04 09:00 29.05 µg/m3 0.37 µg/m3 31.3 µg/m3 78.44 µg/m3 28.01 µg/m3 0.33 mg/m3 25.03 °C 71.65 % 1,009.72 mbar 1.79 m/s 184.23 Deg 19.04 µg/m3 1.89 µg/m3
2021-11-04 08:00 29.14 µg/m3 0.29 µg/m3 30.7 µg/m3 71.55 µg/m3 27.98 µg/m3 0.3 mg/m3 24.36 °C 74.88 % 1,009.31 mbar 1.7 m/s 193.72 Deg 12.48 µg/m3 1.44 µg/m3
2021-11-04 07:00 25.83 µg/m3 0.17 µg/m3 33.39 µg/m3 39.29 µg/m3 26.2 µg/m3 0.27 mg/m3 23.57 °C 77.75 % 1,008.98 mbar 1.47 m/s 200.12 Deg 6.33 µg/m3 1.5 µg/m3
2021-11-04 06:00 10.8 µg/m3 0.08 µg/m3 45.97 µg/m3 40.5 µg/m3 27 µg/m3 0.17 mg/m3 23.65 °C 76.89 % 1,009.12 mbar 1.41 m/s 198.87 Deg 1.63 µg/m3 0.47 µg/m3
2021-11-04 05:00 4.2 µg/m3 0.07 µg/m3 50.13 µg/m3 40.94 µg/m3 27.29 µg/m3 0.13 mg/m3 23.71 °C 76.01 % 1,009.42 mbar 1.52 m/s 199.5 Deg 0.26 µg/m3 0.42 µg/m3
2021-11-04 04:00 2.54 µg/m3 0.2 µg/m3 53.93 µg/m3 40.12 µg/m3 26.75 µg/m3 0.13 mg/m3 23.49 °C 76.25 % 1,009.64 mbar 1.65 m/s 206.88 Deg -0.39 µg/m3 0.44 µg/m3
2021-11-04 03:00 3.51 µg/m3 0.08 µg/m3 55.74 µg/m3 39.68 µg/m3 26.45 µg/m3 0.13 mg/m3 23.42 °C 76.7 % 1,010.05 mbar 1.2 m/s 211.97 Deg -0.24 µg/m3 0.68 µg/m3
2021-11-04 02:00 4.57 µg/m3 0.08 µg/m3 59.22 µg/m3 39.57 µg/m3 26.38 µg/m3 0.17 mg/m3 23.18 °C 78.28 % 1,010.45 mbar 1.05 m/s 209.02 Deg -0.04 µg/m3 0.89 µg/m3
2021-11-04 01:00 9.93 µg/m3 0.14 µg/m3 55.74 µg/m3 43.43 µg/m3 28.95 µg/m3 0.19 mg/m3 22.74 °C 81.45 % 1,010.63 mbar 0.96 m/s 215.37 Deg 0.34 µg/m3 1.08 µg/m3
2021-11-04 00:00 11.37 µg/m3 0.13 µg/m3 60.69 µg/m3 46.37 µg/m3 30.91 µg/m3 0.23 mg/m3 22.58 °C 85.19 % 1,011.00 mbar 1.15 m/s 188.08 Deg 1.87 µg/m3 1.05 µg/m3
2021-11-03 23:00 12.6 µg/m3 0.14 µg/m3 68.6 µg/m3 48.98 µg/m3 32.65 µg/m3 0.26 mg/m3 22.52 °C 87.82 % 1,011.34 mbar 1.55 m/s 163 Deg 2.19 µg/m3 2.33 µg/m3
2021-11-03 22:00 17.01 µg/m3 0.16 µg/m3 68.61 µg/m3 49.82 µg/m3 33.21 µg/m3 0.29 mg/m3 22.49 °C 89.64 % 1,011.21 mbar 1.47 m/s 163.85 Deg 2.07 µg/m3 2.62 µg/m3
2021-11-03 21:00 28.32 µg/m3 0.27 µg/m3 64.7 µg/m3 51.71 µg/m3 34.47 µg/m3 0.43 mg/m3 22.6 °C 89.05 % 1,011.16 mbar 1.25 m/s 127.72 Deg 8.7 µg/m3 2.29 µg/m3
2021-11-03 20:00 42.43 µg/m3 0.35 µg/m3 53.62 µg/m3 53.7 µg/m3 35.8 µg/m3 0.56 mg/m3 22.67 °C 87.62 % 1,011.08 mbar 0.96 m/s 232.75 Deg 16.28 µg/m3 3.57 µg/m3
2021-11-03 19:00 35.96 µg/m3 0.3 µg/m3 58.62 µg/m3 48.76 µg/m3 32.51 µg/m3 0.45 mg/m3 22.72 °C 87.81 % 1,010.76 mbar 1.58 m/s 155.97 Deg 12.86 µg/m3 2.89 µg/m3
2021-11-03 18:00 32.51 µg/m3 0.26 µg/m3 61.8 µg/m3 45.07 µg/m3 30.05 µg/m3 0.45 mg/m3 22.96 °C 87.01 % 1,010.64 mbar 1.55 m/s 165.28 Deg 8.24 µg/m3 2.73 µg/m3
2021-11-03 17:00 28.29 µg/m3 0.27 µg/m3 58.81 µg/m3 41.16 µg/m3 27.44 µg/m3 0.44 mg/m3 23.48 °C 85.19 % 1,010.73 mbar 1.85 m/s 153.58 Deg 11.17 µg/m3 2.13 µg/m3
2021-11-03 16:00 23.77 µg/m3 0.36 µg/m3 57.18 µg/m3 36.4 µg/m3 24.27 µg/m3 0.42 mg/m3 24.01 °C 82.44 % 1,011.06 mbar 2.12 m/s 145.12 Deg 16.41 µg/m3 1.55 µg/m3
2021-11-03 15:00 20.06 µg/m3 0.33 µg/m3 56.52 µg/m3 23.89 µg/m3 15.94 µg/m3 0.29 mg/m3 24.16 °C 81.68 % 1,011.38 mbar 2.6 m/s 153.78 Deg 13.65 µg/m3 1.89 µg/m3
2021-11-03 14:00 22.12 µg/m3 0.29 µg/m3 60.61 µg/m3 30.51 µg/m3 10.73 µg/m3 0.29 mg/m3 24.51 °C 75.72 % 1,011.83 mbar 2.53 m/s 153.72 Deg 11.34 µg/m3 1 µg/m3
2021-11-03 13:00 18.22 µg/m3 0.37 µg/m3 63.39 µg/m3 24.92 µg/m3 7.52 µg/m3 0.3 mg/m3 24.27 °C 69.91 % 1,012.62 mbar 2.76 m/s 151.8 Deg 15.42 µg/m3 1.02 µg/m3
2021-11-03 12:00 18.85 µg/m3 0.32 µg/m3 64.44 µg/m3 22.65 µg/m3 6.57 µg/m3 0.25 mg/m3 24.09 °C 69.17 % 1,013.40 mbar 2.76 m/s 169.23 Deg 10.34 µg/m3 1.05 µg/m3
2021-11-03 11:00 20.18 µg/m3 0.38 µg/m3 64.36 µg/m3 20.82 µg/m3 6.1 µg/m3 0.28 mg/m3 23.79 °C 70.08 % 1,013.86 mbar 2.43 m/s 168.47 Deg 9.5 µg/m3 1.49 µg/m3
2021-11-03 10:00 25.06 µg/m3 0.48 µg/m3 57.56 µg/m3 26.99 µg/m3 7.22 µg/m3 0.32 mg/m3 23.53 °C 70.87 % 1,013.87 mbar 1.94 m/s 162.32 Deg 14.1 µg/m3 2.23 µg/m3
2021-11-03 09:00 50.45 µg/m3 0.77 µg/m3 37.56 µg/m3 45.76 µg/m3 10.76 µg/m3 0.47 mg/m3 22.96 °C 71.84 % 1,013.73 mbar 1.14 m/s 167.32 Deg 29.4 µg/m3 5.88 µg/m3
2021-11-03 08:00 83.85 µg/m3 3.65 µg/m3 7.68 µg/m3 59.86 µg/m3 30.9 µg/m3 1.96 mg/m3 20.85 °C 79.44 % 1,013.26 mbar 0.37 m/s 246.53 Deg 230.34 µg/m3 18.6 µg/m3
2021-11-03 07:00 72.22 µg/m3 2.9 µg/m3 3.44 µg/m3 35.1 µg/m3 23.41 µg/m3 1.76 mg/m3 19.66 °C 81.83 % 1,012.98 mbar 0.81 m/s 245.95 Deg 188.2 µg/m3 11.97 µg/m3
2021-11-03 06:00 49.16 µg/m3 0.69 µg/m3 10.51 µg/m3 13.23 µg/m3 8.83 µg/m3 0.48 mg/m3 19.54 °C 81.62 % 1,013.04 mbar 0.97 m/s 240.47 Deg 24.92 µg/m3 3.76 µg/m3
2021-11-03 05:00 33.25 µg/m3 0.52 µg/m3 12.45 µg/m3 11.75 µg/m3 7.87 µg/m3 0.34 mg/m3 19.12 °C 81.47 % 1,013.27 mbar 0.6 m/s 243.23 Deg 11.76 µg/m3 2.54 µg/m3
2021-11-03 04:00 27.04 µg/m3 0.66 µg/m3 10.5 µg/m3 12.58 µg/m3 8.49 µg/m3 0.28 mg/m3 18.24 °C 82.7 % 1,013.30 mbar 0.57 m/s 253.76 Deg 1.91 µg/m3 3.2 µg/m3
2021-11-03 03:00 29.88 µg/m3 0.43 µg/m3 9.32 µg/m3 13.96 µg/m3 9.36 µg/m3 0.32 mg/m3 18.27 °C 81.1 % 1,013.69 mbar 0.68 m/s 247.63 Deg 2.98 µg/m3 3.55 µg/m3
2021-11-03 02:00 38.96 µg/m3 0.49 µg/m3 5.81 µg/m3 18.19 µg/m3 12.15 µg/m3 0.4 mg/m3 18.4 °C 77.86 % 1,013.92 mbar 0.56 m/s 242.39 Deg 9.3 µg/m3 3.57 µg/m3
2021-11-03 01:00 39.73 µg/m3 0.42 µg/m3 10.15 µg/m3 17.27 µg/m3 11.54 µg/m3 0.4 mg/m3 18.35 °C 75.82 % 1,014.26 mbar 0.7 m/s 228.58 Deg 5.24 µg/m3 3.22 µg/m3
2021-11-03 00:00 49.4 µg/m3 0.73 µg/m3 5.59 µg/m3 25.38 µg/m3 16.93 µg/m3 0.58 mg/m3 18.46 °C 77.99 % 1,014.34 mbar 0.77 m/s 231.82 Deg 21.88 µg/m3 5.04 µg/m3
2021-11-02 23:00 57.25 µg/m3 0.76 µg/m3 3.69 µg/m3 26.93 µg/m3 17.96 µg/m3 0.61 mg/m3 18.92 °C 76.46 % 1,014.52 mbar 0.62 m/s 229.47 Deg 24.8 µg/m3 4.53 µg/m3
2021-11-02 22:00 61.97 µg/m3 0.73 µg/m3 4.08 µg/m3 28.34 µg/m3 18.75 µg/m3 0.63 mg/m3 19.28 °C 73.63 % 1,014.50 mbar 0.98 m/s 234.05 Deg 28.17 µg/m3 4.88 µg/m3
2021-11-02 21:00 68.73 µg/m3 0.89 µg/m3 5.54 µg/m3 56.87 µg/m3 19.41 µg/m3 0.72 mg/m3 19.7 °C 70.44 % 1,014.25 mbar 0.93 m/s 241.8 Deg 40.35 µg/m3 7.51 µg/m3
2021-11-02 20:00 72.03 µg/m3 0.88 µg/m3 8.7 µg/m3 62.39 µg/m3 17.22 µg/m3 0.76 mg/m3 20.49 °C 65.72 % 1,013.96 mbar 0.67 m/s 236.5 Deg 40.09 µg/m3 4.49 µg/m3
2021-11-02 19:00 66.66 µg/m3 0.49 µg/m3 20.51 µg/m3 42.25 µg/m3 16.63 µg/m3 0.51 mg/m3 21.05 °C 62.15 % 1,013.57 mbar 0.83 m/s 287.25 Deg 16.43 µg/m3 3.55 µg/m3
2021-11-02 18:00 55.59 µg/m3 0.41 µg/m3 31.49 µg/m3 30.51 µg/m3 10.08 µg/m3 0.42 mg/m3 21.36 °C 60.15 % 1,013.01 mbar 1.48 m/s 267.05 Deg 13.15 µg/m3 2.34 µg/m3
2021-11-02 17:00 37.71 µg/m3 0.33 µg/m3 50.63 µg/m3 29.71 µg/m3 9.2 µg/m3 0.31 mg/m3 22.1 °C 58.72 % 1,012.53 mbar 2.65 m/s 258.93 Deg 7.72 µg/m3 1.42 µg/m3
2021-11-02 16:00 29.65 µg/m3 0.29 µg/m3 59.17 µg/m3 37.23 µg/m3 9.33 µg/m3 0.28 mg/m3 22.83 °C 57.24 % 1,012.40 mbar 3.12 m/s 259.85 Deg 8.11 µg/m3 1.13 µg/m3
2021-11-02 15:00 26.25 µg/m3 0.27 µg/m3 60.96 µg/m3 45.98 µg/m3 11.68 µg/m3 0.25 mg/m3 23.06 °C 55.83 % 1,012.32 mbar 3.64 m/s 260.9 Deg 7.94 µg/m3 1.21 µg/m3
2021-11-02 14:00 24.09 µg/m3 0.27 µg/m3 60.59 µg/m3 41.23 µg/m3 10.98 µg/m3 0.3 mg/m3 23.29 °C 53.02 % 1,012.38 mbar 3.69 m/s 256.15 Deg 9.41 µg/m3 1.07 µg/m3
2021-11-02 13:00 25.37 µg/m3 0.28 µg/m3 56.87 µg/m3 34.3 µg/m3 8.43 µg/m3 0.25 mg/m3 23.55 °C 47.31 % 1,012.52 mbar 3.14 m/s 264.1 Deg 9.8 µg/m3 1.12 µg/m3
2021-11-02 12:00 23.56 µg/m3 0.3 µg/m3 54.72 µg/m3 33.85 µg/m3 8.39 µg/m3 0.24 mg/m3 23.18 °C 50.55 % 1,012.96 mbar 3.47 m/s 267.53 Deg 8.99 µg/m3 1.24 µg/m3
2021-11-02 11:00 26.74 µg/m3 0.31 µg/m3 52.05 µg/m3 29.25 µg/m3 9.07 µg/m3 0.29 mg/m3 22.91 °C 62.66 % 1,013.03 mbar 2.72 m/s 270.15 Deg 10.86 µg/m3 1.49 µg/m3
2021-11-02 10:00 28.25 µg/m3 0.33 µg/m3 47.97 µg/m3 34.2 µg/m3 10.71 µg/m3 0.27 mg/m3 22.52 °C 68.92 % 1,012.65 mbar 2.92 m/s 269.5 Deg 11.76 µg/m3 1.89 µg/m3
2021-11-02 09:00 32.77 µg/m3 0.4 µg/m3 42 µg/m3 49.28 µg/m3 12.33 µg/m3 0.32 mg/m3 22.39 °C 71.55 % 1,012.16 mbar 2.65 m/s 262.53 Deg 16.23 µg/m3 1.81 µg/m3
2021-11-02 08:00 45.16 µg/m3 0.57 µg/m3 21.17 µg/m3 42.53 µg/m3 12.15 µg/m3 0.43 mg/m3 21.97 °C 74.71 % 1,011.57 mbar 2.01 m/s 246.05 Deg 24.09 µg/m3 3.91 µg/m3
2021-11-02 07:00 47.02 µg/m3 0.56 µg/m3 9.46 µg/m3 23.58 µg/m3 15.72 µg/m3 0.57 mg/m3 21.98 °C 83.8 % 1,011.01 mbar 0.88 m/s 230.6 Deg 29.12 µg/m3 3.01 µg/m3
2021-11-02 06:00 31.44 µg/m3 0.31 µg/m3 27.62 µg/m3 19.56 µg/m3 13.07 µg/m3 0.27 mg/m3 22.08 °C 82.24 % 1,010.53 mbar 0.9 m/s 228.22 Deg 5.95 µg/m3 1.68 µg/m3
2021-11-02 05:00 18.77 µg/m3 0.17 µg/m3 35.86 µg/m3 20.39 µg/m3 13.61 µg/m3 0.22 mg/m3 22.08 °C 86.19 % 1,010.20 mbar 0.75 m/s 219.9 Deg 2.21 µg/m3 0.91 µg/m3
2021-11-02 04:00 5.85 µg/m3 1.21 µg/m3 55.61 µg/m3 15.69 µg/m3 10.55 µg/m3 0.15 mg/m3 22.31 °C 82.99 % 1,010.11 mbar 1.34 m/s 241.97 Deg -0.28 µg/m3 0.47 µg/m3
2021-11-02 03:00 4.81 µg/m3 0.17 µg/m3 57.66 µg/m3 13.25 µg/m3 8.93 µg/m3 0.14 mg/m3 22.29 °C 82.45 % 1,010.00 mbar 1.42 m/s 226.73 Deg -0.07 µg/m3 0.52 µg/m3
2021-11-02 02:00 5.06 µg/m3 0.11 µg/m3 57.36 µg/m3 14.73 µg/m3 9.88 µg/m3 0.16 mg/m3 22.37 °C 83.04 % 1,010.00 mbar 1.22 m/s 228.47 Deg -0.34 µg/m3 0.68 µg/m3
2021-11-02 01:00 5.34 µg/m3 0.12 µg/m3 62.93 µg/m3 14.18 µg/m3 9.62 µg/m3 0.16 mg/m3 22.59 °C 83.72 % 1,010.46 mbar 1.98 m/s 219.2 Deg -0.31 µg/m3 0.68 µg/m3
2021-11-02 00:00 8.77 µg/m3 0.14 µg/m3 59.46 µg/m3 14.74 µg/m3 9.94 µg/m3 0.2 mg/m3 22.54 °C 84.23 % 1,011.00 mbar 1.86 m/s 220.6 Deg 0.02 µg/m3 0.82 µg/m3
2021-11-01 23:00 15.89 µg/m3 0.18 µg/m3 52.04 µg/m3 14.85 µg/m3 9.99 µg/m3 0.23 mg/m3 22.27 °C 82.07 % 1,011.22 mbar 1.45 m/s 221.07 Deg 0.73 µg/m3 1.4 µg/m3
2021-11-01 22:00 30.67 µg/m3 0.22 µg/m3 32.81 µg/m3 17.52 µg/m3 11.69 µg/m3 0.32 mg/m3 22.07 °C 81.89 % 1,010.92 mbar 0.9 m/s 220.98 Deg 2.98 µg/m3 1.6 µg/m3
2021-11-01 21:00 27.3 µg/m3 0.2 µg/m3 36.73 µg/m3 18.86 µg/m3 12.59 µg/m3 0.3 mg/m3 21.99 °C 83.84 % 1,010.89 mbar 1.09 m/s 219.75 Deg 2.19 µg/m3 1.97 µg/m3
2021-11-01 20:00 39.78 µg/m3 0.26 µg/m3 25.35 µg/m3 19.39 µg/m3 12.93 µg/m3 0.38 mg/m3 21.92 °C 83.34 % 1,010.87 mbar 0.99 m/s 220.75 Deg 5.62 µg/m3 3.25 µg/m3
2021-11-01 19:00 54.82 µg/m3 0.45 µg/m3 10.83 µg/m3 22.48 µg/m3 14.99 µg/m3 0.53 mg/m3 22.15 °C 81.55 % 1,010.54 mbar 0.81 m/s 219.15 Deg 17.85 µg/m3 3.83 µg/m3
2021-11-01 18:00 44.59 µg/m3 0.26 µg/m3 22.9 µg/m3 20.46 µg/m3 13.65 µg/m3 0.43 mg/m3 22.43 °C 79.23 % 1,009.98 mbar 0.9 m/s 218.58 Deg 7.89 µg/m3 2.47 µg/m3
2021-11-01 17:00 32.11 µg/m3 0.29 µg/m3 35.71 µg/m3 16.21 µg/m3 10.83 µg/m3 0.37 mg/m3 22.87 °C 78.61 % 1,009.93 mbar 1.79 m/s 233.87 Deg 8.92 µg/m3 1.52 µg/m3
2021-11-01 16:00 22.41 µg/m3 0.18 µg/m3 46.37 µg/m3 23.87 µg/m3 9.51 µg/m3 0.27 mg/m3 23.09 °C 75.15 % 1,009.72 mbar 2.99 m/s 250.48 Deg 6.48 µg/m3 1.42 µg/m3
2021-11-01 15:00 21.01 µg/m3 0.2 µg/m3 44.23 µg/m3 29.01 µg/m3 10.54 µg/m3 0.29 mg/m3 23.07 °C 76.04 % 1,009.48 mbar 3.09 m/s 256.63 Deg 8.77 µg/m3 0.97 µg/m3
2021-11-01 14:00 18.79 µg/m3 0.22 µg/m3 46.03 µg/m3 24.64 µg/m3 9.25 µg/m3 0.23 mg/m3 23.29 °C 75.96 % 1,009.73 mbar 3.34 m/s 247.68 Deg 8.01 µg/m3 1.19 µg/m3
2021-11-01 13:00 18.38 µg/m3 0.27 µg/m3 45.41 µg/m3 21.04 µg/m3 10.29 µg/m3 0.22 mg/m3 23.48 °C 76.93 % 1,010.04 mbar 3.26 m/s 250.63 Deg 8.57 µg/m3 0.86 µg/m3
2021-11-01 12:00 17.4 µg/m3 0.28 µg/m3 44.94 µg/m3 24.02 µg/m3 11.07 µg/m3 0.23 mg/m3 23.36 °C 77.87 % 1,010.37 mbar 3.13 m/s 244.82 Deg 9.09 µg/m3 0.92 µg/m3
2021-11-01 11:00 18.19 µg/m3 0.25 µg/m3 45.17 µg/m3 16.37 µg/m3 9.42 µg/m3 0.27 mg/m3 22.92 °C 79.53 % 1,010.69 mbar 3.57 m/s 252.2 Deg 8.04 µg/m3 1.23 µg/m3
2021-11-01 10:00 36.08 µg/m3 0.44 µg/m3 30.36 µg/m3 17.77 µg/m3 11.89 µg/m3 0.32 mg/m3 21.6 °C 86.49 % 1,010.68 mbar 1.8 m/s 239.87 Deg 17.41 µg/m3 3.25 µg/m3
2021-11-01 09:00 58.46 µg/m3 0.65 µg/m3 20.35 µg/m3 22.78 µg/m3 15.48 µg/m3 0.5 mg/m3 21.23 °C 86.86 % 1,010.53 mbar 1.6 m/s 193.22 Deg 28.75 µg/m3 6.04 µg/m3
2021-11-01 08:00 63.92 µg/m3 0.74 µg/m3 13.16 µg/m3 22.63 µg/m3 15.35 µg/m3 0.62 mg/m3 21.19 °C 88.38 % 1,010.22 mbar 0.96 m/s 205.38 Deg 31.8 µg/m3 10.52 µg/m3
2021-11-01 07:00 65.11 µg/m3 1.66 µg/m3 7.25 µg/m3 27.07 µg/m3 19.14 µg/m3 1.18 mg/m3 20.37 °C 89.59 % 1,010.06 mbar 0.51 m/s 223.9 Deg 112.87 µg/m3 7.17 µg/m3
2021-11-01 06:00 35.34 µg/m3 0.3 µg/m3 37.79 µg/m3 15.43 µg/m3 12.01 µg/m3 0.34 mg/m3 19.88 °C 87.6 % 1,010.34 mbar 0.8 m/s 193.88 Deg 8.82 µg/m3 1.36 µg/m3
2021-11-01 05:00 26.68 µg/m3 0.28 µg/m3 48.04 µg/m3 13.2 µg/m3 10.06 µg/m3 0.2 mg/m3 19.41 °C 86.23 % 1,010.78 mbar 0.49 m/s 300.78 Deg 3.46 µg/m3 0.7 µg/m3
2021-11-01 04:00 27.6 µg/m3 0.38 µg/m3 43.98 µg/m3 13.06 µg/m3 10.1 µg/m3 0.17 mg/m3 18.98 °C 87.97 % 1,011.33 mbar 0.58 m/s 206.6 Deg 1.25 µg/m3 0.77 µg/m3
2021-11-01 03:00 36.23 µg/m3 0.16 µg/m3 43.66 µg/m3 11.38 µg/m3 8.99 µg/m3 0.16 mg/m3 18.56 °C 88.51 % 1,012.04 mbar 0.85 m/s 108.05 Deg 1.78 µg/m3 0.98 µg/m3
2021-11-01 02:00 33.36 µg/m3 0.27 µg/m3 41.92 µg/m3 13.57 µg/m3 11.28 µg/m3 0.2 mg/m3 18.22 °C 89.59 % 1,012.55 mbar 1.18 m/s 131.97 Deg 2.65 µg/m3 2.24 µg/m3
2021-11-01 01:00 32.36 µg/m3 0.16 µg/m3 38.88 µg/m3 18.05 µg/m3 13.24 µg/m3 0.24 mg/m3 18.08 °C 88.35 % 1,013.38 mbar 0.31 m/s 275.51 Deg 0.92 µg/m3 1.68 µg/m3
2021-11-01 00:00 36.52 µg/m3 0.31 µg/m3 39.35 µg/m3 16.1 µg/m3 12.4 µg/m3 0.26 mg/m3 17.66 °C 89.62 % 1,013.68 mbar 0.6 m/s 242.51 Deg 6.44 µg/m3 3.12 µg/m3
2021-10-31 23:00 36 µg/m3 0.43 µg/m3 41.77 µg/m3 14.94 µg/m3 12.13 µg/m3 0.39 mg/m3 17.46 °C 90.44 % 1,014.30 mbar 0.76 m/s 112.58 Deg 16.01 µg/m3 2.26 µg/m3
2021-10-31 22:00 31.33 µg/m3 0.2 µg/m3 48.11 µg/m3 16.41 µg/m3 12.83 µg/m3 0.33 mg/m3 17.71 °C 87.31 % 1,015.01 mbar 0.88 m/s 279.22 Deg 2.59 µg/m3 1.92 µg/m3
2021-10-31 21:00 54.6 µg/m3 0.36 µg/m3 22.95 µg/m3 23.27 µg/m3 18.77 µg/m3 0.45 mg/m3 19.32 °C 88.34 % 1,014.93 mbar 0.58 m/s 288.93 Deg 9.96 µg/m3 2.71 µg/m3
2021-10-31 20:00 42.16 µg/m3 0.32 µg/m3 34.35 µg/m3 15.56 µg/m3 11.99 µg/m3 0.43 mg/m3 19.57 °C 86.55 % 1,014.99 mbar 0.68 m/s 175.67 Deg 9.3 µg/m3 2.47 µg/m3
2021-10-31 19:00 38.21 µg/m3 0.28 µg/m3 40.85 µg/m3 16.72 µg/m3 12.67 µg/m3 0.39 mg/m3 20.02 °C 83.96 % 1,014.91 mbar 0.49 m/s 237.48 Deg 4.9 µg/m3 2.26 µg/m3
2021-10-31 18:00 44.32 µg/m3 0.43 µg/m3 39.03 µg/m3 24.55 µg/m3 16.57 µg/m3 0.44 mg/m3 20.19 °C 83.37 % 1,014.29 mbar 1.15 m/s 133.3 Deg 20.29 µg/m3 1.6 µg/m3
2021-10-31 17:00 37.52 µg/m3 0.49 µg/m3 47.33 µg/m3 30.7 µg/m3 20.68 µg/m3 0.41 mg/m3 20.34 °C 83.04 % 1,014.47 mbar 1.43 m/s 127.88 Deg 23.72 µg/m3 2.1 µg/m3
2021-10-31 16:00 36.73 µg/m3 0.39 µg/m3 46.02 µg/m3 29.98 µg/m3 20.41 µg/m3 0.4 mg/m3 20.21 °C 84.27 % 1,014.53 mbar 1.42 m/s 154.25 Deg 18.37 µg/m3 2.17 µg/m3
2021-10-31 15:00 26.5 µg/m3 0.34 µg/m3 60.39 µg/m3 18.02 µg/m3 13 µg/m3 0.34 mg/m3 20.01 °C 82.12 % 1,014.80 mbar 1.77 m/s 177.2 Deg 16.48 µg/m3 2.8 µg/m3
2021-10-31 14:00 41.54 µg/m3 0.61 µg/m3 46.71 µg/m3 22.64 µg/m3 16.49 µg/m3 0.45 mg/m3 20.32 °C 81.32 % 1,015.25 mbar 1.43 m/s 84.08 Deg 34.8 µg/m3 3.31 µg/m3
2021-10-31 13:00 27.64 µg/m3 0.4 µg/m3 61.32 µg/m3 32.59 µg/m3 21.25 µg/m3 0.39 mg/m3 20.76 °C 78.87 % 1,015.82 mbar 2.05 m/s 127.48 Deg 22.51 µg/m3 1.36 µg/m3
2021-10-31 12:00 28.27 µg/m3 0.47 µg/m3 59.41 µg/m3 32.07 µg/m3 20.42 µg/m3 0.37 mg/m3 20.68 °C 78.92 % 1,016.62 mbar 1.92 m/s 159.88 Deg 22.16 µg/m3 2.05 µg/m3
2021-10-31 11:00 32.78 µg/m3 0.46 µg/m3 51.72 µg/m3 26.77 µg/m3 15.05 µg/m3 0.39 mg/m3 20.21 °C 80.58 % 1,017.05 mbar 1.15 m/s 143.57 Deg 16.31 µg/m3 4.2 µg/m3
2021-10-31 10:00 45.67 µg/m3 0.56 µg/m3 34.71 µg/m3 30.91 µg/m3 21.43 µg/m3 0.51 mg/m3 19.68 °C 87.35 % 1,017.34 mbar 0.98 m/s 63.18 Deg 25.2 µg/m3 4.18 µg/m3
2021-10-31 09:00 53.17 µg/m3 0.59 µg/m3 14.13 µg/m3 37.03 µg/m3 25.82 µg/m3 0.54 mg/m3 19.06 °C 91.26 % 1,017.41 mbar 0.53 m/s 219.92 Deg 22.78 µg/m3 5.35 µg/m3
2021-10-31 08:00 48.31 µg/m3 0.65 µg/m3 6.42 µg/m3 35.53 µg/m3 26.41 µg/m3 0.6 mg/m3 18.59 °C 93.01 % 1,017.29 mbar 0.59 m/s 236.05 Deg 21.44 µg/m3 4.88 µg/m3
2021-10-31 07:00 46.43 µg/m3 0.55 µg/m3 9.84 µg/m3 30.6 µg/m3 23.89 µg/m3 0.46 mg/m3 18.51 °C 92.99 % 1,016.88 mbar 0.71 m/s 229.85 Deg 14.38 µg/m3 4.99 µg/m3
2021-10-31 06:00 35.67 µg/m3 0.34 µg/m3 25.96 µg/m3 29.01 µg/m3 22.87 µg/m3 0.34 mg/m3 18.7 °C 92.28 % 1,016.65 mbar 0.52 m/s 250.66 Deg 4.27 µg/m3 4.15 µg/m3
2021-10-31 05:00 20.18 µg/m3 0.24 µg/m3 51.76 µg/m3 29.04 µg/m3 24.88 µg/m3 0.31 mg/m3 18.76 °C 90.33 % 1,016.88 mbar 0.37 m/s 245.63 Deg 1.99 µg/m3 3.31 µg/m3
2021-10-31 04:00 26.89 µg/m3 0.43 µg/m3 31.75 µg/m3 27.31 µg/m3 18.91 µg/m3 0.33 mg/m3 18.85 °C 88.65 % 1,016.99 mbar 1.14 m/s 143.27 Deg 3.77 µg/m3 5.25 µg/m3
2021-10-31 03:00 40.42 µg/m3 0.41 µg/m3 5.71 µg/m3 32.79 µg/m3 22.31 µg/m3 0.47 mg/m3 18.96 °C 89.08 % 1,016.97 mbar 0.73 m/s 233.03 Deg 6.54 µg/m3 5.44 µg/m3
2021-10-31 02:00 48.97 µg/m3 0.73 µg/m3 1.91 µg/m3 36.61 µg/m3 24.5 µg/m3 0.7 mg/m3 19.26 °C 87.68 % 1,017.10 mbar 0.48 m/s 244.37 Deg 30.71 µg/m3 5.46 µg/m3
2021-10-31 01:00 50.46 µg/m3 0.52 µg/m3 4.68 µg/m3 36.64 µg/m3 24.6 µg/m3 0.56 mg/m3 19.35 °C 87.02 % 1,017.23 mbar 0.52 m/s 245 Deg 14.29 µg/m3 6.09 µg/m3
2021-10-31 00:00 55.17 µg/m3 0.66 µg/m3 3.96 µg/m3 40.86 µg/m3 27.33 µg/m3 0.74 mg/m3 19.53 °C 85.67 % 1,017.32 mbar 0.52 m/s 235.14 Deg 26.39 µg/m3 5.41 µg/m3
2021-10-30 23:00 60.97 µg/m3 0.78 µg/m3 13.49 µg/m3 36.06 µg/m3 24.04 µg/m3 0.83 mg/m3 20.2 °C 82.7 % 1,017.38 mbar 0.48 m/s 210.07 Deg 33.71 µg/m3 7.79 µg/m3
2021-10-30 22:00 35.34 µg/m3 0.4 µg/m3 52.87 µg/m3 26.8 µg/m3 17.89 µg/m3 0.48 mg/m3 20.5 °C 79.49 % 1,017.39 mbar 0.99 m/s 34.98 Deg 15.52 µg/m3 3.85 µg/m3
2021-10-30 21:00 26.77 µg/m3 0.44 µg/m3 59.93 µg/m3 20.64 µg/m3 13.91 µg/m3 0.41 mg/m3 20.4 °C 78.45 % 1,016.89 mbar 1.5 m/s 42.38 Deg 13.66 µg/m3 2.81 µg/m3
2021-10-30 20:00 44.25 µg/m3 0.63 µg/m3 29.18 µg/m3 17.47 µg/m3 11.74 µg/m3 0.72 mg/m3 20.46 °C 77.78 % 1,016.65 mbar 0.85 m/s 34.25 Deg 26.34 µg/m3 2.1 µg/m3
2021-10-30 18:00 61.73 µg/m3 0.43 µg/m3 22.95 µg/m3 22.51 µg/m3 15.96 µg/m3 0.5 mg/m3 19.81 °C 80.79 % 1,015.41 mbar 0.66 m/s 237.8 Deg 12.85 µg/m3 3.57 µg/m3
2021-10-30 17:00 29.83 µg/m3 0.23 µg/m3 57.69 µg/m3 19.62 µg/m3 12.17 µg/m3 0.3 mg/m3 20.62 °C 74.78 % 1,015.20 mbar 1.74 m/s 318.02 Deg 5.51 µg/m3 1.45 µg/m3
2021-10-30 16:00 25.1 µg/m3 0.27 µg/m3 63.83 µg/m3 20.61 µg/m3 10.44 µg/m3 0.26 mg/m3 21.54 °C 68.19 % 1,014.55 mbar 2.13 m/s 310.1 Deg 5.17 µg/m3 1.15 µg/m3
2021-10-30 15:00 13.56 µg/m3 0.24 µg/m3 73.72 µg/m3 15.24 µg/m3 8.32 µg/m3 0.24 mg/m3 22 °C 65.78 % 1,014.13 mbar 2.42 m/s 311.25 Deg 3.58 µg/m3 1.36 µg/m3
2021-10-30 14:00 13.46 µg/m3 0.31 µg/m3 75.98 µg/m3 16.42 µg/m3 8.59 µg/m3 0.24 mg/m3 21.96 °C 66.46 % 1,014.03 mbar 2.34 m/s 312.9 Deg 4.51 µg/m3 1.78 µg/m3
2021-10-30 13:00 19.12 µg/m3 0.26 µg/m3 70.01 µg/m3 21.49 µg/m3 9.21 µg/m3 0.25 mg/m3 21.83 °C 67.87 % 1,014.40 mbar 2.25 m/s 308.7 Deg 6.38 µg/m3 2.36 µg/m3
2021-10-30 12:00 21.77 µg/m3 0.36 µg/m3 64.48 µg/m3 31.33 µg/m3 10.87 µg/m3 0.31 mg/m3 21.57 °C 68.71 % 1,014.53 mbar 1.81 m/s 338.03 Deg 14.22 µg/m3 1.84 µg/m3
2021-10-30 11:00 22.59 µg/m3 0.28 µg/m3 59.65 µg/m3 26.03 µg/m3 9.99 µg/m3 0.28 mg/m3 21.06 °C 68.01 % 1,014.75 mbar 2.07 m/s 310.05 Deg 6.12 µg/m3 1.33 µg/m3
2021-10-30 10:00 20.58 µg/m3 0.35 µg/m3 60.02 µg/m3 25.41 µg/m3 9.61 µg/m3 0.27 mg/m3 21.3 °C 66.32 % 1,014.39 mbar 2.12 m/s 318.78 Deg 8.09 µg/m3 1.19 µg/m3
2021-10-30 09:00 21.3 µg/m3 0.35 µg/m3 59.92 µg/m3 23.35 µg/m3 10.05 µg/m3 0.27 mg/m3 20.81 °C 67.32 % 1,013.85 mbar 1.78 m/s 320.15 Deg 6.86 µg/m3 1.12 µg/m3
2021-10-30 08:00 22.13 µg/m3 0.31 µg/m3 59.18 µg/m3 23.96 µg/m3 9.91 µg/m3 0.25 mg/m3 20.29 °C 68.15 % 1,013.25 mbar 1.55 m/s 324.73 Deg 6.59 µg/m3 1.15 µg/m3
2021-10-30 07:00 19.59 µg/m3 0.22 µg/m3 59.72 µg/m3 20.13 µg/m3 10.23 µg/m3 0.23 mg/m3 19.83 °C 69.74 % 1,012.73 mbar 1.64 m/s 298.1 Deg 2.3 µg/m3 1.7 µg/m3
2021-10-30 06:00 18.53 µg/m3 0.21 µg/m3 59.86 µg/m3 18.74 µg/m3 11.35 µg/m3 0.25 mg/m3 19.72 °C 73.22 % 1,012.13 mbar 2.09 m/s 284.33 Deg 1.65 µg/m3 0.84 µg/m3
2021-10-30 05:00 9.63 µg/m3 0.18 µg/m3 69.32 µg/m3 15.79 µg/m3 9.91 µg/m3 0.19 mg/m3 19.69 °C 72.24 % 1,011.93 mbar 2.25 m/s 285.05 Deg 0.27 µg/m3 0.68 µg/m3
2021-10-30 04:00 8.21 µg/m3 1.03 µg/m3 70.71 µg/m3 16.83 µg/m3 10.29 µg/m3 0.18 mg/m3 19.43 °C 73.65 % 1,011.86 mbar 2.13 m/s 275.48 Deg 0.15 µg/m3 0.52 µg/m3
2021-10-30 03:00 14.09 µg/m3 0.22 µg/m3 63.25 µg/m3 13.11 µg/m3 9.42 µg/m3 0.18 mg/m3 19.2 °C 76.52 % 1,011.89 mbar 2.22 m/s 270.7 Deg 1.49 µg/m3 0.58 µg/m3
2021-10-30 02:00 10.59 µg/m3 0.21 µg/m3 64.78 µg/m3 12.78 µg/m3 9.13 µg/m3 0.19 mg/m3 19.41 °C 75.07 % 1,011.79 mbar 2.42 m/s 273.03 Deg -0.09 µg/m3 0.81 µg/m3

It is to be noted that the data is provisional and subject to quality assurance procedures. For validated data kindly refer your request to contact.air@era.org.mt